GFSSW_sfc_rhum_000.txt.gz
RH
70 69 68 67 66 66 70 71 72 70 72 71 73 69 69 75 81 91 97 72 79 71 71 50 52 48 55 51 46 46 56 54 40 38 32 29 32 28 28 26 26 40 41 44 52
68 68 67 67 66 68 71 71 70 70 71 71 72 69 71 77 93 96 71 61 67 72 74 53 55 53 57 50 46 50 64 53 37 36 39 32 34 30 31 31 32 46 61 63 62
65 66 66 68 67 68 69 70 69 68 70 72 69 69 74 78 84 73 66 64 60 69 76 61 48 48 57 54 52 51 56 45 39 37 38 34 32 31 33 33 29 28 55 66 70
66 67 67 66 68 68 70 70 71 70 68 70 68 69 76 84 86 52 57 62 66 64 74 65 51 58 62 60 52 61 46 42 40 39 38 33 31 32 31 29 28 27 34 66 67
67 66 67 66 68 69 72 71 70 70 68 69 69 71 82 87 70 42 55 56 58 74 83 59 51 57 65 59 55 59 50 44 40 40 35 31 34 34 30 25 28 27 51 64 66
69 69 69 69 69 68 69 69 70 72 69 69 73 79 87 94 49 42 46 54 67 75 78 56 51 46 57 56 56 48 42 37 35 33 35 35 34 36 28 25 25 29 42 58 65
67 69 73 72 70 70 69 67 67 73 70 69 70 80 88 69 48 39 40 62 70 74 72 52 47 45 55 60 46 41 48 43 36 35 34 35 33 30 26 28 25 27 30 34 48
68 71 73 72 73 72 70 69 68 74 70 70 74 86 83 54 54 52 51 57 68 74 58 52 59 57 53 49 39 46 49 55 41 40 35 31 46 31 27 34 29 27 31 28 30
74 75 75 77 82 79 74 71 71 72 75 76 88 86 85 70 74 52 49 60 73 78 70 56 56 60 51 57 50 56 60 54 43 35 35 34 40 29 31 27 28 34 31 34 38
76 82 89 86 88 84 82 76 80 82 79 74 82 86 76 79 68 54 54 53 82 80 82 82 86 72 51 50 73 60 60 52 46 33 40 39 36 31 32 26 31 32 38 40 40
79 82 84 90 91 84 85 95 98 94 95 80 86 75 66 63 58 61 56 62 81 90 92 86 92 91 80 46 48 47 49 48 39 32 36 38 38 32 32 30 34 39 41 44 43
79 80 82 85 89 88 91 97 80 75 91 76 72 72 74 63 66 69 66 81 89 90 78 98 91 76 60 53 44 45 47 47 38 35 36 38 33 34 27 33 41 40 44 46 49
80 82 85 87 87 96 94 89 91 86 82 81 76 63 66 66 76 81 80 81 80 77 82 81 72 65 50 48 47 50 50 47 46 40 39 48 45 34 35 39 42 44 44 46 48
83 87 88 90 96 94 98 95 94 92 89 90 82 68 77 77 94 84 87 77 72 73 71 76 55 59 56 46 42 51 39 39 44 49 51 47 56 42 40 41 45 49 46 46 48
88 90 90 93 99 96 97 95 96 97 98 85 83 84 88 80 88 91 90 80 72 71 76 68 51 55 46 44 40 41 40 44 46 52 60 51 51 44 40 43 44 48 47 46 51
89 92 94 98 99 96 97 96 96 99 98 94 93 96 86 90 85 88 92 70 61 60 55 52 39 43 42 38 38 40 40 48 55 55 64 50 48 46 45 38 45 52 48 44 51
89 91 95 88 95 97 96 97 100 99 90 97 93 82 79 87 84 86 91 88 80 76 74 60 34 30 34 36 36 41 52 67 67 70 64 52 50 40 34 40 34 45 48 47 52
90 91 91 75 92 96 98 100 99 94 90 78 78 78 88 75 79 80 87 80 62 50 61 69 48 32 28 37 40 45 49 66 70 75 61 45 47 34 36 39 40 43 47 48 53
89 98 91 86 90 95 99 99 96 86 76 80 74 92 95 79 67 72 75 56 50 49 46 50 57 42 38 31 36 42 54 49 58 70 62 56 46 36 46 51 49 52 48 49 53
99 91 83 80 82 97 99 94 92 76 68 70 88 84 90 71 67 62 73 58 67 52 64 54 60 51 42 37 36 44 39 52 60 65 66 56 52 45 52 54 53 54 52 51 51
94 84 85 72 79 99 97 94 92 64 72 88 75 83 70 68 59 64 72 68 65 61 61 57 58 72 49 50 50 44 45 42 50 56 60 62 50 41 38 45 49 51 51 51 54
93 72 84 72 88 91 93 89 87 88 85 82 52 56 68 72 62 80 79 73 64 59 63 69 67 77 68 54 48 49 44 43 50 52 59 57 48 36 45 36 40 47 49 56 56
89 73 83 78 85 91 74 76 86 89 78 70 77 68 59 68 74 70 71 68 64 64 63 58 74 84 77 67 62 61 50 46 51 57 62 58 51 38 49 43 51 53 54 52 59
87 68 70 77 80 76 71 76 75 76 71 62 61 61 67 66 64 71 72 68 65 61 75 59 60 64 63 61 60 66 62 52 49 62 54 59 52 47 42 43 47 50 51 59 62
78 70 75 61 65 68 62 63 68 65 60 61 58 56 61 68 66 72 71 62 56 62 57 49 53 55 52 47 47 52 54 59 60 58 49 49 47 42 39 38 38 42 57 63 56
74 72 74 73 63 66 72 64 63 63 59 65 66 55 54 62 62 65 63 61 60 55 57 52 54 44 41 38 41 41 39 40 46 53 55 54 43 36 38 47 70 72 62 60 52
89 81 60 73 66 66 70 61 58 58 53 51 55 48 51 52 43 45 51 51 52 52 54 49 44 42 40 50 49 52 50 47 43 41 36 39 35 41 44 51 62 68 60 55 56

GFSSW_sfc_rhum_003.txt.gz
RH
70 70 70 69 68 68 68 69 72 74 76 73 73 74 71 76 79 90 97 75 68 71 75 64 63 56 59 62 49 49 58 61 48 40 32 32 37 31 30 31 29 46 50 52 55
68 68 68 68 68 68 68 71 72 74 73 74 72 74 73 79 92 97 70 64 64 68 81 60 63 57 65 60 49 53 67 56 42 34 38 39 40 34 33 32 32 35 65 67 72
65 65 67 67 68 69 69 70 72 72 74 72 72 75 76 79 83 73 62 66 61 61 76 69 54 55 65 58 53 56 58 49 42 35 42 43 38 34 35 34 31 29 33 70 78
67 67 67 67 67 68 69 71 72 72 73 73 74 74 78 83 88 57 55 61 63 54 69 86 75 62 66 66 57 63 50 45 45 44 47 43 35 35 33 30 27 30 30 67 69
67 68 68 68 67 68 69 72 74 71 71 72 72 74 86 89 76 47 54 57 55 60 76 84 64 63 68 64 62 66 54 49 46 48 47 42 40 37 34 28 29 28 36 59 68
67 68 71 71 70 70 70 74 77 72 73 73 75 78 94 89 51 46 47 57 61 66 86 87 58 55 62 60 60 56 54 48 40 38 38 39 38 41 33 30 28 27 28 47 69
67 67 70 71 72 71 70 69 70 73 76 75 70 80 92 72 50 52 41 54 60 67 88 78 59 47 58 63 53 50 52 45 42 41 39 39 39 36 29 31 30 29 29 33 44
70 70 71 72 73 74 73 70 71 75 77 76 70 88 83 57 55 57 50 60 66 70 83 70 52 49 61 54 42 46 54 60 44 42 39 34 46 36 31 39 30 35 34 36 40
71 74 82 84 76 79 80 76 73 72 73 76 90 89 82 60 71 56 52 66 66 75 85 61 55 58 62 68 66 50 65 58 44 38 41 41 45 34 35 31 29 36 40 42 46
72 78 83 88 91 86 82 77 72 76 80 72 77 92 79 74 69 56 49 57 85 74 90 88 78 86 66 72 83 63 66 58 54 40 47 46 42 33 36 29 33 38 45 48 48
76 79 80 83 92 93 86 93 96 96 88 87 82 79 66 63 59 59 49 59 80 77 94 86 94 89 82 71 58 56 52 53 46 36 41 44 41 34 36 33 36 43 47 49 49
78 78 82 84 89 89 90 90 74 76 96 77 70 71 70 68 79 64 52 70 91 85 76 97 92 68 69 56 50 49 56 56 42 41 42 44 40 36 31 34 40 44 49 51 53
80 82 88 90 90 94 86 80 88 92 88 80 75 77 73 70 72 77 62 71 85 78 84 80 71 70 66 74 59 54 57 58 48 44 44 47 48 44 37 44 42 46 48 50 53
84 86 90 93 97 94 95 92 94 92 97 87 87 72 67 70 78 72 64 70 80 78 75 80 64 79 72 69 62 76 45 49 47 53 58 56 62 46 39 46 47 53 52 51 57
87 91 92 92 99 94 97 90 95 92 99 79 80 76 69 75 86 92 92 93 75 72 83 81 71 77 84 66 47 63 42 45 50 53 64 56 58 48 44 45 46 48 50 55 59
88 90 94 98 99 96 96 90 89 100 100 92 83 85 86 79 78 94 87 92 52 69 55 56 56 61 61 52 41 43 44 51 63 59 69 55 51 50 46 36 49 52 49 53 60
86 89 95 91 96 97 96 96 100 99 82 97 86 81 79 84 94 91 93 96 77 84 81 51 52 39 37 36 44 45 54 72 72 73 70 60 61 39 38 36 36 45 48 53 60
88 91 91 82 97 96 96 99 100 90 94 76 82 80 90 78 87 94 94 87 63 65 67 70 67 35 32 39 45 50 52 68 71 78 65 55 56 38 42 41 38 42 46 51 59
92 97 93 88 93 96 98 100 95 84 76 84 88 93 94 79 82 90 93 76 55 52 58 65 59 43 37 34 36 44 56 53 63 75 73 60 50 40 51 55 50 49 50 53 58
95 98 88 82 91 98 98 95 89 70 66 72 84 86 90 78 87 90 86 70 55 45 50 50 57 53 43 37 36 43 41 56 66 73 72 62 58 48 55 59 57 54 51 52 58
97 93 93 86 89 99 99 94 78 61 65 67 72 88 69 72 76 84 80 67 60 58 60 54 53 73 48 52 48 42 44 50 55 62 64 67 52 42 40 53 52 52 49 52 57
97 84 87 83 97 94 97 92 67 68 89 88 74 62 69 62 64 77 84 73 63 57 69 73 62 70 66 65 51 53 43 44 56 58 63 63 51 42 44 48 51 51 54 57 58
94 92 84 88 92 90 96 94 87 90 86 78 63 57 68 62 73 82 79 73 68 64 62 61 76 86 78 71 71 68 53 47 54 59 63 60 49 39 47 40 46 49 51 54 61
95 74 97 96 84 76 82 94 94 88 73 66 67 65 66 67 67 82 82 70 66 62 72 59 67 66 62 68 67 70 60 53 51 63 58 58 54 47 45 44 50 53 59 61 67
88 69 77 82 74 66 64 74 87 80 70 68 69 68 65 71 70 79 73 65 58 62 58 46 54 56 56 52 59 62 64 57 53 52 49 50 52 46 46 41 40 40 54 63 64
83 77 76 77 66 61 65 64 69 63 71 74 75 71 65 62 62 70 64 64 61 57 60 52 60 49 47 46 42 45 47 62 62 60 57 57 50 42 43 50 59 67 66 68 61
93 88 64 76 68 67 64 59 59 56 53 57 56 59 65 51 44 51 52 53 56 56 55 45 46 42 46 56 54 49 47 44 42 42 38 36 34 45 55 61 69 72 64 65 58

GFSSW_sfc_rhum_006.txt.gz
RH
68 69 69 70 70 70 70 70 70 77 79 78 75 75 75 77 78 90 96 80 72 66 72 71 69 62 62 66 50 50 60 65 53 42 36 34 42 38 34 35 33 37 48 48 64
68 67 66 66 68 70 70 69 71 72 75 77 75 76 79 78 92 97 73 64 63 63 78 80 77 60 67 68 53 55 69 59 45 37 36 40 48 40 36 35 34 34 48 67 74
67 66 66 67 66 67 70 70 70 71 74 78 77 77 79 78 86 78 63 66 62 59 71 85 66 62 69 62 56 58 62 53 45 39 39 48 47 42 39 38 33 29 29 50 77
65 66 67 67 68 67 67 70 71 72 73 74 76 79 81 81 91 60 56 56 62 57 63 86 86 67 74 69 58 67 51 49 48 46 50 52 44 42 38 34 30 30 33 41 63
66 67 69 69 69 68 68 69 69 72 72 76 77 79 88 88 75 48 54 53 55 63 68 84 75 69 74 69 64 72 60 54 49 50 53 50 47 44 38 31 32 31 31 33 55
68 68 68 71 72 71 71 69 71 73 73 76 76 81 92 96 53 48 49 50 64 68 71 80 75 61 64 64 62 60 57 55 53 46 44 42 42 42 38 35 30 30 31 31 45
71 70 70 69 70 71 71 68 68 72 73 73 78 83 88 77 55 59 54 47 56 67 72 80 82 50 55 66 58 58 66 53 46 46 45 45 42 41 33 38 32 33 36 34 36
71 74 73 74 72 72 72 70 69 72 73 73 73 87 90 60 53 54 58 57 60 66 68 80 78 56 55 50 44 54 57 68 51 45 40 40 39 34 35 43 35 33 40 47 52
70 70 72 79 81 82 77 76 76 72 69 75 85 85 82 57 70 62 56 64 75 74 75 71 77 65 58 61 54 48 56 60 50 40 44 47 50 33 38 33 34 38 54 53 54
72 72 72 78 80 86 84 77 75 75 78 70 74 88 79 77 69 63 60 55 72 81 78 92 83 80 85 83 88 65 56 67 59 46 48 46 45 34 38 38 36 39 53 58 57
75 79 76 83 82 89 94 93 94 95 87 88 81 78 71 60 64 68 56 56 72 88 94 87 92 96 85 70 73 64 61 66 50 41 47 46 47 38 36 36 37 45 51 58 56
79 81 83 85 88 91 91 90 72 74 90 77 77 72 62 75 82 70 51 76 87 81 79 96 93 71 74 71 66 52 51 60 52 46 46 46 44 39 40 34 37 44 53 58 60
81 82 89 91 93 97 90 72 87 72 88 85 75 77 72 70 80 79 59 70 88 66 82 82 78 63 69 70 63 58 59 71 64 50 50 52 50 48 40 46 46 49 53 60 58
83 81 90 94 98 94 95 85 90 76 99 94 82 78 74 78 84 64 52 64 78 66 73 86 76 73 70 83 72 90 55 50 52 58 65 52 66 54 42 47 50 57 59 61 64
86 84 89 95 96 97 91 90 92 97 97 77 79 62 75 80 77 81 53 63 87 75 76 86 92 90 79 70 72 80 50 50 52 62 68 68 62 52 50 49 51 56 57 63 66
88 88 88 97 98 96 92 89 91 100 96 92 85 83 84 75 76 76 75 79 65 68 74 74 68 77 80 69 60 53 50 49 55 60 74 59 53 57 49 45 54 57 54 60 67
88 87 90 92 96 97 92 95 99 99 84 94 86 80 77 86 81 80 84 92 81 93 87 65 81 57 60 56 47 53 51 78 70 77 75 68 67 51 44 40 41 47 51 60 68
90 91 90 86 96 94 96 96 100 97 84 74 82 76 83 75 80 75 86 95 83 69 72 83 93 55 42 66 68 61 60 72 76 79 70 64 64 43 49 53 44 44 48 60 69
91 84 92 89 94 92 95 100 98 78 77 82 77 82 86 75 90 86 87 88 74 56 70 84 80 45 38 39 54 56 58 56 67 78 80 68 52 42 52 54 58 51 53 62 68
92 94 95 86 93 94 98 98 95 70 73 69 80 77 96 83 91 89 93 73 70 55 54 58 58 49 43 32 35 47 44 60 68 76 79 71 61 53 43 58 62 57 56 62 67
96 96 94 88 95 98 99 95 85 64 67 68 82 83 74 84 89 90 87 75 60 57 52 51 56 61 44 49 44 45 51 57 59 68 68 71 53 47 44 48 56 57 55 62 66
97 92 94 89 99 96 95 93 70 74 87 82 68 65 69 78 76 86 86 71 57 65 66 58 64 64 54 66 49 48 45 49 64 66 70 67 55 45 50 50 56 56 56 58 62
94 98 91 99 100 99 94 84 76 81 85 83 71 62 55 68 83 80 87 72 70 65 66 61 73 87 75 72 73 66 54 49 56 61 68 63 54 42 50 53 56 55 54 55 61
89 89 99 99 96 90 93 88 92 93 91 70 68 65 61 70 75 87 89 72 68 65 75 59 68 65 71 67 64 75 61 56 52 66 65 61 55 59 51 48 51 59 61 59 68
95 69 76 94 90 79 77 87 94 92 79 66 75 61 69 78 81 87 77 70 61 69 62 52 60 64 57 64 63 61 60 57 54 52 55 55 52 53 49 48 48 52 56 65 71
88 78 74 79 63 64 68 73 72 66 69 74 80 72 66 67 71 81 71 74 69 64 59 52 60 51 50 49 47 57 62 61 59 58 57 58 56 48 58 66 69 73 65 67 70
95 82 60 68 63 60 64 61 63 58 65 64 66 68 60 59 55 60 58 58 60 53 54 48 48 52 58 56 54 46 45 69 62 59 56 61 49 48 65 60 67 67 64 64 68

GFSSW_sfc_rhum_009.txt.gz
RH
66 66 66 66 68 70 70 70 70 73 78 80 83 79 82 80 79 82 95 72 67 62 62 71 70 67 52 56 43 42 52 57 48 41 37 26 36 33 29 29 27 25 31 33 50
68 66 65 64 65 68 70 70 69 71 72 74 74 78 80 80 84 90 71 65 63 60 67 85 77 61 60 59 48 48 61 54 42 37 32 30 39 36 34 33 29 25 28 42 52
66 66 67 66 66 67 67 70 71 70 71 73 76 77 80 74 80 76 63 69 65 59 61 72 86 66 65 56 52 53 56 49 42 37 33 38 43 38 34 39 29 26 25 27 42
65 65 65 67 67 68 67 67 70 72 71 74 75 76 80 68 86 53 55 58 62 58 62 74 88 76 73 66 51 54 48 45 43 42 43 44 42 42 37 33 28 29 29 30 28
66 66 67 67 70 69 68 67 69 69 72 72 74 79 85 92 76 48 50 54 51 62 71 79 86 70 75 65 58 56 51 48 45 47 50 48 49 44 38 31 27 29 31 28 27
69 68 69 68 70 72 71 70 68 69 73 74 73 79 87 94 52 46 50 48 47 65 74 72 77 58 66 62 59 56 52 47 50 47 45 43 42 39 35 31 29 29 28 28 29
69 71 71 71 71 70 70 70 68 68 72 71 74 80 86 77 53 56 56 56 46 56 76 69 75 54 57 64 56 55 58 53 49 44 44 44 44 44 31 31 29 29 28 37 44
71 71 75 75 76 74 71 70 71 72 69 72 74 85 84 60 54 56 54 58 51 56 68 63 72 72 56 47 50 59 52 70 52 38 38 36 46 32 31 34 32 27 36 46 49
71 72 71 69 74 81 83 74 73 73 70 70 90 88 84 57 72 58 53 61 61 74 72 59 71 82 60 58 56 54 76 64 58 42 43 39 42 35 29 29 28 26 38 43 47
74 77 76 72 76 79 84 81 74 76 76 71 74 91 81 75 67 64 63 56 72 85 81 80 92 93 78 76 90 64 62 53 53 40 42 42 42 34 32 33 30 27 42 46 49
77 79 80 78 80 85 87 99 94 94 86 82 79 76 69 59 61 69 62 60 61 86 88 81 95 96 79 70 62 54 52 52 54 40 40 42 42 35 32 34 35 35 45 47 49
79 81 82 84 85 87 95 92 70 67 87 77 74 69 64 68 81 71 55 64 82 91 73 82 94 70 68 71 60 56 56 56 51 43 40 45 42 35 36 35 31 36 46 48 50
80 82 82 83 90 96 95 83 74 72 86 82 70 77 76 68 76 79 61 64 84 74 75 79 77 61 69 79 74 64 64 61 60 50 44 47 46 41 34 33 41 43 47 48 49
85 84 83 90 98 96 96 94 88 81 99 94 86 75 75 76 83 64 58 62 78 72 63 84 71 71 76 76 70 82 54 55 54 61 68 43 55 47 37 35 45 49 51 52 55
88 87 84 92 97 97 90 92 92 92 98 83 81 60 74 70 74 83 58 62 80 62 66 90 95 77 83 74 68 76 62 62 57 56 51 50 50 43 39 38 45 50 54 56 57
90 89 87 96 98 93 94 92 94 100 96 96 81 92 88 81 75 76 69 66 74 58 59 88 76 72 67 66 65 50 58 63 55 51 63 52 47 47 39 34 45 48 51 57 58
90 91 91 89 95 96 93 94 100 99 83 96 90 86 72 90 88 77 80 82 94 89 73 90 86 84 85 64 58 54 74 97 95 72 67 56 55 42 39 35 38 43 48 56 59
92 91 90 85 88 92 94 98 99 90 90 73 83 80 82 77 88 80 77 92 89 78 66 96 99 69 79 73 72 77 74 80 75 71 60 58 58 37 36 42 42 42 45 58 61
94 86 92 83 91 94 96 100 90 88 82 82 80 86 96 76 86 84 84 76 82 75 61 82 83 60 52 53 61 78 86 53 63 65 66 60 49 39 42 46 48 49 53 61 62
91 93 90 82 92 93 99 99 90 88 79 68 75 76 88 79 98 72 87 73 83 69 63 72 62 51 37 42 38 59 49 77 62 68 70 63 54 48 39 41 53 53 53 61 63
97 99 89 92 88 95 100 97 86 84 68 62 75 77 65 83 94 90 88 78 72 64 58 52 57 64 41 45 49 55 74 59 56 62 62 58 47 40 39 39 49 51 53 58 62
98 96 97 88 98 96 97 86 84 79 68 74 73 75 78 79 87 86 87 76 67 61 56 50 58 64 54 58 46 45 51 50 60 62 61 56 51 38 45 47 50 50 52 56 59
93 98 98 97 98 97 88 92 86 85 81 84 76 68 68 83 94 81 77 69 64 60 63 56 69 78 64 60 65 52 45 47 53 55 62 57 50 40 48 54 54 51 50 52 58
93 99 100 99 98 99 95 88 90 87 85 81 66 60 68 78 79 94 86 72 70 58 73 58 66 71 71 64 62 69 56 53 46 57 58 54 44 40 47 50 52 52 52 52 56
97 92 89 97 97 97 96 89 91 90 90 78 75 61 62 87 87 92 87 70 64 74 60 52 61 60 56 61 57 58 58 52 50 44 47 47 49 40 42 45 46 42 46 56 64
97 90 87 74 70 97 96 97 88 90 87 78 71 60 63 72 79 88 75 70 68 64 62 58 62 53 53 55 56 64 62 50 48 54 52 49 50 41 44 47 52 54 55 60 67
95 93 76 71 64 76 82 88 90 84 85 68 64 61 68 62 60 66 61 60 58 58 57 64 52 56 58 52 46 54 50 63 55 57 43 52 41 46 58 57 56 58 57 60 65

GFSSW_sfc_rhum_012.txt.gz
RH
65 66 64 64 65 67 69 69 69 71 79 82 83 79 80 81 81 65 66 47 46 54 57 50 54 51 49 46 37 32 37 37 34 33 28 20 26 24 23 24 18 17 19 20 28
66 66 64 63 63 64 67 69 69 68 70 73 75 76 80 82 66 72 56 64 64 61 46 58 58 53 52 47 41 37 40 35 28 25 26 25 28 29 29 23 20 17 17 18 19
65 65 64 64 64 65 66 66 71 70 70 71 75 74 81 69 76 60 54 66 67 58 45 50 70 62 58 45 42 39 40 30 30 28 26 30 30 29 31 31 21 20 16 17 18
65 64 63 65 65 66 66 66 68 72 71 72 74 76 83 62 74 54 57 56 60 52 50 48 73 78 68 57 39 44 36 31 31 31 33 33 29 32 31 31 24 21 21 21 19
68 67 66 66 66 67 67 66 66 69 71 72 74 77 72 83 58 43 51 46 40 53 59 52 73 65 71 51 42 46 34 34 32 33 33 33 37 34 33 27 23 22 23 20 18
70 69 69 69 68 68 70 69 69 67 71 73 74 79 68 82 38 35 38 39 39 49 64 50 61 46 50 48 49 39 39 37 33 34 34 39 34 36 28 22 23 22 22 20 22
72 71 73 71 71 70 68 69 69 68 70 73 72 65 74 62 38 37 42 38 36 40 58 48 48 68 45 54 42 40 48 41 38 36 36 35 39 35 25 20 20 19 20 26 32
72 73 74 74 73 73 71 69 70 72 69 72 71 69 76 45 38 44 40 44 41 34 46 44 51 83 78 43 48 52 51 54 35 36 36 35 41 26 21 20 22 19 21 29 34
72 76 74 74 72 74 79 81 74 76 72 70 70 69 69 48 55 44 40 45 48 43 38 45 61 84 73 69 62 54 58 54 41 35 35 34 35 23 21 21 20 18 22 27 30
75 77 79 78 74 75 78 81 81 76 69 60 63 79 59 59 49 44 42 42 44 57 58 70 78 96 93 80 81 58 54 43 45 34 33 35 34 24 21 23 21 19 23 27 30
78 80 82 82 80 77 83 96 96 96 80 63 61 53 55 48 49 53 47 50 50 65 87 66 92 94 81 66 43 34 38 44 37 32 35 36 34 27 24 24 23 22 24 28 30
80 82 83 82 80 84 90 96 75 69 95 67 63 56 56 52 67 55 47 55 64 72 80 67 95 69 73 56 44 43 47 47 33 34 35 36 38 31 25 23 22 22 25 29 33
80 83 83 83 81 90 96 93 85 82 91 79 68 68 62 55 64 62 54 50 58 57 83 74 68 54 87 68 52 50 48 38 40 42 40 37 36 30 24 24 26 22 26 28 31
84 85 85 86 97 91 95 94 87 80 100 89 86 67 64 63 75 45 48 46 58 59 85 58 52 68 89 68 51 66 42 45 51 61 55 39 45 32 23 26 28 28 31 31 33
87 87 87 87 93 91 94 91 89 89 96 70 79 49 55 60 55 60 48 47 59 74 92 74 55 81 79 78 46 49 46 48 53 59 57 47 44 29 28 25 28 30 32 34 35
90 89 88 84 83 83 92 89 90 99 92 91 78 84 81 67 50 65 64 47 60 66 77 48 66 64 64 59 50 49 49 52 48 52 59 39 39 30 24 22 25 30 34 36 37
92 90 86 67 72 90 91 95 100 98 77 98 97 91 70 72 64 82 73 76 97 98 98 71 91 79 59 81 63 50 63 97 90 86 56 38 40 27 24 24 24 31 34 35 38
94 92 81 70 70 91 94 98 100 84 95 84 84 78 77 66 68 88 64 67 81 86 63 98 99 96 62 63 80 70 51 50 61 55 44 43 42 26 26 27 25 24 31 36 40
97 91 90 77 79 88 96 100 86 89 84 92 73 83 73 63 86 78 57 55 87 75 66 97 98 79 64 58 55 83 87 40 44 44 41 34 32 26 28 30 30 29 35 41 41
90 80 77 68 87 97 99 98 87 80 86 76 61 57 67 64 97 61 54 43 65 62 55 65 95 67 61 66 58 67 48 66 48 56 52 37 38 28 26 26 33 32 37 40 42
81 96 77 83 92 97 100 97 86 69 78 62 47 55 47 57 84 56 54 56 50 51 56 50 52 72 51 81 74 62 76 67 45 42 40 37 31 24 26 26 28 30 33 39 43
83 98 98 86 98 97 99 91 83 84 79 55 46 42 43 50 86 86 54 67 41 48 62 45 37 72 61 44 42 46 51 50 56 53 40 37 30 24 27 30 30 30 34 37 40
70 96 96 86 99 98 89 88 84 91 80 56 57 44 41 55 80 75 61 48 48 54 50 38 41 56 76 56 42 57 46 46 37 37 41 42 33 27 31 34 35 32 35 38 41
71 98 99 99 94 92 95 92 92 73 61 62 52 52 53 55 53 59 65 60 58 53 65 50 43 38 47 44 39 50 46 46 47 50 41 36 30 27 32 34 36 34 33 35 41
76 79 78 97 96 95 93 88 86 83 77 78 66 54 49 61 69 72 69 68 61 63 54 45 46 42 42 41 38 40 45 41 45 42 42 34 35 27 23 31 31 32 32 34 39
67 74 66 68 74 92 94 92 88 89 88 86 87 53 48 55 55 68 71 58 63 55 52 47 51 39 42 47 41 41 38 40 42 40 35 32 33 24 24 28 31 30 33 37 39
79 72 65 60 60 93 95 89 88 90 91 84 64 55 58 52 44 49 48 46 47 50 49 47 45 44 47 40 42 50 40 39 36 32 31 36 30 28 34 32 31 35 38 39 40

GFSSW_sfc_rhum_015.txt.gz
RH
66 66 65 64 64 66 67 69 69 71 77 79 81 81 83 83 79 62 58 42 43 54 55 41 38 44 42 45 36 30 37 37 31 28 24 19 22 18 20 22 18 15 16 18 18
67 67 65 65 65 65 65 68 69 68 70 73 76 78 80 80 63 69 51 56 59 60 43 42 41 37 50 44 38 38 39 33 23 21 23 20 23 24 26 22 20 17 14 15 15
68 66 66 65 66 66 68 65 66 71 70 71 73 74 80 68 67 56 51 59 62 60 44 38 46 58 56 45 39 38 40 27 24 22 23 24 25 22 27 30 23 20 17 16 17
67 66 66 65 67 67 66 66 65 67 73 70 72 75 81 55 60 48 58 56 59 51 47 40 44 64 63 62 38 41 32 29 26 24 27 30 25 26 26 26 22 22 21 20 20
68 69 68 67 68 69 69 66 65 66 68 72 73 76 71 75 55 43 51 41 38 50 51 46 42 47 59 46 50 45 33 28 27 26 27 28 30 29 29 23 21 20 21 21 20
69 71 70 70 71 70 71 70 68 65 66 71 75 78 66 75 32 30 35 36 35 40 47 44 40 35 40 44 47 41 35 32 27 29 28 32 30 28 26 22 21 20 20 19 19
69 73 73 73 73 73 72 69 69 66 66 68 74 63 68 55 30 29 31 32 32 33 44 42 37 41 42 50 36 40 44 36 33 30 31 28 37 32 24 22 21 15 14 16 21
70 72 77 74 75 74 72 70 69 70 68 68 71 62 81 38 34 35 34 34 31 30 34 37 39 45 72 56 49 47 55 66 38 31 29 33 44 25 19 20 17 16 15 21 26
74 74 78 76 78 77 76 79 78 72 69 69 62 65 66 44 48 36 33 37 33 35 34 33 48 64 72 95 80 61 65 58 50 28 29 34 39 23 20 18 18 16 15 20 24
80 79 80 81 80 77 76 79 80 78 68 56 49 71 50 52 40 39 34 37 38 40 42 46 64 82 83 97 89 63 63 45 51 30 34 35 35 26 22 19 20 17 14 20 23
84 81 82 82 83 80 82 90 92 92 87 66 56 50 44 36 38 48 36 43 42 44 66 50 85 88 69 74 54 42 46 43 34 28 31 35 32 27 22 21 21 19 16 20 24
84 83 84 83 82 82 86 97 70 67 91 67 51 50 39 46 56 50 37 53 52 59 50 65 93 56 46 61 76 72 47 37 32 30 33 32 32 26 23 24 22 18 18 21 26
85 84 84 83 82 83 85 86 76 73 96 83 73 64 53 55 53 52 45 48 46 53 56 71 66 55 46 70 82 62 52 35 37 33 32 35 40 35 27 24 21 19 18 21 26
85 84 85 83 87 68 89 83 89 86 100 88 90 78 65 74 82 44 42 45 46 51 51 67 50 77 54 74 79 89 42 35 38 45 52 36 40 25 22 24 23 20 20 24 26
88 87 87 84 71 89 88 88 90 92 98 68 87 54 65 85 50 47 36 49 54 49 85 86 71 83 69 80 70 78 38 38 45 48 59 52 49 30 23 24 23 21 23 26 28
92 89 88 81 74 66 85 86 90 99 95 88 76 85 80 88 58 48 47 43 41 53 75 63 44 59 62 68 69 69 42 48 47 49 61 41 40 29 25 22 19 22 25 29 29
94 92 90 52 64 80 86 92 100 98 71 96 97 92 93 90 74 62 66 74 86 97 99 78 81 68 65 94 90 90 72 92 83 88 48 31 36 28 21 20 19 24 28 29 31
94 94 89 60 61 86 93 98 99 70 83 90 94 94 97 69 59 50 66 80 63 78 97 92 96 94 65 89 86 88 63 50 57 54 40 34 42 27 22 21 19 23 27 30 33
95 98 97 80 79 86 96 100 89 77 87 94 94 97 94 62 53 60 69 74 56 64 99 92 90 64 74 83 68 83 68 38 42 34 34 37 30 24 22 25 24 23 29 34 34
97 96 87 68 78 97 99 97 92 81 86 89 88 56 63 60 68 72 87 56 48 48 71 89 99 89 91 76 85 67 46 54 41 50 46 33 30 28 26 24 25 25 31 34 35
93 96 59 73 92 98 99 96 89 72 80 93 72 50 43 64 63 69 53 40 38 41 68 88 99 94 86 86 84 85 79 52 37 36 39 36 31 21 22 22 25 25 29 34 36
90 93 93 91 99 98 99 94 82 76 78 85 68 36 37 42 60 55 49 36 30 40 83 80 91 99 78 50 48 54 69 45 47 48 36 36 31 20 22 26 25 24 28 32 35
91 83 97 89 99 99 94 93 87 88 88 79 46 37 31 44 53 61 49 33 43 40 63 59 58 98 94 64 62 70 51 44 41 36 39 37 32 21 25 28 26 26 28 33 36
81 98 100 99 90 94 96 95 95 76 78 60 49 34 34 44 40 52 63 42 46 38 66 56 47 45 49 43 61 78 64 44 44 47 39 35 29 25 27 29 30 28 30 33 36
89 77 72 96 96 93 91 89 92 92 78 61 68 43 41 45 45 54 52 48 46 50 46 50 48 36 32 32 40 48 50 50 49 43 41 33 31 24 22 25 27 28 30 33 36
87 54 71 83 74 88 93 94 93 86 60 87 84 48 41 40 39 55 48 53 53 53 54 47 52 39 43 39 35 38 37 40 42 41 38 33 32 22 20 20 24 26 29 32 35
90 66 57 59 56 78 90 89 85 80 72 71 73 54 49 39 32 37 41 40 43 51 56 57 54 45 45 38 42 49 37 35 36 34 33 38 31 24 26 26 27 27 29 30 31

GFSSW_sfc_rhum_018.txt.gz
RH
66 65 67 67 66 66 67 70 70 71 75 83 83 81 80 81 82 70 71 47 51 55 57 42 39 39 48 56 48 43 58 54 44 39 33 24 27 22 23 28 24 21 22 25 27
68 67 66 66 67 67 67 67 69 71 71 72 76 77 79 80 71 75 56 53 55 56 51 42 42 36 51 55 54 53 63 50 32 29 29 24 28 28 29 30 28 25 20 20 21
68 67 66 66 66 67 67 69 67 69 72 70 71 75 82 74 78 63 55 59 59 58 55 45 40 48 62 52 53 52 62 41 30 26 25 29 30 26 31 37 31 29 29 28 29
68 67 66 65 67 67 68 68 68 69 71 71 71 74 83 64 80 54 57 56 54 50 57 54 45 58 70 64 46 55 43 39 37 30 29 34 31 32 31 32 29 28 28 29 28
68 69 68 68 68 68 69 68 67 66 70 72 72 75 72 74 59 48 50 45 45 54 61 57 54 49 63 51 53 56 49 37 32 31 30 29 36 36 34 29 27 26 27 29 28
69 70 72 70 71 71 70 69 68 69 68 72 72 78 77 80 33 33 43 38 36 40 55 54 50 41 44 46 50 49 49 47 38 31 31 34 35 35 33 28 28 27 28 27 27
70 71 77 73 73 73 72 70 67 69 69 68 73 67 71 60 30 29 32 35 35 35 39 40 41 50 42 48 42 41 55 47 46 37 35 33 40 39 31 29 28 28 26 21 27
74 74 77 80 75 75 72 70 71 73 72 69 71 65 78 42 40 39 33 36 32 32 35 35 42 51 55 61 63 66 56 74 49 40 36 39 52 37 29 30 29 27 22 28 31
78 79 78 80 80 80 76 74 76 78 72 68 69 68 67 45 51 39 37 40 34 33 36 31 43 65 59 76 85 72 79 67 62 42 39 39 47 35 30 28 30 27 23 28 33
83 84 81 81 82 82 76 76 75 81 78 56 52 70 56 51 43 42 38 38 42 40 45 49 57 83 82 84 88 79 81 65 69 51 45 47 41 37 31 29 28 26 24 29 34
85 85 83 84 84 82 81 84 91 93 90 71 64 54 42 40 36 43 38 42 44 50 66 54 77 88 80 72 67 59 58 67 50 39 46 43 39 37 32 31 34 32 28 31 35
85 88 85 84 83 83 80 89 75 78 91 78 65 57 45 43 52 46 39 54 60 73 58 66 84 58 52 56 66 69 73 69 54 40 40 41 42 36 32 30 29 30 29 30 40
87 88 86 85 82 84 86 80 74 70 98 86 75 66 59 50 61 52 46 51 58 66 61 73 62 53 50 55 64 61 83 74 78 49 37 46 48 40 32 29 28 30 29 31 38
88 88 86 86 86 72 76 66 79 86 100 92 91 77 66 73 88 52 42 50 57 61 56 59 48 48 60 60 56 72 55 68 66 85 80 45 70 44 35 35 32 35 30 36 37
89 88 86 78 78 80 88 86 90 91 98 78 85 56 65 88 70 65 49 62 65 57 53 77 63 63 72 74 68 72 62 75 77 88 78 64 66 50 34 38 36 32 30 37 37
91 90 87 88 84 81 84 83 88 99 95 87 81 91 91 88 79 69 62 56 54 63 54 60 54 60 59 64 67 63 70 90 88 80 92 63 66 53 39 33 31 30 34 37 38
92 93 90 67 79 84 83 92 100 99 66 96 94 84 76 94 92 88 83 74 80 96 94 73 93 68 67 83 68 73 85 100 100 99 81 45 56 48 30 27 26 29 37 38 41
92 95 91 67 83 83 88 97 99 59 76 88 92 92 98 91 91 93 92 82 64 74 87 87 82 86 71 84 85 80 98 99 96 92 64 42 58 46 29 26 29 31 36 40 43
95 98 98 86 87 87 94 99 87 84 89 95 96 99 98 82 67 73 72 85 78 63 97 97 95 70 55 68 81 88 99 82 72 41 55 55 46 34 31 33 33 36 38 43 44
99 99 96 82 91 96 100 96 87 77 85 91 98 88 82 73 80 63 60 53 54 52 60 87 99 81 76 74 82 96 75 93 71 62 70 58 51 46 39 39 33 39 43 45 45
97 99 79 89 95 99 99 93 92 77 82 93 94 88 58 58 80 58 59 50 49 50 71 90 99 96 96 91 91 95 96 86 59 54 64 63 52 35 34 34 35 37 40 44 46
98 99 91 94 99 98 98 93 87 85 82 86 89 82 67 48 63 57 57 46 43 43 86 87 98 99 96 79 67 80 76 70 63 67 63 56 50 30 34 33 34 34 38 42 44
98 97 96 92 98 98 93 95 90 90 87 89 90 70 44 42 63 57 55 44 39 57 73 90 98 100 99 95 90 90 75 70 68 59 65 55 52 33 40 37 36 37 42 43 47
98 98 100 100 92 88 97 98 96 85 87 78 72 52 42 40 42 58 54 49 48 47 84 81 78 98 98 73 81 84 81 72 68 74 63 55 44 41 42 40 38 39 43 46 46
98 93 80 98 97 96 94 93 96 96 82 71 68 59 52 46 48 51 53 52 52 52 65 81 93 92 89 62 62 66 68 64 60 56 68 48 41 34 39 42 41 41 44 46 47
98 86 85 84 73 87 94 95 95 89 82 79 79 62 56 44 43 50 48 57 60 53 50 68 82 62 49 49 56 66 61 61 57 52 51 51 51 32 32 36 40 42 43 45 46
97 83 81 73 76 89 92 91 90 88 82 75 68 66 67 44 38 44 40 46 57 51 60 66 68 64 58 49 50 62 54 52 52 50 49 57 45 41 34 34 39 40 42 45 47

GFSSW_sfc_rhum_021.txt.gz
RH
67 65 65 66 66 67 67 67 70 71 74 79 86 84 82 84 85 80 84 62 62 53 56 49 46 45 51 68 67 67 81 77 64 52 42 34 28 27 25 31 32 28 28 29 36
68 67 65 66 66 66 67 70 68 71 72 74 77 78 84 84 81 92 68 61 55 55 59 59 56 49 62 72 75 78 88 70 49 42 41 33 31 31 35 38 38 32 28 29 42
68 68 67 66 64 66 67 67 69 68 72 71 72 77 83 76 82 79 61 64 61 57 66 64 61 56 76 62 78 75 81 58 47 39 36 34 36 33 39 42 37 35 35 35 29
68 68 68 66 65 66 67 67 67 68 69 73 71 75 85 81 88 68 52 52 54 55 65 68 70 70 82 88 62 84 62 57 52 45 43 42 34 38 36 36 34 33 33 35 32
70 68 69 69 68 68 68 68 67 65 66 71 72 76 81 88 84 57 49 48 54 60 72 75 78 71 75 71 66 70 60 52 47 44 41 38 40 39 40 34 32 30 29 32 34
74 71 72 73 71 72 71 69 68 67 67 67 72 78 89 94 47 45 51 46 43 58 72 71 72 61 60 58 56 51 52 51 51 50 44 40 41 43 40 35 34 32 33 34 33
78 75 77 77 73 73 73 72 69 67 68 66 67 73 89 76 45 46 45 49 45 44 45 46 58 65 55 64 53 66 66 54 52 53 53 45 46 43 37 36 36 33 35 31 31
79 79 78 79 77 75 75 71 72 75 71 68 68 82 93 50 49 48 47 42 41 41 42 43 43 58 62 59 64 77 75 79 55 51 48 47 64 44 39 41 40 36 38 33 35
82 82 80 80 83 83 80 74 74 75 75 70 84 91 88 52 63 51 49 48 42 42 42 33 50 64 74 77 91 86 92 87 68 52 53 50 58 43 39 39 36 39 38 35 40
84 85 84 82 84 84 81 76 73 77 80 65 63 81 68 58 54 51 48 47 50 51 49 56 66 85 93 88 89 69 91 87 85 59 55 61 57 48 40 40 39 40 31 38 41
85 87 87 85 85 84 86 91 93 94 94 84 76 62 44 50 43 54 48 52 53 62 70 66 87 91 84 79 69 76 80 82 68 54 60 58 57 50 43 36 44 38 36 43 46
84 88 90 86 86 85 88 92 81 78 93 80 76 64 47 46 58 53 46 66 68 78 74 80 88 66 63 69 79 78 88 87 67 58 62 58 58 46 41 40 39 39 40 48 53
83 90 89 87 86 91 90 81 77 72 94 80 79 82 70 58 66 63 53 59 70 81 79 84 68 55 60 67 76 80 88 81 74 62 61 70 68 53 42 36 35 37 36 42 47
84 87 88 88 90 91 95 79 83 80 100 87 88 78 70 68 81 51 46 54 65 79 74 78 60 59 70 73 65 81 58 60 61 75 87 75 88 65 47 41 39 37 43 44 49
83 87 88 76 85 88 91 88 85 93 97 78 84 61 66 81 72 71 53 61 82 70 76 83 67 68 68 65 61 69 59 65 63 78 85 85 96 72 48 42 37 35 47 46 47
83 88 88 79 87 89 88 84 86 97 95 90 82 87 86 85 74 68 65 62 73 90 82 74 59 62 59 52 58 66 73 71 80 82 97 84 95 71 55 40 36 36 46 46 48
89 91 91 71 86 86 85 88 96 99 65 94 89 83 81 82 87 80 91 95 98 100 99 92 81 76 75 87 78 83 89 94 94 96 90 66 85 74 44 36 37 37 45 45 51
93 93 88 71 85 84 89 97 98 68 82 82 84 75 92 74 89 87 95 99 89 97 88 97 93 83 74 77 80 90 81 84 92 80 70 77 97 63 39 35 32 38 42 47 59
96 98 98 94 86 81 93 100 86 74 80 94 95 99 97 89 81 82 87 98 80 80 91 97 93 72 61 60 61 87 96 61 94 96 84 89 55 38 40 43 44 46 47 53 61
99 98 98 90 84 93 99 97 86 78 87 92 98 94 91 83 95 97 93 70 74 63 61 86 95 61 68 78 70 74 60 91 99 98 98 75 59 52 46 47 47 49 50 55 60
99 99 95 89 93 99 99 99 79 66 79 94 95 95 95 86 80 81 68 57 55 60 60 78 99 85 76 96 82 94 98 76 83 86 86 80 63 44 39 39 47 49 49 54 58
99 97 97 93 99 98 99 84 80 83 84 89 90 93 94 81 84 79 65 57 46 47 76 84 99 98 85 84 63 64 84 72 87 92 76 63 55 40 40 39 42 47 49 53 54
98 98 98 86 98 99 91 91 84 92 91 94 92 84 76 72 90 71 60 53 59 61 81 90 98 96 99 95 81 87 82 86 94 89 71 64 55 44 44 42 41 50 51 54 56
98 98 100 99 95 91 94 97 98 87 91 85 81 74 77 74 61 70 62 55 54 55 74 79 96 98 97 92 85 89 85 89 97 92 71 67 55 56 46 42 47 50 50 54 55
97 95 86 98 98 93 89 91 98 98 90 84 90 81 80 70 56 63 63 55 54 64 80 88 100 97 93 88 84 76 79 81 84 74 72 53 48 49 46 44 47 51 53 55 56
98 97 89 90 81 96 96 96 96 92 91 90 88 68 73 79 57 62 63 61 65 72 84 85 98 90 76 70 78 82 77 66 69 58 62 58 62 41 50 48 51 55 52 53 55
98 94 84 92 85 93 89 89 92 89 83 77 79 74 78 71 54 60 63 47 63 64 64 77 86 90 73 73 73 88 70 70 65 59 52 61 51 44 47 44 47 56 50 53 55

GFSSW_sfc_rhum_024.txt.gz
RH
67 68 66 67 67 67 67 67 68 71 72 76 80 88 86 87 87 84 92 66 66 55 57 52 49 49 55 66 71 73 91 90 70 61 49 40 39 29 26 32 34 32 30 30 39
69 68 68 67 68 66 67 67 68 68 74 73 78 79 89 88 84 92 74 64 59 56 63 65 68 64 69 73 76 91 96 82 60 53 49 45 40 34 38 41 42 38 33 39 47
71 69 69 68 67 66 67 68 68 68 70 73 73 79 84 80 87 82 64 67 64 61 66 71 71 69 76 69 82 88 91 67 57 48 46 47 44 34 38 42 37 38 39 38 44
72 70 70 69 68 67 67 67 67 67 70 74 73 76 84 86 87 70 53 54 63 65 69 74 80 77 81 91 74 87 74 65 64 56 57 59 43 46 40 37 34 35 36 37 36
75 72 70 71 70 69 69 68 67 66 66 72 73 77 82 98 85 55 48 51 60 69 78 82 87 80 79 75 73 80 72 61 61 60 56 51 55 49 44 35 35 34 34 35 36
78 76 74 73 74 73 73 70 68 67 68 67 71 78 90 95 55 50 58 51 53 67 80 81 83 73 74 70 72 64 64 62 57 56 57 60 58 50 43 38 39 36 35 37 36
80 82 80 78 76 74 74 73 71 68 68 67 68 76 96 80 50 53 50 56 50 50 63 73 73 83 75 73 63 67 80 71 61 57 61 56 65 62 44 40 40 39 37 38 36
82 85 82 81 78 76 77 73 72 74 72 70 68 85 91 57 56 53 49 54 46 43 45 46 48 59 73 65 69 83 84 89 60 56 56 59 76 55 45 46 44 43 43 44 40
81 84 84 82 82 84 83 76 76 74 75 71 84 92 87 54 69 55 55 58 47 47 47 36 52 65 74 79 88 90 98 89 77 53 59 63 64 53 45 47 46 44 45 43 41
82 85 86 84 84 86 84 77 71 78 79 71 66 89 74 62 60 57 54 53 58 56 58 60 70 88 93 90 90 71 90 88 86 70 61 63 64 56 51 48 46 40 37 43 43
79 83 86 86 86 86 86 94 92 93 96 86 78 70 51 56 50 61 55 56 61 70 85 74 89 87 76 86 82 76 83 89 82 62 73 69 62 52 49 52 53 51 49 42 46
80 83 85 87 85 86 88 90 83 78 95 82 78 70 55 52 64 60 53 70 74 91 82 82 89 70 67 72 85 86 89 85 72 57 63 69 73 61 51 46 46 44 45 42 56
80 82 84 89 86 91 84 78 78 77 95 81 83 84 77 65 71 66 57 67 77 84 81 89 67 59 68 76 84 88 92 80 77 67 57 58 62 62 54 51 44 41 40 45 49
80 81 84 88 91 97 86 78 83 78 99 86 88 77 74 74 83 54 50 57 71 82 75 74 65 65 73 77 75 91 70 73 75 77 92 76 82 64 61 54 49 43 46 47 50
82 82 88 78 86 95 79 87 86 91 92 70 84 62 69 77 71 74 50 60 89 81 83 92 81 77 77 72 61 78 59 65 75 83 82 74 87 73 59 59 52 44 40 44 51
92 84 91 88 88 84 89 83 89 93 95 92 78 90 87 85 75 70 66 62 80 87 76 75 62 63 64 55 60 68 72 74 82 89 94 66 79 72 69 60 48 43 45 46 52
92 89 90 72 92 88 84 88 98 97 67 94 88 87 85 85 80 80 90 94 99 100 98 98 96 74 69 69 65 66 82 94 100 97 83 53 74 62 60 55 43 39 48 53 52
92 93 87 72 89 85 90 91 96 68 83 73 73 79 86 71 81 80 88 97 92 98 99 98 97 96 76 69 78 80 80 93 93 97 66 71 83 65 51 40 37 41 42 53 61
93 98 97 93 86 83 90 100 88 74 76 76 79 91 88 82 81 86 89 85 77 92 96 96 94 69 65 64 62 88 96 64 82 81 97 89 84 60 56 46 48 48 54 59 66
98 98 98 87 87 90 97 97 82 80 81 80 91 92 90 86 97 88 85 72 69 76 73 80 97 77 70 71 70 71 67 93 95 98 86 79 93 63 52 50 59 57 59 65 71
98 99 98 87 87 98 100 96 81 78 77 86 94 96 95 90 87 86 87 70 73 73 76 80 91 92 85 98 77 94 98 84 70 79 96 84 79 44 39 43 58 60 60 68 74
99 100 97 92 99 98 99 82 71 80 81 86 90 94 94 90 93 91 85 62 57 61 84 68 97 95 77 60 70 93 83 80 80 73 96 98 71 44 44 46 49 56 58 65 69
98 99 97 85 99 100 90 77 80 84 86 93 94 87 83 92 96 84 72 54 57 59 77 91 99 98 86 86 82 98 77 90 66 76 74 98 73 47 51 52 54 58 63 65 71
98 99 100 99 94 93 96 95 96 84 85 87 90 81 83 81 78 80 70 58 58 55 79 86 97 93 94 98 86 87 81 70 86 96 74 89 73 55 50 50 62 63 64 66 70
99 96 86 92 99 86 84 92 96 97 90 88 93 84 85 83 83 85 69 60 66 68 81 92 100 99 94 89 95 83 76 80 99 83 97 73 64 64 45 47 58 59 63 66 70
99 97 88 89 86 90 94 96 96 94 93 95 97 79 79 94 68 69 59 61 75 82 90 88 100 100 98 89 94 96 88 80 93 90 96 92 60 39 50 55 68 65 62 64 67
98 93 84 90 87 96 96 92 92 83 83 83 86 87 85 82 67 62 59 55 61 78 80 92 99 99 99 84 88 99 89 95 91 87 90 75 50 52 52 48 66 67 57 60 63

GFSSW_sfc_rhum_027.txt.gz
RH
69 68 68 67 68 69 70 70 70 70 75 76 81 86 86 88 88 86 95 73 71 56 58 56 53 60 60 70 74 73 92 92 73 67 56 47 46 38 32 34 37 36 40 35 45
72 70 68 68 68 70 69 70 70 70 73 74 78 82 88 92 91 95 74 70 64 60 66 67 69 68 72 77 79 93 97 80 67 60 56 49 45 41 37 39 44 42 40 50 58
75 73 70 69 69 69 69 70 70 69 71 74 75 80 86 85 84 81 67 70 68 63 64 72 75 74 80 77 86 92 89 66 68 57 52 56 51 45 46 45 39 39 41 42 55
77 75 72 70 70 69 70 69 69 68 71 75 74 77 83 87 89 69 56 58 64 70 72 76 84 86 85 92 80 88 78 75 72 64 66 68 54 53 49 42 37 38 38 41 40
81 77 74 72 72 71 70 70 69 67 67 73 74 77 83 88 82 58 54 56 63 78 84 84 89 86 85 82 80 87 81 68 65 68 68 64 67 65 55 45 39 37 39 39 39
81 80 79 76 74 75 73 73 70 68 69 67 72 78 89 90 56 54 57 59 61 79 88 86 89 82 85 77 78 71 68 68 62 63 63 66 64 66 59 47 43 42 40 39 39
80 82 84 81 75 77 75 74 73 70 69 67 68 76 95 80 55 56 49 57 58 70 83 82 81 88 80 86 68 71 82 73 71 63 62 61 62 64 56 56 51 46 43 40 39
80 81 84 84 79 78 75 76 75 74 71 70 68 86 89 58 61 59 53 54 50 54 51 57 60 57 64 60 74 85 88 93 67 64 60 58 69 62 51 54 54 48 48 45 43
80 80 84 85 83 83 82 81 77 74 75 72 84 90 82 52 71 60 55 55 53 50 52 37 50 61 66 81 80 89 97 93 75 60 62 70 67 54 53 56 56 53 51 46 45
83 80 83 84 85 85 84 81 72 77 79 75 64 92 77 64 64 60 60 55 60 59 59 60 67 80 89 90 88 80 98 92 88 71 70 72 67 56 55 58 61 56 53 48 48
89 81 80 83 87 87 86 91 90 95 97 85 76 76 56 60 54 64 57 61 62 70 85 77 90 90 82 88 88 91 91 90 84 66 75 77 73 66 60 56 53 62 56 49 50
87 84 80 84 87 86 86 91 80 74 96 83 84 71 60 60 69 61 54 68 77 93 87 88 90 77 68 72 80 91 96 86 77 65 68 71 70 56 51 50 56 52 53 49 51
83 90 80 84 88 92 86 77 79 81 94 79 85 85 78 72 73 71 60 72 85 94 92 90 71 61 70 78 85 87 88 69 71 61 65 74 66 46 39 43 50 52 46 45 48
83 94 85 81 96 90 90 74 82 78 97 81 90 84 79 75 85 59 56 64 72 89 86 87 71 71 74 79 80 89 74 76 80 88 89 79 83 56 52 47 46 49 50 49 52
82 91 92 90 94 95 81 84 87 80 90 73 85 64 71 78 70 78 57 60 78 85 86 91 95 83 79 73 67 74 64 78 80 88 92 78 96 72 54 50 49 63 53 53 52
80 89 93 93 90 85 83 80 89 91 95 88 82 86 89 83 76 70 70 61 74 85 77 79 72 76 76 61 63 66 70 74 81 92 98 70 81 60 42 44 59 57 55 53 50
78 91 98 77 91 86 81 91 99 95 70 90 82 87 72 80 81 80 89 94 96 99 98 98 95 85 72 76 64 69 90 98 98 97 86 60 72 58 43 54 59 53 51 52 57
84 93 93 87 90 82 82 94 98 72 91 69 76 91 90 82 85 81 85 88 85 97 100 98 99 95 87 73 79 86 88 95 91 92 87 51 74 51 40 33 30 29 39 52 61
87 98 96 98 86 78 84 99 85 73 78 72 73 84 84 67 74 88 90 80 77 74 98 98 96 87 84 67 74 98 98 73 87 71 88 84 71 60 38 57 59 52 53 62 66
98 96 94 93 84 86 97 89 84 77 72 68 92 78 80 76 91 91 84 73 78 72 67 83 96 79 80 68 76 83 68 95 99 97 93 63 72 74 58 41 31 45 57 63 69
98 97 95 92 87 96 99 93 81 82 74 86 84 96 84 89 87 83 82 75 70 76 72 72 88 88 89 94 88 93 96 90 78 86 93 78 51 32 44 38 40 60 69 72 76
96 99 98 92 99 98 99 84 74 87 83 83 78 81 88 82 96 84 94 76 66 73 93 73 93 97 75 71 59 64 72 78 83 90 78 74 66 50 55 50 52 68 74 81 80
96 96 97 90 99 99 93 80 78 90 83 88 93 84 77 90 98 94 82 62 68 71 84 80 99 97 95 85 81 100 94 84 72 73 83 86 55 54 42 62 62 75 76 84 83
97 100 100 97 93 84 89 87 92 84 82 84 92 87 92 93 89 88 85 62 61 60 69 76 99 96 90 85 98 98 93 93 96 96 77 70 51 37 33 51 70 73 80 85 83
99 97 92 99 98 90 80 92 90 96 82 85 94 94 94 96 76 85 83 75 66 66 81 90 100 98 92 80 79 98 97 90 98 79 87 58 55 45 46 64 67 70 77 82 82
98 97 94 85 84 87 87 95 92 81 92 96 98 83 89 95 70 81 76 72 68 77 89 93 100 100 96 84 94 95 95 86 80 76 78 76 75 46 62 58 68 71 72 77 80
99 94 83 86 88 92 94 90 86 83 84 79 88 96 91 80 69 65 69 64 64 79 93 97 99 100 93 95 94 99 93 95 82 72 80 97 78 64 55 54 65 69 66 72 75

GFSSW_sfc_rhum_030.txt.gz
RH
74 70 68 68 67 69 70 70 70 72 72 76 78 82 87 87 90 87 94 76 76 61 58 60 57 64 64 73 79 76 93 95 81 70 60 51 51 42 37 37 38 39 46 38 54
78 73 70 69 68 69 70 70 69 72 72 76 76 82 87 89 93 96 76 70 66 59 71 70 70 69 75 80 84 93 98 84 70 62 62 54 54 49 46 46 44 41 38 54 63
83 76 74 71 68 70 70 70 70 70 72 75 76 78 86 82 80 81 68 68 68 67 65 73 77 74 82 81 88 93 92 76 72 65 62 63 57 52 54 56 43 46 40 44 66
79 81 76 73 70 71 69 70 70 69 69 75 75 78 83 87 80 70 54 56 63 68 72 77 84 84 86 89 81 91 83 82 77 68 72 77 66 69 55 47 41 46 40 43 42
77 80 80 76 73 72 71 71 70 68 68 74 76 78 84 89 88 62 61 59 68 77 78 74 88 84 85 86 86 91 86 73 68 66 72 70 74 77 69 54 49 48 45 42 42
78 79 82 81 76 74 75 72 70 68 70 68 72 78 89 87 54 54 58 57 67 83 93 87 84 84 88 85 82 77 73 71 66 63 65 69 66 72 66 60 57 50 48 46 45
84 81 81 82 80 76 77 74 73 71 70 68 70 76 94 78 57 60 52 60 59 74 94 87 83 86 84 90 75 77 87 79 74 68 65 64 70 71 52 58 60 58 56 49 45
88 83 81 81 82 78 77 74 76 75 72 71 70 86 84 59 66 62 57 54 54 57 56 61 79 80 61 61 66 78 83 96 70 70 63 62 75 54 50 55 63 62 62 54 46
73 89 83 81 84 83 83 78 81 78 75 72 86 86 79 52 72 64 55 53 53 52 54 39 55 67 73 78 82 80 84 89 78 64 67 75 79 66 57 65 67 68 63 55 50
69 83 88 82 82 84 86 80 77 76 80 76 66 87 74 66 65 61 64 55 59 57 59 62 70 81 84 86 93 83 72 62 74 74 73 77 75 61 59 57 56 62 62 61 55
70 76 89 90 82 85 85 89 89 93 95 81 82 78 61 61 57 66 62 62 64 68 83 78 90 94 88 81 68 78 94 89 75 67 78 76 70 59 52 61 66 62 57 62 58
72 76 86 90 83 86 84 87 77 70 95 81 80 79 65 65 72 67 58 73 79 91 86 90 94 78 71 77 86 85 87 77 71 66 73 73 68 57 53 53 53 59 57 58 57
76 76 83 91 90 94 84 79 78 75 91 80 86 84 82 71 76 74 64 74 87 94 95 92 76 66 74 83 87 90 93 86 79 64 64 72 68 46 36 39 41 40 42 48 55
69 72 76 92 99 92 89 78 80 70 94 80 92 87 83 76 81 62 61 69 85 93 92 94 74 73 81 84 83 90 76 76 80 89 93 83 85 59 50 43 43 40 45 54 54
72 73 75 86 97 95 89 85 80 71 98 78 92 65 74 75 73 81 61 66 80 88 87 88 93 93 90 77 75 80 71 80 84 96 98 89 94 73 54 50 46 53 60 55 51
79 75 76 91 99 84 74 77 84 89 98 90 84 88 90 82 73 71 71 62 72 77 78 76 77 77 80 67 63 67 75 78 92 96 96 70 83 61 46 39 36 51 52 53 56
76 76 82 88 96 83 78 86 96 97 74 87 87 79 76 82 75 78 87 95 97 100 99 92 92 77 72 84 71 82 99 98 98 98 89 67 80 57 41 38 44 45 54 61 62
82 81 86 84 91 83 87 91 95 72 89 69 79 76 80 68 75 84 85 93 85 89 100 97 92 87 79 74 82 82 89 96 93 87 88 62 78 51 42 36 32 32 39 53 62
83 91 96 95 93 83 90 99 84 76 78 82 81 82 93 78 77 83 87 90 65 82 98 99 94 89 84 76 66 98 98 74 97 96 95 84 71 54 48 46 50 53 40 37 55
98 97 95 94 91 89 94 87 81 70 71 73 89 81 77 76 85 90 85 82 74 75 64 83 96 82 83 85 76 82 80 97 99 97 94 79 72 57 47 31 31 39 34 56 69
99 96 96 95 90 98 98 88 81 81 69 81 86 86 79 83 79 82 86 76 75 80 69 77 92 90 88 97 85 96 97 99 90 96 94 74 53 36 30 28 44 52 40 52 77
96 98 95 91 99 98 98 86 78 87 85 88 79 88 83 80 90 87 89 77 67 78 86 72 96 97 77 64 62 69 78 79 86 89 88 86 56 36 51 58 60 63 66 82 82
96 96 96 85 99 100 90 87 84 92 89 86 82 78 77 86 98 90 88 69 72 79 88 78 98 98 90 85 69 99 86 72 70 66 84 90 56 33 33 37 64 79 91 93 90
97 99 99 97 94 89 89 89 97 86 83 79 79 76 88 95 90 95 91 72 71 71 70 71 95 89 86 74 99 99 88 96 98 97 80 88 60 46 41 40 52 83 92 95 91
96 98 92 99 98 81 79 84 85 94 82 81 83 82 92 98 95 96 88 82 70 66 79 83 100 97 91 80 90 99 98 96 99 89 97 65 62 49 41 50 71 79 94 95 88
98 97 96 83 85 79 88 92 93 81 86 90 96 86 92 96 74 77 73 83 80 82 88 90 99 100 97 86 97 97 94 97 96 92 96 78 77 60 63 69 68 88 92 93 88
97 96 90 88 86 90 93 88 85 82 85 75 85 95 96 91 79 74 62 69 78 79 94 97 100 100 90 90 98 99 97 95 94 92 87 97 69 56 76 78 66 84 81 84 81

GFSSW_sfc_rhum_033.txt.gz
RH
76 79 73 70 68 67 68 70 70 71 72 72 74 78 85 88 90 85 94 70 73 62 56 56 52 56 55 62 69 65 79 79 66 60 48 40 39 34 33 30 33 28 29 35 51
77 77 76 72 70 67 69 70 70 71 73 73 75 77 86 89 90 93 70 67 66 61 66 63 62 58 62 67 74 79 90 75 63 54 49 45 45 42 38 40 37 32 30 40 54
76 75 81 74 72 68 69 69 70 71 73 74 75 76 84 80 80 76 68 72 68 71 65 63 65 60 66 67 76 84 88 69 64 57 58 60 56 44 44 50 40 35 33 34 47
83 79 76 79 75 71 70 69 70 70 70 74 76 77 81 76 94 64 58 56 60 68 66 71 70 69 75 76 70 83 78 78 71 64 67 68 61 65 55 47 35 37 39 38 35
83 84 79 80 78 73 72 70 70 69 68 72 76 78 78 84 86 60 60 59 67 68 73 74 76 71 73 75 75 85 78 68 64 59 60 64 68 65 65 55 48 46 48 44 39
70 84 84 81 83 80 75 73 72 69 70 68 72 75 82 82 51 53 53 54 71 72 80 73 72 71 74 75 70 68 68 66 63 60 58 62 57 64 54 53 54 54 49 43 41
66 72 87 86 80 81 76 75 73 71 71 68 72 75 91 76 56 58 53 55 55 78 88 77 70 75 77 84 69 69 78 71 68 64 63 56 64 67 48 47 46 48 49 49 46
60 68 76 88 82 82 78 76 76 76 74 71 72 81 76 57 64 60 54 51 49 52 64 80 81 80 70 59 63 73 74 81 62 61 61 55 60 50 42 49 51 47 43 44 41
64 66 69 82 88 82 84 80 79 80 76 74 84 78 79 52 67 64 53 51 51 51 54 51 59 67 68 76 79 80 86 87 68 56 62 66 68 53 53 51 52 52 54 52 49
68 68 72 75 88 86 84 81 78 76 79 77 68 89 70 66 63 63 62 53 55 58 58 62 68 78 77 85 87 81 89 71 64 55 65 67 66 54 48 50 48 47 50 50 50
70 70 74 75 86 93 90 89 89 89 95 80 79 76 62 60 58 67 60 59 60 64 83 73 85 92 81 79 70 78 86 78 66 58 69 64 64 56 48 48 49 46 44 44 49
70 73 72 74 84 91 89 91 77 69 94 85 84 84 68 66 69 70 59 71 73 86 79 86 90 72 71 80 83 78 83 69 56 53 65 66 66 51 48 46 43 41 41 43 39
68 69 73 71 81 95 88 78 76 64 81 79 83 77 82 70 77 75 64 74 82 92 90 89 70 66 72 79 83 84 88 81 78 63 58 62 60 38 32 34 36 38 38 37 39
73 68 69 71 88 92 92 77 79 62 91 76 92 86 82 73 79 63 61 68 80 90 90 91 74 73 83 84 78 89 73 72 76 82 85 69 67 38 34 34 32 34 37 37 37
78 75 74 72 93 97 93 86 75 69 90 76 95 67 79 76 70 80 62 62 84 86 86 82 89 93 83 74 75 75 68 74 77 88 86 76 84 49 46 46 40 34 34 39 39
83 81 78 83 92 86 87 81 72 90 95 92 86 92 92 78 73 74 70 61 67 79 83 77 72 76 78 71 67 64 76 78 83 88 96 66 80 56 42 36 34 32 30 40 44
84 79 76 78 87 94 90 92 98 93 75 96 88 86 77 82 79 78 87 90 93 98 98 85 84 74 70 80 73 73 100 96 97 98 84 58 80 58 39 35 36 33 33 31 41
90 82 80 84 94 94 89 98 94 75 85 68 75 79 79 73 72 78 87 92 80 89 98 96 89 87 76 76 82 86 88 93 93 81 71 62 78 50 41 34 30 30 31 36 46
83 97 96 97 93 96 96 99 84 76 76 80 75 83 83 74 76 79 83 80 71 82 96 96 85 82 82 77 68 97 98 73 90 80 95 70 55 43 40 43 40 39 42 42 37
98 96 94 93 90 98 98 94 77 73 74 75 88 80 87 87 93 92 89 80 79 76 74 83 97 77 81 80 77 87 72 96 99 96 88 72 71 53 43 32 25 31 51 49 41
95 97 95 91 87 99 100 90 86 75 67 76 87 87 74 84 83 84 86 74 77 81 72 73 88 84 90 94 80 91 96 99 89 88 83 66 48 36 32 29 32 55 58 62 56
98 98 95 91 99 100 99 81 82 88 82 84 82 80 80 79 79 77 84 75 69 78 88 77 87 97 85 67 66 64 72 76 96 82 91 87 63 32 36 42 54 45 66 78 76
98 98 96 91 99 100 88 88 89 89 90 87 83 80 79 74 89 85 87 71 75 77 85 78 96 97 81 82 72 89 73 71 89 86 94 90 54 32 36 39 40 56 68 84 86
97 100 99 96 95 94 88 93 96 87 87 81 79 73 76 84 80 86 83 77 74 73 69 68 88 88 82 65 87 99 89 82 98 97 79 88 62 42 40 43 41 50 69 87 84
97 97 92 99 99 88 81 81 96 93 89 83 90 79 78 93 84 87 81 78 72 70 70 81 100 88 84 75 76 97 96 97 99 89 96 67 87 64 51 47 53 64 71 92 87
98 97 95 91 86 81 85 84 83 94 80 88 96 78 77 91 81 92 86 88 77 78 84 82 100 100 96 84 82 100 94 97 97 93 97 89 88 54 49 63 66 69 75 89 88
94 95 93 85 88 93 88 76 84 80 82 75 84 82 87 88 77 77 74 65 74 83 85 97 100 100 91 74 89 99 98 97 97 95 84 97 68 57 56 58 71 66 81 86 88

GFSSW_sfc_rhum_036.txt.gz
RH
79 75 74 78 72 70 68 68 71 70 70 72 72 74 80 88 88 85 75 52 52 61 57 44 39 38 40 40 51 47 38 35 32 31 27 28 26 20 23 24 23 20 21 26 30
78 80 76 75 76 72 69 69 70 70 70 71 72 74 82 87 76 90 56 66 64 60 47 44 44 40 40 43 47 44 43 34 28 29 30 29 29 30 29 25 23 23 24 26 35
71 79 80 78 77 74 70 70 70 70 70 71 74 75 82 74 77 68 62 69 69 64 49 46 44 43 46 46 47 46 45 34 43 38 42 39 39 34 30 32 25 23 22 26 28
64 70 81 82 78 79 72 72 71 70 69 69 76 75 79 62 72 56 60 59 66 61 55 54 50 50 52 50 44 54 45 45 43 46 49 48 40 42 36 29 22 28 28 31 29
62 64 73 84 83 79 76 73 71 70 69 69 74 76 68 66 53 48 56 52 53 61 64 60 54 50 52 48 53 51 41 43 41 47 42 39 42 39 36 32 31 32 33 32 29
62 58 68 73 86 83 81 75 72 70 72 69 71 75 60 61 41 40 42 46 56 65 59 56 54 52 54 52 53 49 52 48 46 44 42 46 40 36 34 28 28 28 29 28 28
64 65 61 69 80 88 80 76 73 72 73 69 73 62 73 49 40 42 42 44 52 61 76 69 61 61 54 59 52 51 58 44 41 40 43 40 45 41 31 28 28 26 25 26 24
68 69 67 67 70 89 84 79 77 76 74 70 73 63 57 48 44 45 41 42 46 52 59 65 67 65 52 49 49 51 50 50 42 44 42 44 40 28 27 29 33 29 25 24 24
65 67 70 69 77 85 92 84 81 78 75 73 66 59 63 45 51 39 39 45 44 43 43 53 53 58 56 63 58 52 49 52 48 39 44 46 45 37 37 33 35 31 30 30 30
68 70 71 72 73 83 90 89 80 81 74 70 60 77 59 54 48 50 43 40 47 48 52 56 52 56 51 57 53 43 50 45 46 39 42 43 43 37 34 33 34 32 30 29 30
70 69 71 75 72 78 91 98 94 90 73 57 64 59 54 51 48 54 42 44 44 52 63 58 68 68 51 49 43 51 52 52 44 40 43 44 42 36 32 31 31 29 28 26 26
72 66 69 69 72 71 92 98 70 54 80 63 66 61 58 52 61 58 44 51 52 61 58 67 75 47 47 50 57 56 58 55 44 39 42 41 39 31 28 28 26 25 22 20 19
67 66 69 70 70 79 86 87 63 53 60 73 66 63 64 57 59 63 48 52 53 64 62 62 53 51 58 59 65 61 60 53 52 43 40 41 40 27 20 19 21 22 22 21 20
74 73 72 73 79 72 82 80 89 66 93 78 79 64 62 58 63 49 45 50 61 59 63 62 47 56 61 61 56 60 44 52 52 58 60 49 49 32 25 23 21 19 19 21 22
81 90 77 78 81 84 78 92 94 68 96 68 83 57 57 56 61 73 48 52 62 63 65 65 67 72 65 58 52 59 50 52 54 59 62 57 84 35 29 30 25 21 19 18 20
78 79 82 82 83 73 92 94 94 96 89 89 81 91 86 62 62 68 66 56 50 62 66 51 54 56 52 51 51 53 60 61 59 73 91 50 65 39 24 22 22 19 18 17 18
77 83 83 71 77 77 93 92 99 97 63 91 80 86 72 74 76 70 84 85 84 97 96 65 62 56 56 64 59 63 89 81 87 94 69 33 40 41 23 24 23 20 18 19 18
83 84 76 68 66 86 97 98 97 68 68 62 68 74 78 70 70 73 80 88 63 64 79 82 77 63 65 67 62 78 76 75 73 44 39 42 53 29 21 21 20 20 21 22 21
85 84 81 73 76 85 98 100 84 58 62 68 70 78 78 67 64 72 75 69 60 64 90 84 79 58 59 56 56 82 97 59 82 66 76 46 29 23 20 22 22 22 21 26 27
96 86 83 66 79 92 99 99 62 60 57 55 72 62 74 72 75 70 67 54 55 53 51 66 92 56 64 64 63 66 52 88 95 81 64 38 34 32 25 24 22 21 24 28 30
96 92 90 71 85 96 100 94 74 56 53 59 63 69 60 70 66 66 61 57 54 57 54 63 72 68 74 84 68 82 93 94 63 61 71 49 32 20 22 20 20 19 27 29 36
96 99 89 84 99 99 100 74 68 68 64 66 59 57 58 62 66 64 60 56 51 58 69 55 72 85 62 42 43 43 54 59 89 71 79 73 57 26 22 20 28 28 25 30 41
95 98 96 90 98 98 96 84 74 68 70 66 69 62 58 60 72 60 66 57 57 58 57 57 86 86 53 70 56 78 57 52 67 76 95 93 57 34 27 27 26 26 26 29 46
96 100 98 92 90 83 95 92 85 74 72 65 64 58 62 69 64 74 72 63 59 54 61 59 66 70 60 60 68 100 78 75 96 98 74 77 58 39 41 37 30 30 29 38 53
96 95 83 100 96 74 65 72 77 79 70 62 70 65 64 74 77 91 71 63 64 65 62 64 98 72 66 58 63 82 88 94 100 93 95 61 63 60 48 52 40 36 43 51 62
99 93 87 80 73 76 77 72 70 78 70 76 69 68 64 74 68 74 68 69 70 65 71 70 96 100 98 69 75 100 91 97 97 96 98 90 85 47 41 40 40 37 42 58 71
94 92 91 91 75 75 69 66 64 64 66 59 62 66 71 66 60 62 67 61 58 62 67 78 98 100 94 76 78 96 97 95 95 92 85 97 62 43 47 50 51 63 66 64 71

GFSSW_sfc_rhum_039.txt.gz
RH
71 74 76 77 76 76 72 70 69 72 71 70 73 72 75 81 88 71 77 51 44 60 58 38 35 33 32 35 34 36 40 35 28 21 20 16 19 17 16 18 17 15 15 23 24
67 68 73 77 80 78 75 72 70 72 71 71 72 73 75 84 70 75 54 58 60 59 50 42 39 36 37 36 38 43 40 29 17 16 19 18 21 19 20 21 18 18 17 22 26
64 64 68 74 78 80 79 73 72 72 72 71 72 75 76 76 76 64 60 62 65 61 42 35 32 36 40 35 37 39 42 23 21 28 28 26 23 23 25 27 17 17 18 20 24
62 64 60 66 77 80 80 79 73 72 71 71 73 75 75 60 77 56 60 62 68 59 50 43 40 43 41 43 34 42 33 29 28 31 38 39 29 28 26 25 17 18 22 24 24
60 64 64 62 69 76 83 87 73 72 71 70 74 75 66 59 52 49 57 51 50 61 63 49 47 42 45 36 34 42 36 29 31 34 36 36 36 33 31 26 22 22 23 26 25
57 62 68 68 64 71 83 83 76 72 72 71 71 74 56 60 37 37 37 40 40 51 66 56 53 41 42 38 42 36 37 34 34 34 34 39 35 31 27 23 22 23 24 23 25
58 58 67 71 68 68 76 86 85 74 74 71 72 57 57 42 30 35 37 41 45 50 54 55 50 48 48 52 41 43 49 40 36 34 36 34 40 37 27 24 24 22 20 20 20
54 61 65 69 70 70 80 89 90 80 75 70 72 50 54 40 33 40 35 43 43 46 52 55 54 56 59 46 43 46 43 48 29 33 31 35 43 22 20 23 24 22 20 20 19
58 62 67 70 71 73 77 87 92 79 75 70 60 52 53 45 41 32 34 43 41 44 49 54 63 67 61 56 48 43 45 39 33 30 33 39 42 24 29 28 24 23 22 21 20
62 66 70 71 74 74 73 82 93 82 72 58 50 66 51 50 41 36 34 38 43 45 54 55 52 57 52 52 52 40 40 36 36 30 35 38 36 28 24 26 28 27 25 24 22
65 69 68 66 70 71 76 92 100 100 85 63 62 49 50 43 39 42 38 43 43 47 54 49 55 56 42 39 36 34 41 38 31 29 36 36 33 28 24 24 26 25 25 23 22
59 70 70 67 69 69 72 93 89 82 87 56 52 51 44 41 55 45 36 48 54 68 52 66 71 41 36 38 42 46 47 43 35 31 35 35 34 27 24 23 22 21 22 22 20
58 72 75 72 73 73 68 76 78 91 86 67 54 52 56 50 48 55 43 41 47 53 54 60 45 41 43 48 53 50 49 43 42 35 32 34 35 25 19 19 19 19 19 18 18
62 79 84 83 93 68 66 57 84 94 100 85 76 58 57 50 59 41 38 41 47 46 48 49 38 46 47 52 46 54 36 39 43 50 50 39 48 30 21 19 18 17 17 17 18
62 70 74 78 94 67 64 63 92 94 98 71 69 42 50 51 53 57 38 48 49 46 51 58 54 52 55 48 40 48 45 47 48 54 58 50 61 35 19 22 22 19 18 16 16
65 70 76 85 76 60 74 83 89 100 99 85 83 75 69 50 57 58 57 48 41 49 51 46 42 47 46 43 42 47 50 56 57 66 87 45 44 33 20 14 14 15 16 16 15
68 76 81 77 69 62 88 88 99 98 60 91 79 74 67 64 66 68 76 77 74 95 91 60 53 46 44 55 50 53 74 79 86 90 67 26 32 30 20 18 17 18 16 16 15
75 80 70 60 55 74 94 98 99 75 64 52 67 68 75 64 66 61 66 81 56 53 68 77 77 52 54 61 57 60 67 72 66 38 35 28 42 26 16 15 16 17 17 16 18
82 79 77 66 67 78 98 98 93 55 57 63 70 90 82 59 58 65 66 65 54 52 79 71 72 46 51 48 49 65 89 53 72 55 64 38 25 20 18 17 16 16 17 20 17
97 89 73 59 70 92 99 100 60 48 50 54 69 57 73 70 68 64 71 48 53 44 41 63 82 48 51 50 51 55 46 81 93 85 63 33 28 26 21 19 17 17 17 18 22
95 97 77 68 77 96 100 93 63 45 44 50 54 56 53 62 57 62 60 50 42 44 46 56 64 64 59 72 61 68 78 68 54 60 65 50 34 22 28 27 23 18 16 20 22
93 99 89 81 99 99 100 82 58 53 54 52 43 44 50 50 59 55 52 47 41 42 58 52 68 82 54 39 37 42 57 58 87 60 63 78 60 28 29 26 26 26 24 21 22
97 97 94 93 99 100 94 78 57 61 58 54 58 47 44 51 63 52 50 50 46 49 50 52 79 82 63 57 42 60 49 47 57 80 97 94 57 30 28 30 34 35 30 22 24
97 100 91 78 77 74 95 80 72 63 58 50 53 45 48 52 50 56 56 57 51 47 65 54 61 68 60 67 57 93 60 58 96 98 71 70 56 43 39 42 53 40 36 33 29
93 94 81 95 74 58 63 68 71 64 56 51 57 51 50 61 60 64 55 60 59 60 54 56 82 61 55 50 54 67 71 73 99 96 99 79 80 61 52 45 50 51 44 38 35
98 96 83 65 59 55 68 67 78 65 52 58 54 54 51 54 53 62 61 62 63 61 64 68 88 98 92 62 61 87 66 74 96 96 98 95 94 58 43 41 44 43 40 36 47
93 85 94 78 59 67 60 54 55 53 57 51 51 55 60 56 50 51 58 53 50 68 70 73 96 96 85 61 62 88 89 91 89 80 88 94 60 44 48 51 64 70 71 64 61

GFSSW_sfc_rhum_042.txt.gz
RH
64 66 68 70 75 78 81 77 73 70 71 72 71 73 72 76 83 76 78 60 57 57 58 49 42 38 36 44 38 40 59 54 45 35 28 17 25 21 21 23 20 22 23 32 38
57 62 64 65 68 77 78 81 75 72 72 72 71 72 73 78 80 71 57 55 55 60 49 46 47 41 46 45 45 56 67 54 32 26 27 20 25 24 26 24 25 23 23 30 33
54 56 63 65 62 68 75 80 80 74 73 72 72 72 75 74 80 62 57 58 61 59 54 44 37 39 52 44 43 50 59 35 28 23 35 36 34 29 30 33 27 24 23 27 34
56 53 56 61 64 65 70 75 83 80 74 72 72 74 77 67 84 62 58 60 67 60 55 51 42 49 54 52 38 48 38 36 35 31 39 42 36 38 32 32 26 26 26 30 32
56 55 58 60 69 68 67 72 81 84 74 72 71 76 70 75 64 59 62 60 60 70 67 58 50 48 52 41 39 44 39 33 32 35 37 38 45 45 40 31 28 27 27 32 34
60 58 54 61 66 70 68 70 76 84 80 73 71 76 72 70 38 41 39 40 47 61 73 65 48 45 50 44 41 39 39 39 34 35 37 39 40 41 36 28 29 28 31 31 32
60 60 60 60 64 70 70 68 77 85 85 74 70 64 60 54 30 36 37 39 41 46 72 66 55 57 50 58 47 43 56 48 44 40 43 39 47 45 34 31 31 29 27 26 27
61 59 60 61 66 69 71 71 76 92 86 74 69 61 67 40 39 38 37 42 42 49 52 61 57 58 62 50 49 57 57 72 41 40 37 41 56 36 29 32 33 31 28 26 26
62 63 64 66 70 71 71 72 74 84 91 76 68 67 61 46 45 36 36 46 43 46 57 51 58 69 66 69 66 54 66 57 45 37 37 44 55 37 33 37 36 33 28 26 26
65 67 67 70 69 68 74 71 74 87 91 70 54 72 53 54 39 36 34 38 46 55 69 73 76 79 71 76 81 58 59 52 48 41 43 47 47 37 31 30 32 36 35 34 30
66 62 65 72 71 69 75 80 91 92 94 80 69 52 49 42 38 42 38 44 42 57 68 61 76 84 71 62 56 46 47 48 41 32 40 44 40 35 31 30 30 30 30 30 29
65 59 71 72 73 71 78 80 86 93 98 82 55 47 44 44 54 47 40 54 56 68 54 67 75 49 42 40 46 47 53 55 44 35 38 42 42 35 30 28 27 27 28 28 28
63 60 70 83 79 78 73 70 85 91 96 81 56 52 53 45 53 56 45 48 58 65 65 68 52 42 49 49 53 57 60 57 51 42 40 43 46 38 28 27 25 24 23 23 24
61 62 66 71 94 80 75 56 86 92 100 97 74 58 55 52 57 42 40 43 51 61 58 62 46 42 52 53 51 64 45 44 47 58 72 50 77 44 32 29 25 26 27 26 25
62 62 66 72 93 86 65 66 84 92 98 93 74 46 53 55 58 56 42 46 52 50 53 67 55 57 57 49 44 53 49 52 55 65 72 64 80 54 32 30 26 26 26 25 25
63 66 71 81 86 66 69 78 90 98 96 98 77 72 74 58 57 53 53 50 45 49 47 52 43 51 51 43 43 48 54 61 65 76 95 67 66 64 33 28 23 23 26 22 22
68 72 78 75 80 71 78 88 97 98 93 97 83 68 66 68 70 65 74 72 80 91 95 65 59 48 48 57 51 53 70 97 98 95 92 38 58 46 25 22 22 23 26 24 24
74 83 76 67 78 74 94 96 94 66 99 57 72 67 72 62 71 69 76 79 63 62 82 80 80 57 52 61 63 61 72 96 89 83 76 45 60 40 25 21 22 22 23 23 24
81 80 88 77 77 73 97 98 83 70 58 76 73 87 79 64 66 73 74 70 60 55 81 72 77 49 53 50 56 70 89 66 83 73 91 59 35 26 21 21 21 24 23 26 26
98 92 88 76 70 84 99 98 97 52 53 60 78 61 84 70 73 72 70 52 53 46 47 68 84 55 53 48 51 57 52 87 96 98 88 55 47 38 35 38 34 30 27 25 28
96 96 84 75 86 96 100 100 83 47 49 52 57 56 56 66 63 64 61 50 44 46 46 56 75 71 64 78 76 71 76 69 68 78 94 83 55 40 40 44 40 36 29 30 31
91 99 86 82 98 100 98 97 66 60 51 48 46 46 52 52 63 56 60 50 43 47 58 51 75 90 73 50 52 55 64 67 85 79 81 94 70 33 37 36 38 38 32 32 30
98 95 89 97 98 100 95 86 59 62 55 52 48 44 44 55 66 53 56 53 52 53 56 57 83 95 70 68 52 70 57 57 65 80 92 94 68 35 38 36 36 47 43 38 35
95 100 97 98 89 98 96 81 79 66 55 50 50 45 47 55 49 58 61 61 57 54 62 58 69 84 93 79 78 88 69 59 80 98 80 78 66 52 52 58 58 56 49 50 42
96 86 79 94 86 91 76 74 69 66 57 52 56 48 49 58 58 57 57 67 59 63 59 63 89 73 69 59 61 70 72 69 100 96 99 85 88 77 78 72 62 48 55 56 52
97 99 87 68 59 70 79 69 64 58 55 57 58 52 52 55 58 60 58 64 74 67 62 64 98 97 92 66 70 82 71 72 74 77 92 96 95 64 55 50 65 82 69 68 63
91 86 98 74 67 68 66 65 65 58 60 51 53 59 62 64 55 57 61 55 57 70 68 77 95 97 86 74 79 90 77 76 87 84 84 99 77 60 63 66 82 89 86 83 75

GFSSW_sfc_rhum_045.txt.gz
RH
56 56 56 66 66 66 70 76 80 80 73 70 71 72 73 74 78 87 92 74 72 66 55 59 53 53 50 53 51 51 75 78 63 53 44 28 29 23 25 25 26 26 36 41 48
57 56 55 54 63 66 65 70 74 80 76 72 72 72 72 78 79 90 63 58 64 62 63 61 62 54 64 57 57 64 78 70 48 42 40 34 41 31 28 29 32 28 39 37 49
54 56 57 52 63 63 66 69 71 76 81 73 73 72 74 75 91 74 64 61 62 61 54 54 53 51 64 62 59 60 81 56 50 39 42 45 41 39 36 42 29 28 30 42 46
60 58 57 57 58 62 68 68 71 76 81 76 74 72 78 74 88 72 59 61 60 62 64 68 67 58 65 66 54 65 52 48 45 40 42 50 46 49 49 39 35 33 32 34 42
61 59 60 60 58 58 63 69 69 73 76 82 74 73 82 84 77 60 64 58 65 70 77 74 78 59 63 58 53 58 51 42 41 42 40 40 50 52 49 41 35 34 34 36 35
62 62 60 60 60 59 62 67 69 73 80 85 76 77 91 93 50 53 57 68 69 79 79 76 63 54 58 58 54 45 48 50 45 46 44 44 46 48 46 38 36 33 32 37 36
64 64 62 63 60 62 65 66 69 69 80 88 78 74 78 72 38 46 42 48 54 65 80 68 69 62 65 66 57 52 63 57 54 50 50 42 54 53 42 42 41 39 36 31 32
64 67 64 66 66 65 69 68 69 71 77 88 78 78 88 48 43 40 42 46 48 49 65 71 73 63 66 58 57 63 68 86 57 47 46 48 62 46 40 44 42 39 36 37 32
65 67 66 64 68 68 71 73 69 69 77 92 82 89 72 49 51 41 42 50 52 63 63 61 84 80 66 68 76 74 86 79 66 43 47 52 64 42 39 38 43 41 37 34 31
67 67 66 64 74 73 74 73 71 71 84 89 62 87 70 58 48 43 39 46 56 71 82 80 79 89 87 83 96 79 81 72 63 47 48 54 58 48 41 40 40 40 44 42 36
65 64 66 67 72 78 83 89 92 96 91 82 77 65 57 48 41 47 41 48 60 77 93 90 92 98 90 83 72 66 64 63 51 41 47 50 53 47 40 41 37 35 40 34 33
62 64 63 63 73 78 83 92 79 95 91 75 72 63 47 44 56 50 44 55 65 89 65 70 78 66 64 66 71 70 64 66 53 42 46 47 45 38 36 34 33 32 36 34 30
65 65 63 65 69 89 93 82 89 82 95 87 85 64 56 52 60 60 53 54 62 71 66 82 60 51 58 61 56 68 78 71 66 52 50 54 54 46 39 35 31 29 28 28 31
67 66 64 66 81 86 85 70 85 85 100 98 90 68 57 58 66 48 50 53 59 63 65 67 55 50 62 63 58 75 54 56 57 68 80 61 89 68 42 34 32 36 34 29 29
60 65 68 69 90 90 74 81 81 87 98 97 90 52 61 71 61 60 49 49 66 61 67 75 63 61 62 60 52 64 55 58 63 77 83 80 86 70 52 37 32 30 32 34 31
62 67 73 80 88 79 81 77 88 95 96 99 85 79 83 63 60 60 56 53 50 56 57 60 52 56 61 49 51 52 59 65 73 83 97 78 76 64 44 32 32 29 28 27 28
70 77 82 81 84 85 81 93 92 97 98 99 93 76 75 74 69 66 72 78 82 86 91 71 68 56 53 64 58 63 76 96 92 96 94 61 77 65 38 30 26 26 25 27 25
77 84 80 76 85 83 90 99 90 60 94 83 75 73 93 72 73 72 78 86 74 72 92 91 91 67 58 67 72 71 75 94 94 93 86 59 80 51 33 28 28 25 26 26 26
85 94 88 93 83 83 95 99 90 99 93 94 84 80 89 72 81 74 77 77 68 69 83 88 83 54 52 55 61 77 89 68 84 87 96 75 50 35 30 40 36 32 31 34 29
95 94 94 89 79 91 99 98 98 92 70 67 96 73 90 77 85 79 80 62 65 58 58 73 84 64 58 52 57 63 62 88 94 97 95 78 63 44 42 43 41 42 40 36 34
95 94 90 76 85 96 100 100 97 69 60 59 70 72 66 80 76 75 77 58 50 53 51 60 76 79 65 77 78 77 84 69 76 90 97 96 72 42 44 48 44 45 43 41 33
95 98 89 89 98 99 100 100 88 73 64 55 51 59 62 67 76 62 69 58 40 44 59 57 79 92 83 62 60 66 72 70 94 81 92 94 76 37 40 44 40 43 46 46 42
95 97 91 93 99 100 95 93 77 73 60 56 53 51 49 60 69 61 65 56 52 50 58 58 86 97 76 74 63 81 69 66 72 87 93 95 71 41 43 41 45 62 64 56 48
94 98 96 98 93 97 96 92 90 68 62 55 51 45 51 57 60 68 73 63 61 60 65 57 77 84 90 84 82 89 73 69 80 98 83 82 64 51 48 56 64 69 63 58 53
98 91 88 99 97 93 85 82 76 74 62 57 53 51 54 63 60 59 68 73 63 69 61 68 89 82 80 74 74 79 80 78 86 80 98 68 72 65 63 72 70 74 72 81 74
98 94 91 97 84 85 89 88 76 72 68 66 67 61 61 64 65 58 63 68 76 76 74 73 90 97 94 72 75 87 77 77 78 78 90 88 93 63 62 65 65 86 84 77 77
93 91 98 84 82 79 75 75 73 70 65 62 62 73 82 80 68 71 68 64 70 77 66 77 89 98 95 76 85 94 82 76 75 82 87 97 76 71 76 78 93 93 86 87 83

GFSSW_sfc_rhum_048.txt.gz
RH
60 55 55 57 54 59 65 67 71 75 76 81 72 71 72 74 77 87 93 78 68 71 56 60 58 57 59 61 54 57 80 87 68 56 47 39 38 28 26 29 29 32 48 53 53
57 59 58 58 60 59 62 64 66 74 73 78 74 73 73 77 85 85 69 65 63 63 77 64 73 62 70 62 61 66 85 74 55 51 52 41 46 40 32 31 33 46 44 56 57
63 60 57 55 55 59 60 58 66 68 72 76 82 74 74 78 85 85 61 66 60 61 66 64 58 59 71 66 65 68 83 58 56 51 48 47 48 46 47 38 36 41 51 48 63
67 63 61 61 59 59 55 56 58 67 69 75 88 75 76 81 91 67 65 64 62 64 64 68 74 74 74 72 60 73 58 54 55 48 49 52 50 56 50 41 44 46 42 36 43
71 70 67 65 60 60 58 58 60 66 68 75 83 76 84 89 78 53 67 61 58 73 75 74 87 72 73 67 64 68 60 50 47 50 47 43 49 53 52 45 42 41 37 36 39
63 63 66 66 63 64 63 61 64 67 68 73 80 81 89 92 48 50 70 60 68 78 83 83 79 69 61 61 63 55 52 51 51 51 51 49 50 49 50 42 41 40 40 38 36
63 67 68 66 66 68 64 65 67 66 67 69 76 77 89 71 43 57 65 74 72 73 81 75 75 64 64 67 56 57 61 62 56 55 55 50 52 57 44 42 45 43 44 40 36
66 67 67 66 68 68 68 70 73 71 69 69 73 87 79 55 47 45 46 50 54 64 68 67 78 68 69 63 60 64 70 80 56 53 48 50 59 51 45 52 49 47 42 42 38
66 68 65 66 69 72 72 69 71 69 67 66 88 83 72 57 60 43 47 52 63 72 76 72 78 81 69 76 82 77 86 82 68 52 53 59 70 47 37 43 49 46 46 43 41
66 63 63 64 66 73 77 71 72 71 74 75 84 88 70 64 56 45 44 52 72 81 83 85 95 95 89 81 90 86 85 80 70 53 55 62 67 53 47 48 47 47 43 42 41
62 64 64 65 64 78 82 92 86 93 85 84 83 74 61 53 49 53 44 57 76 79 93 86 93 95 90 75 65 59 76 73 57 46 50 52 55 48 43 47 46 40 41 40 38
63 66 66 66 66 69 87 96 84 84 87 78 82 76 58 50 64 56 47 69 85 92 85 92 91 74 77 76 80 83 72 75 58 50 51 53 51 41 37 37 36 34 32 32 35
60 61 65 67 68 84 90 83 85 78 96 80 77 78 56 51 63 63 52 61 77 82 75 83 63 56 63 71 75 70 78 76 69 57 55 59 44 42 40 38 34 30 31 31 32
60 61 63 67 80 91 85 74 86 78 98 94 92 79 64 60 70 51 52 56 65 74 64 70 58 58 67 67 60 76 59 58 62 68 81 64 76 70 50 44 38 36 40 38 35
68 69 69 71 92 96 77 90 84 86 97 92 92 61 60 74 67 62 50 52 70 66 66 75 68 63 66 65 55 66 57 60 68 81 84 81 85 64 53 44 34 32 29 33 38
73 76 79 88 90 76 83 83 89 96 96 99 94 90 80 68 66 62 58 51 51 60 59 65 54 59 59 53 53 55 60 72 81 86 95 80 82 66 47 39 36 30 28 26 29
79 82 84 82 85 86 89 90 93 97 98 100 96 79 76 75 77 69 73 75 80 93 96 69 68 58 55 66 62 63 78 96 94 97 88 71 87 70 49 39 36 34 33 31 31
84 81 86 86 85 88 90 95 92 86 88 88 76 76 91 74 76 74 76 85 72 75 92 89 89 66 59 67 73 76 76 91 84 96 90 67 80 52 45 38 32 31 38 38 37
81 94 96 91 86 84 94 99 97 97 98 85 74 87 98 86 80 72 76 79 73 72 83 89 81 59 59 58 61 78 88 71 88 88 97 79 61 35 42 45 43 44 44 46 43
97 94 96 86 78 89 100 98 99 93 79 73 96 84 98 92 92 78 74 67 66 60 67 74 90 63 60 55 61 64 65 91 95 89 90 76 74 49 39 46 49 49 48 48 47
93 95 88 85 85 95 100 100 98 71 70 66 86 75 80 83 80 79 73 64 56 61 59 68 80 83 65 79 82 80 88 80 81 85 95 96 66 49 45 50 56 53 53 56 60
94 98 85 86 98 99 100 100 90 84 68 70 59 60 71 75 78 71 78 61 52 54 69 64 81 96 87 68 64 70 75 74 92 79 95 95 79 44 50 48 46 38 54 64 63
95 97 91 89 100 100 99 94 88 85 81 62 59 56 58 68 74 69 67 60 50 52 63 64 83 93 82 75 73 86 74 72 75 89 96 94 76 45 47 40 38 50 62 75 68
95 97 96 98 92 97 98 94 86 72 63 55 56 51 56 63 66 82 75 64 62 60 65 61 81 80 89 78 83 88 82 77 83 99 92 88 66 50 48 47 54 60 59 84 70
98 96 95 99 96 91 88 93 77 76 66 56 56 52 58 68 71 80 76 74 64 62 61 66 88 88 84 78 80 80 80 79 90 76 94 67 70 61 59 58 64 73 78 83 79
97 98 86 94 78 89 90 86 79 76 72 71 73 68 63 74 72 74 76 79 76 74 75 74 93 97 96 76 81 89 79 79 79 74 76 70 77 55 53 66 83 84 80 74 74
93 91 97 85 86 86 82 75 74 69 65 65 72 79 85 82 73 78 62 64 70 76 78 74 87 98 91 80 89 94 84 77 80 80 71 87 69 64 71 84 90 83 69 70 64

GFSSW_sfc_rhum_051.txt.gz
RH
56 57 57 55 57 60 61 61 66 67 71 74 74 82 72 75 79 89 95 77 69 67 61 66 65 63 62 68 57 64 83 90 63 58 51 44 44 37 34 30 30 34 60 55 62
68 62 65 61 58 55 55 57 61 61 67 71 73 84 76 78 87 96 68 62 65 57 80 70 72 66 78 68 63 70 88 76 58 52 56 45 51 46 40 38 33 47 56 66 67
71 72 70 69 66 63 58 58 58 54 59 67 69 75 82 77 83 72 59 66 63 61 73 67 64 64 76 67 67 72 81 60 58 52 56 55 50 52 53 45 41 42 45 49 74
68 67 65 68 62 63 61 60 58 56 56 67 67 73 87 80 84 58 59 62 62 58 70 82 70 74 79 78 64 77 62 60 54 51 54 57 50 57 54 47 47 51 44 38 52
64 66 68 70 68 67 64 63 62 60 58 67 69 74 91 95 76 48 60 66 56 64 79 86 82 77 79 74 71 72 65 55 51 52 55 51 53 56 56 46 49 42 40 40 39
64 65 67 66 68 66 67 68 65 63 67 68 68 78 94 86 48 45 50 68 62 80 80 76 81 70 71 66 70 62 57 55 52 52 55 53 54 54 53 48 45 44 42 42 40
64 66 66 68 67 67 68 66 67 66 69 67 68 76 94 66 48 56 68 65 68 76 87 76 71 71 67 68 56 60 66 66 59 56 56 54 56 64 48 44 46 42 47 46 42
62 66 65 66 64 68 70 68 68 68 71 68 66 83 92 56 52 49 58 76 82 83 78 78 75 68 70 65 65 68 72 82 58 53 52 50 59 52 49 53 52 51 46 48 45
65 64 63 64 65 68 71 74 70 68 68 66 77 87 84 56 64 48 50 55 61 75 83 60 78 81 71 74 83 78 91 84 65 52 54 60 73 51 43 48 50 48 44 48 44
61 62 65 65 66 67 76 72 69 69 73 69 73 90 80 70 58 50 48 62 82 83 90 89 87 94 88 84 92 90 84 83 74 57 62 67 72 55 53 54 55 54 50 50 46
68 68 66 67 66 66 81 92 84 87 93 83 83 83 69 56 48 56 48 63 88 88 96 96 94 96 81 78 71 71 78 79 66 52 54 56 58 47 42 47 49 48 45 43 41
62 60 61 62 68 68 88 88 86 84 83 73 79 79 71 67 66 61 54 73 90 91 92 92 92 80 86 83 77 75 77 76 64 55 57 58 58 45 40 39 38 36 34 33 33
60 66 63 63 67 86 92 84 77 85 88 84 75 82 79 58 70 73 56 71 80 84 77 80 67 81 82 90 90 88 81 77 72 60 60 64 55 48 39 41 38 37 36 35 34
68 71 73 75 82 92 87 74 85 79 98 97 90 83 78 60 73 55 51 64 77 82 73 66 56 73 72 78 68 78 60 62 65 70 81 66 77 62 47 48 44 41 39 38 39
73 76 80 76 94 90 81 92 87 86 95 84 92 70 68 72 69 71 54 55 72 66 65 76 65 69 74 69 59 69 59 64 70 82 83 81 86 58 50 40 36 33 33 33 32
80 77 71 90 95 78 87 84 89 97 97 99 94 93 78 71 72 69 61 51 54 65 60 66 56 58 59 61 57 59 62 72 85 83 92 80 79 57 46 44 36 40 38 39 36
81 79 85 84 89 88 88 91 93 97 97 100 97 73 75 76 81 78 74 72 88 98 98 72 70 59 57 67 62 65 77 93 88 94 84 77 85 63 49 44 43 42 43 47 48
79 82 82 90 94 91 91 96 92 81 96 92 78 75 96 74 86 75 75 93 71 76 92 92 93 68 61 68 74 79 74 89 75 91 90 72 82 50 50 43 37 43 49 52 52
77 93 96 89 82 82 96 98 96 97 99 92 80 93 99 87 90 92 78 78 72 71 83 89 84 64 61 61 62 81 88 72 88 89 95 79 61 34 47 50 53 51 51 55 60
94 94 93 84 82 91 99 98 100 96 74 75 93 92 86 93 90 90 74 65 66 67 70 70 90 65 63 57 63 69 66 87 94 74 81 70 76 51 45 52 51 52 53 56 68
94 95 83 88 87 96 99 100 96 70 74 73 90 81 87 87 81 74 73 67 60 64 64 69 82 86 63 77 82 81 90 84 84 82 90 91 57 53 48 54 55 53 48 65 62
94 98 84 86 97 96 100 100 92 86 78 76 64 70 79 76 77 72 77 69 57 59 70 70 85 91 80 71 67 72 76 77 89 82 96 96 79 52 60 50 50 43 47 53 66
95 96 89 94 99 100 98 93 86 84 90 68 63 60 68 72 76 72 70 63 60 60 67 65 84 94 87 73 74 86 79 73 78 88 98 93 73 49 54 44 46 55 59 63 78
96 97 94 96 92 97 96 95 88 77 68 57 61 57 61 69 72 81 75 71 64 57 66 62 79 79 89 75 86 93 86 79 83 98 91 89 74 51 48 52 51 62 80 78 75
97 96 97 98 91 86 86 89 83 84 66 60 59 56 61 74 75 81 76 71 64 64 66 66 87 90 84 76 82 82 80 86 88 79 91 77 77 56 49 49 56 79 75 69 66
94 95 93 91 80 92 87 84 83 80 74 71 78 72 70 78 78 80 76 78 71 66 70 72 96 96 95 76 87 94 82 82 82 78 80 72 73 49 48 59 79 80 70 68 65
94 89 96 84 91 90 86 74 79 76 73 78 74 80 87 84 80 71 62 65 66 74 80 76 90 98 91 81 89 92 85 79 79 79 67 81 63 62 72 79 87 80 66 63 56

GFSSW_sfc_rhum_054.txt.gz
RH
69 69 71 71 66 67 61 57 56 55 58 62 67 72 82 82 80 90 94 75 71 66 70 72 78 71 64 70 61 68 85 89 64 58 48 44 47 42 39 36 33 34 63 57 86
66 64 66 70 67 68 65 64 60 58 57 60 59 66 71 91 90 96 70 66 62 59 65 85 90 71 82 73 67 73 91 78 56 49 48 51 53 53 47 46 38 47 53 77 97
63 62 62 65 67 69 65 62 63 60 57 53 55 63 68 88 89 79 62 67 62 59 60 68 69 68 81 74 71 75 81 60 59 52 56 56 58 55 58 52 41 47 46 49 87
66 66 66 65 66 68 68 68 69 62 60 58 54 65 70 89 90 53 54 58 64 57 67 77 68 76 84 82 67 80 66 60 54 53 56 60 56 61 56 47 44 52 50 44 47
66 67 64 64 65 66 67 68 64 63 66 64 64 68 88 97 77 54 56 50 58 64 75 86 76 72 76 77 69 74 68 59 56 56 59 54 56 57 57 51 50 48 46 44 43
65 61 63 64 66 67 65 67 66 64 63 64 66 68 95 97 50 46 46 67 62 70 78 82 79 67 72 73 70 65 61 58 56 54 56 56 58 56 53 55 50 50 46 46 45
61 65 64 63 64 64 64 68 65 66 66 65 66 66 95 78 51 51 58 78 60 71 82 81 71 71 68 71 62 63 69 67 61 58 58 58 62 67 52 47 48 50 51 46 45
65 62 61 62 63 63 66 68 68 73 68 68 68 76 91 59 64 60 58 80 74 79 72 72 68 69 68 64 68 72 73 85 62 59 56 52 64 52 50 55 54 54 57 53 47
66 68 67 68 65 64 68 71 72 70 66 64 85 81 87 63 80 60 53 84 86 89 88 65 78 79 72 78 87 84 93 88 69 57 55 62 78 56 51 60 57 54 53 53 50
67 70 63 60 63 67 68 71 69 71 72 70 72 90 77 76 72 58 51 70 80 85 82 81 87 92 92 78 85 74 81 86 80 60 68 74 73 53 48 58 58 57 56 54 53
65 62 62 60 62 68 80 89 84 80 86 81 81 80 74 71 66 65 54 79 88 85 98 91 93 96 85 79 73 74 82 83 75 56 60 64 64 51 44 49 49 48 46 42 40
58 60 65 70 64 67 86 93 82 77 83 77 76 80 76 82 72 72 57 78 89 96 96 98 96 81 69 68 73 76 84 87 72 58 60 61 61 47 39 45 44 40 39 40 40
70 72 74 75 80 87 91 88 80 84 85 80 82 82 85 86 68 71 59 80 86 92 91 91 91 88 84 88 84 83 84 81 77 63 63 65 57 49 40 42 40 39 42 41 41
73 78 78 78 90 94 86 81 85 83 96 94 93 85 86 83 76 57 61 79 85 85 74 72 78 90 88 88 88 97 62 63 65 72 85 68 78 59 49 42 41 39 38 38 38
79 78 72 79 90 89 83 92 87 85 93 85 92 75 85 79 72 66 61 58 74 86 75 86 83 80 88 83 86 70 60 65 70 80 82 78 79 50 51 40 42 45 48 49 48
77 79 78 89 90 84 89 87 88 94 97 99 92 93 87 72 79 69 71 57 60 61 60 66 55 56 64 62 55 61 66 73 83 80 90 78 75 49 47 51 47 46 50 53 57
77 77 88 88 96 91 86 90 94 96 98 100 99 83 79 82 82 78 80 76 94 97 92 72 68 58 58 69 60 62 74 90 81 92 80 81 82 57 50 46 52 51 53 55 65
76 81 83 86 95 89 89 95 96 92 97 96 81 79 96 80 86 88 80 87 71 78 94 94 94 66 63 68 73 80 74 86 67 84 85 74 86 52 51 42 46 55 56 57 64
75 93 92 87 86 86 96 98 98 99 100 91 75 92 92 95 86 94 85 83 73 68 83 89 88 66 61 63 65 81 90 72 90 89 96 78 60 32 51 56 53 50 50 52 61
94 95 90 86 90 91 96 98 100 96 76 74 91 90 94 98 91 92 88 72 70 69 69 74 93 71 65 63 65 69 67 84 93 73 71 55 67 45 61 60 48 51 52 52 60
94 94 80 88 87 95 99 100 96 75 78 76 92 89 88 89 82 82 77 70 62 67 63 70 81 85 66 78 82 80 92 83 81 80 83 69 42 52 50 62 55 52 52 55 67
94 96 82 90 96 100 100 100 86 83 84 65 68 73 83 81 80 77 77 70 59 58 68 70 83 84 80 72 70 73 77 78 87 84 96 95 71 50 53 56 54 52 56 70 80
97 97 89 89 100 100 96 91 91 88 89 66 65 65 71 74 79 76 72 67 61 59 67 64 83 95 88 74 72 86 80 73 77 85 98 93 62 50 58 53 53 62 87 84 73
96 98 94 94 90 95 90 92 90 83 74 61 64 59 64 73 77 82 78 74 63 58 65 61 78 76 86 75 86 94 86 77 81 93 90 91 75 52 47 56 54 67 75 69 64
97 95 96 98 91 92 90 88 88 86 70 64 63 62 68 81 79 84 79 76 69 72 69 68 90 93 85 74 81 83 80 88 86 83 88 76 81 58 52 55 54 77 73 72 69
91 98 88 92 80 86 86 87 87 87 82 76 84 81 74 80 80 82 76 80 77 73 77 73 98 91 95 79 88 95 85 84 86 82 82 72 75 49 47 52 76 84 71 64 63
94 89 96 86 93 90 90 85 81 80 79 80 73 85 86 87 86 77 68 67 68 74 80 75 91 96 91 82 86 91 86 81 84 81 69 86 62 52 62 73 86 82 69 61 56

GFSSW_sfc_rhum_057.txt.gz
RH
62 62 62 61 62 66 70 70 69 60 58 53 56 58 61 72 84 85 88 72 72 68 67 68 74 74 58 60 55 58 70 70 58 50 42 36 34 32 32 29 26 25 40 53 72
69 65 66 65 64 64 64 67 69 68 65 59 54 54 58 66 87 92 66 68 62 60 62 83 83 79 78 66 61 63 75 68 50 46 43 41 39 40 35 40 30 42 38 83 86
68 66 67 66 62 61 62 63 67 69 67 62 58 56 55 66 93 78 72 66 65 60 58 73 72 76 77 68 65 67 69 57 52 44 46 48 45 43 42 40 34 36 40 72 86
64 64 66 64 62 61 63 63 64 64 63 62 61 63 61 76 90 58 56 63 66 58 66 74 79 83 79 78 64 69 62 54 50 52 49 51 44 45 45 39 35 41 39 35 74
64 65 66 62 62 62 63 64 63 65 66 66 64 65 73 87 82 56 57 53 58 63 73 80 83 78 77 72 65 66 60 56 51 53 51 48 50 46 47 43 42 42 42 38 34
62 64 64 63 62 64 63 61 64 64 63 65 64 72 84 98 52 67 55 50 61 68 74 78 72 64 68 71 63 61 57 54 52 51 49 51 51 50 45 42 42 42 40 39 38
64 65 66 64 63 61 61 62 64 64 64 66 65 73 86 82 57 66 57 61 62 68 79 74 63 61 64 68 61 60 66 60 54 53 52 52 54 61 44 42 42 40 40 42 40
65 66 66 71 67 67 63 64 66 68 70 71 68 82 84 60 60 63 57 82 65 64 69 71 72 65 62 59 62 67 62 73 56 56 52 47 57 44 43 48 47 45 45 46 40
67 68 68 63 60 61 65 67 68 68 68 66 78 85 81 62 73 64 71 75 69 78 74 73 80 79 65 73 80 74 86 78 63 57 56 50 62 47 46 45 45 44 44 44 41
61 59 59 60 66 62 69 70 68 73 72 68 66 83 72 78 79 65 58 72 81 90 77 76 81 91 86 77 83 88 79 78 62 53 60 66 68 55 41 45 47 45 42 44 45
63 67 68 68 69 67 79 86 81 81 83 78 74 79 78 81 72 66 57 81 79 77 86 82 93 91 85 72 62 64 73 73 66 50 52 59 59 50 43 44 43 40 38 35 34
72 72 74 77 73 81 87 91 78 80 74 77 70 70 74 79 88 73 72 77 87 91 87 97 94 72 71 66 66 68 76 76 63 52 52 56 56 46 41 43 41 39 39 38 35
77 76 76 76 85 93 91 84 81 76 75 81 78 80 88 74 82 73 75 82 85 87 90 96 81 75 72 76 76 77 77 74 68 56 54 59 55 45 36 36 36 36 36 35 36
76 77 72 82 81 92 90 83 85 80 93 95 92 85 86 79 86 57 71 79 90 92 88 92 87 84 89 82 75 93 69 61 59 65 71 60 67 52 41 40 45 45 46 47 48
77 78 76 76 92 87 87 92 86 81 94 92 90 86 87 86 74 68 63 61 86 87 88 96 96 92 94 92 77 90 59 62 63 70 65 63 66 45 39 39 41 43 46 50 53
76 78 81 91 90 93 90 88 82 89 97 99 91 94 92 81 76 72 77 61 66 78 66 70 67 70 70 84 76 68 61 69 72 71 79 62 65 40 39 40 38 40 46 49 55
75 75 85 86 97 94 87 87 93 95 94 99 99 89 84 84 81 81 86 83 94 99 99 81 68 58 56 65 57 60 74 89 76 87 74 72 74 51 41 39 41 45 46 46 54
77 76 80 88 94 90 92 93 91 90 99 96 87 84 95 87 86 84 93 89 70 76 92 93 92 65 60 66 70 68 69 87 64 66 63 68 74 43 43 36 41 45 46 50 50
74 93 91 84 88 88 94 97 100 99 99 92 87 94 97 88 87 89 86 82 74 67 82 87 91 60 62 61 62 72 85 64 87 81 84 63 55 34 45 44 46 45 51 54 51
94 92 88 83 89 87 97 99 100 96 77 76 90 86 95 93 97 88 90 73 72 67 64 73 95 68 65 60 63 66 64 82 90 82 61 44 48 32 48 48 40 45 49 54 62
94 92 79 92 86 95 100 100 95 79 78 78 92 90 89 85 79 85 79 70 62 66 61 67 80 83 66 78 78 76 86 78 72 70 67 48 31 42 40 44 48 48 49 59 76
94 93 82 89 97 96 98 97 86 85 83 68 72 77 81 80 78 80 74 68 57 58 68 68 81 92 75 70 66 68 74 68 80 79 87 84 50 40 43 46 48 48 54 78 74
97 96 86 88 98 99 92 88 92 89 84 66 68 68 72 72 77 76 72 70 60 60 65 62 82 95 86 76 69 82 75 68 71 80 98 83 42 44 50 49 47 52 76 68 60
96 97 94 95 91 96 92 91 87 80 74 64 68 62 69 79 75 80 78 77 68 61 65 58 76 73 82 72 82 94 83 72 80 93 83 86 58 46 42 50 51 64 72 62 61
96 96 95 99 94 89 88 86 87 88 77 69 68 66 71 84 85 86 80 79 70 70 67 65 87 91 79 72 78 79 82 80 85 80 86 64 73 52 51 54 51 76 69 65 61
93 95 89 97 80 83 86 85 89 88 92 83 85 85 77 79 77 83 77 80 78 74 72 73 95 95 91 78 85 94 82 84 80 77 77 70 72 47 46 45 67 78 72 64 59
95 90 96 86 91 91 91 89 86 83 83 87 83 86 86 87 88 76 71 67 67 72 78 76 95 93 90 82 82 94 84 81 82 80 70 88 63 51 59 61 82 80 70 59 55

GFSSW_sfc_rhum_060.txt.gz
RH
66 66 69 68 65 65 61 61 65 70 70 65 60 55 55 59 64 72 92 57 50 62 67 47 58 61 48 46 42 44 38 37 38 33 26 22 23 21 20 17 17 18 24 40 45
62 60 62 66 65 66 60 59 60 64 68 67 64 58 56 56 57 76 67 66 61 60 65 50 72 66 58 48 42 35 37 30 27 29 26 25 20 23 23 22 20 24 29 57 67
59 62 66 66 66 60 60 60 62 62 63 65 66 61 58 51 69 55 51 66 66 59 48 48 58 67 65 52 43 36 34 32 40 34 29 27 28 28 23 26 19 22 31 54 70
63 62 64 64 61 58 61 60 61 60 61 62 63 63 62 54 74 48 57 66 67 53 50 55 65 78 70 62 43 48 33 34 44 41 41 35 28 29 27 21 23 28 29 33 58
63 64 66 65 61 61 62 63 60 58 61 63 63 64 65 68 56 58 70 59 58 57 60 59 64 66 69 58 51 48 44 39 38 43 41 39 37 29 31 28 28 28 31 28 27
66 66 68 67 66 64 61 59 59 63 66 62 62 65 69 83 32 34 79 53 52 64 60 62 55 52 57 55 52 44 42 41 37 40 41 42 38 38 30 27 26 27 25 23 25
67 67 68 66 70 67 66 64 59 61 65 64 65 60 72 60 47 55 83 57 51 59 61 58 46 53 50 61 47 47 51 42 43 38 35 37 41 43 28 24 25 23 21 23 25
69 67 65 66 65 61 59 60 64 65 67 68 69 61 69 39 39 50 72 56 47 51 53 58 56 49 42 44 49 49 45 52 35 39 41 38 29 32 30 27 28 25 22 24 23
62 65 63 62 60 62 62 65 68 66 66 63 71 66 68 44 71 60 62 59 50 54 57 59 73 54 52 50 61 50 43 42 49 40 33 38 30 26 30 31 28 26 24 26 25
71 72 72 72 70 65 67 67 66 66 59 54 60 88 59 56 68 64 53 60 68 68 75 78 85 83 60 48 52 52 49 45 40 44 46 45 34 33 33 33 30 26 24 24 25
72 74 75 76 87 73 73 62 58 71 68 61 59 70 55 56 62 75 57 69 78 67 75 73 94 87 61 45 38 39 45 42 42 42 42 43 43 38 33 31 30 26 23 22 24
73 76 74 76 77 81 80 64 61 63 65 60 59 69 53 67 70 86 64 94 78 78 60 82 93 65 49 48 48 44 42 43 54 45 42 43 44 35 32 32 31 29 26 25 24
72 75 77 81 81 84 70 66 64 59 65 74 79 73 72 78 69 85 79 79 64 68 72 72 68 51 55 57 54 49 44 53 49 47 42 44 40 38 30 29 29 28 30 31 32
73 76 73 70 68 75 68 70 66 62 98 88 94 83 78 74 79 63 88 89 86 73 83 86 78 64 61 57 48 63 53 51 52 52 50 45 31 38 32 38 36 36 38 38 38
73 78 76 74 76 73 81 73 67 70 95 97 92 77 73 78 80 88 87 69 77 92 91 97 92 82 78 60 53 71 55 52 51 50 49 46 45 34 30 37 37 35 37 40 42
75 75 75 78 70 81 72 68 70 96 95 98 91 89 88 89 78 84 78 77 68 78 82 95 90 86 85 91 72 48 49 49 49 53 68 43 47 30 30 29 34 33 34 38 42
80 70 66 69 72 74 72 75 96 91 98 100 97 86 80 83 72 77 75 82 90 98 100 100 96 85 79 87 86 69 59 84 80 83 61 52 48 28 30 28 30 39 40 38 42
80 73 70 66 70 73 72 85 92 94 100 94 82 86 96 73 87 90 73 69 57 62 93 91 96 88 75 60 66 58 59 74 55 42 40 56 49 30 30 28 31 34 38 42 46
77 64 71 61 72 70 80 99 99 100 99 80 65 70 74 70 81 92 67 66 60 50 69 78 88 54 54 51 49 62 76 48 68 61 56 35 38 32 33 32 33 33 37 45 51
80 70 68 68 72 71 91 95 99 92 69 59 76 66 64 69 67 65 67 56 58 51 45 59 91 61 55 49 50 53 46 68 86 72 50 33 29 26 37 36 33 36 41 46 54
76 74 62 70 71 80 100 99 80 64 63 60 67 65 64 63 62 61 62 57 50 52 43 49 60 79 56 63 60 60 66 59 48 47 47 23 21 24 34 32 36 36 41 54 55
81 84 66 70 90 93 99 93 79 68 60 54 55 59 59 58 57 56 53 53 46 44 50 53 62 80 66 56 51 52 53 46 59 63 62 62 27 24 26 31 35 36 48 56 52
83 81 67 76 95 92 74 71 75 64 58 52 54 53 53 55 62 56 56 57 47 47 47 48 72 86 74 66 58 66 57 53 53 64 90 56 29 31 31 33 31 40 52 54 52
81 86 81 76 76 76 71 72 66 64 56 51 52 48 51 56 53 59 60 60 54 51 62 50 57 57 55 67 67 88 68 57 84 92 56 53 34 32 34 32 36 43 56 54 50
84 84 80 88 73 71 72 69 69 68 60 53 51 50 50 56 57 60 62 59 58 61 52 48 71 69 62 60 64 68 71 67 87 71 93 47 48 30 30 36 37 50 62 60 52
87 86 73 73 67 67 73 70 72 73 74 60 56 62 53 51 50 57 57 53 52 56 52 57 93 88 84 65 67 84 64 66 67 61 63 53 54 34 32 34 46 64 67 62 55
86 80 90 75 69 66 68 71 67 68 73 64 60 58 61 65 63 54 48 46 47 53 58 58 82 86 71 68 68 82 72 65 62 58 55 73 47 37 39 43 60 72 67 58 52

GFSSW_sfc_rhum_063.txt.gz
RH
66 60 60 61 64 68 66 67 62 59 63 72 70 66 60 56 57 56 72 71 51 55 63 37 54 61 44 43 33 34 42 40 34 29 22 17 20 17 14 14 14 13 18 34 44
65 62 62 64 66 66 64 60 64 60 62 63 65 68 64 59 49 46 49 67 64 53 57 39 62 63 55 46 40 40 45 36 25 23 24 18 20 17 19 17 14 15 24 39 48
65 63 63 67 65 65 59 58 60 61 64 60 62 66 68 56 53 37 45 62 70 56 53 46 41 59 58 45 40 36 32 26 21 28 29 22 21 14 19 17 14 15 18 37 47
66 67 66 67 65 62 63 61 61 62 58 59 63 62 62 50 60 27 49 61 69 56 42 54 37 63 64 57 39 40 29 22 29 34 32 26 19 23 20 18 15 20 24 30 42
67 69 67 66 67 68 66 63 57 59 62 66 63 63 60 59 53 36 62 58 49 64 44 50 41 52 58 50 42 42 30 27 31 39 35 24 23 23 22 21 22 23 25 23 25
70 69 70 67 67 67 68 64 62 58 67 67 65 66 58 66 26 25 50 54 61 65 42 47 39 39 48 46 44 39 34 34 31 39 38 38 27 28 24 20 22 21 21 20 22
65 64 66 62 61 64 63 60 63 63 61 66 64 58 60 49 27 50 79 59 56 66 47 39 35 45 41 52 43 40 42 39 34 33 36 36 38 35 24 22 22 19 19 18 18
72 73 73 70 62 59 59 61 60 65 66 66 69 60 70 32 28 34 59 78 56 83 43 37 40 54 50 38 47 52 42 53 38 36 32 36 36 27 24 22 22 19 17 16 16
69 71 73 74 72 67 60 65 64 65 65 64 66 62 60 38 41 40 64 69 51 72 52 39 59 61 53 60 58 49 48 42 34 32 35 40 30 23 24 24 21 18 18 18 18
70 75 73 73 76 71 68 68 61 64 55 46 51 71 46 46 41 54 67 71 63 87 57 67 80 76 66 52 65 47 44 30 31 39 34 35 34 23 23 27 23 19 18 19 19
72 74 74 75 73 80 69 51 59 67 53 55 58 58 53 46 61 71 69 80 79 60 64 72 92 87 54 40 28 26 35 30 26 37 38 34 32 26 25 27 25 22 19 17 17
73 74 74 78 78 74 58 50 58 60 61 47 50 56 49 73 86 84 79 89 89 71 53 83 91 68 41 38 35 34 35 37 38 34 36 30 34 29 28 28 25 23 22 20 20
75 75 72 69 71 58 56 63 52 49 82 67 65 64 70 78 78 83 68 74 83 54 65 79 74 74 69 52 47 36 36 34 40 44 37 36 39 33 27 27 26 24 23 23 25
78 73 72 71 63 58 60 58 55 58 100 92 75 70 72 71 75 80 81 82 76 61 57 69 70 81 77 63 44 45 31 31 48 49 39 34 22 33 30 32 29 29 29 30 30
78 75 74 68 57 62 71 61 61 65 88 97 89 65 70 82 79 89 86 94 74 87 72 95 77 76 81 65 41 56 43 44 48 50 48 45 42 32 30 36 34 32 35 36 35
77 78 73 59 57 62 59 59 65 99 96 96 86 80 88 85 86 86 83 67 62 79 82 94 81 84 87 75 53 51 49 49 47 51 73 40 38 35 31 30 32 30 31 34 37
76 79 72 54 58 56 60 75 99 94 96 100 95 85 78 90 88 81 80 87 95 99 100 100 99 88 84 84 68 57 61 92 93 89 65 38 42 27 23 24 28 31 32 34 36
79 79 58 53 58 61 65 86 96 89 100 94 84 63 77 56 78 70 65 84 64 73 99 99 99 99 89 89 94 73 69 80 70 54 47 44 45 27 24 22 30 31 35 38 41
81 50 62 52 61 64 67 100 99 100 97 74 60 59 59 57 71 59 55 57 55 55 83 85 97 88 77 57 73 94 95 46 57 44 44 33 30 31 29 27 30 31 35 41 45
59 54 56 55 61 65 83 95 85 73 59 50 60 56 55 55 56 51 52 50 51 43 38 52 89 66 55 47 45 50 43 65 86 74 44 33 26 26 34 35 31 33 37 42 47
60 65 56 57 63 62 100 94 65 51 54 55 51 49 46 53 49 50 52 51 43 42 36 43 55 70 55 62 57 54 61 51 46 41 48 22 22 22 28 28 33 34 38 46 49
66 77 55 57 81 78 94 83 74 55 46 46 46 46 44 45 47 46 46 46 40 38 42 45 58 76 62 51 46 44 45 42 57 50 51 57 32 22 27 30 31 35 42 49 48
61 58 55 66 88 84 64 58 58 50 47 46 47 46 45 46 54 47 47 51 43 42 40 42 67 80 66 59 51 61 49 44 44 60 94 55 35 23 25 28 29 35 43 48 48
60 79 68 50 57 59 54 55 54 54 48 44 44 42 45 47 42 51 50 52 48 45 62 48 48 55 53 65 57 76 56 51 82 92 49 48 32 30 30 32 29 36 45 49 46
57 68 74 77 57 58 56 53 53 53 48 43 45 43 42 48 45 46 48 51 48 58 43 42 59 53 50 50 54 64 62 59 92 70 92 43 37 28 27 29 32 39 51 56 50
79 82 69 65 53 56 64 54 58 54 58 47 46 43 40 40 38 45 45 43 43 46 44 46 88 87 86 56 57 75 57 58 62 62 55 48 48 30 27 30 36 43 59 60 52
60 64 80 65 55 55 52 54 54 59 57 53 44 44 45 49 48 43 37 36 38 44 49 50 76 86 62 58 59 75 62 59 58 53 54 70 42 34 35 38 42 56 61 58 50

GFSSW_sfc_rhum_066.txt.gz
RH
71 66 67 64 66 66 67 66 61 63 64 62 65 67 67 64 60 52 67 63 60 56 58 43 52 65 68 65 46 41 68 84 71 49 33 22 23 22 20 22 20 19 46 56 69
67 68 65 66 66 65 67 61 62 64 68 66 65 65 66 67 60 57 42 55 66 62 56 46 61 67 79 68 51 48 64 57 41 31 32 25 25 24 23 24 23 23 41 53 68
65 66 67 68 66 65 64 63 60 62 60 58 58 62 70 62 64 44 46 51 63 65 46 45 41 59 77 58 50 48 57 42 32 34 33 29 28 26 26 30 22 21 35 50 67
68 69 68 68 68 66 64 66 62 60 64 61 60 65 64 57 71 51 40 49 64 61 49 60 44 67 76 66 48 51 41 35 31 38 39 34 25 24 24 28 25 33 33 49 55
64 68 69 68 67 65 67 65 63 59 60 62 64 63 64 65 55 31 54 48 54 69 58 57 48 59 71 59 47 53 40 31 31 41 40 31 32 29 30 29 28 28 30 35 41
69 70 70 72 70 61 63 65 63 64 64 64 65 63 66 72 30 25 36 42 61 72 67 48 48 40 50 54 54 43 41 35 34 44 40 37 33 30 28 28 28 30 33 32 32
68 67 70 71 73 61 58 58 57 57 61 59 63 59 67 57 27 52 63 60 58 68 71 46 41 40 52 55 49 43 48 43 36 44 45 44 42 39 29 28 28 30 29 26 26
66 69 70 70 73 70 60 58 62 63 66 63 64 60 76 37 34 33 49 62 55 72 68 43 41 58 50 52 58 64 52 62 42 40 42 43 54 37 30 33 33 29 28 26 24
69 68 71 73 71 74 65 62 65 63 62 61 64 68 61 37 44 34 34 60 55 62 71 54 51 70 58 78 78 69 74 63 50 39 39 43 52 33 28 31 33 30 27 24 24
72 73 73 75 73 76 67 68 59 63 63 46 49 75 52 45 38 35 68 74 72 74 82 74 75 84 77 86 87 73 69 48 47 41 41 49 50 32 31 34 32 28 26 27 26
74 73 72 74 74 74 72 69 67 70 53 56 55 58 49 52 43 53 76 74 84 92 97 81 88 89 76 66 51 42 48 48 37 36 45 47 45 37 30 34 38 32 28 27 25
73 74 72 71 70 67 65 56 62 60 70 45 46 49 54 71 76 76 80 88 91 96 78 87 89 61 53 56 53 45 44 45 36 41 43 43 42 32 30 34 33 34 32 28 27
74 76 73 71 70 66 60 65 56 55 93 70 68 72 89 81 84 85 82 85 84 94 71 76 69 57 53 53 56 44 45 40 46 46 43 45 44 40 34 34 32 33 33 30 33
73 75 75 75 75 60 64 62 61 60 100 94 75 80 90 86 85 82 84 94 86 66 66 69 68 69 80 76 52 62 35 35 48 59 61 45 46 39 36 38 33 35 36 39 40
73 76 77 76 70 62 64 58 60 71 95 78 85 70 74 84 84 81 83 84 78 70 75 97 82 80 88 81 58 53 42 47 55 59 61 53 66 47 39 42 40 39 46 46 46
74 74 79 65 71 58 62 60 73 98 97 97 87 88 87 80 82 82 82 78 59 70 83 93 80 82 88 86 86 53 57 56 63 67 94 57 56 54 44 40 40 43 46 47 48
79 79 79 60 68 62 69 81 99 94 93 95 96 87 87 92 92 86 88 88 87 97 99 100 98 90 85 96 80 68 72 95 97 97 91 46 56 48 34 33 38 40 44 46 49
81 83 66 55 63 68 79 97 91 82 99 84 80 56 72 64 79 79 89 95 77 83 99 97 96 98 85 91 92 79 78 96 81 90 77 50 67 42 32 31 35 40 45 47 54
81 68 70 62 64 72 87 97 98 100 94 78 62 64 59 60 65 62 61 80 84 79 97 99 99 93 89 78 78 95 95 60 77 63 83 60 47 41 34 44 40 39 44 54 58
70 66 67 60 65 82 92 89 92 69 56 51 63 53 57 55 59 56 57 53 55 55 51 69 98 95 91 83 76 87 66 80 95 81 70 53 50 46 43 42 39 42 47 54 57
79 78 69 64 73 80 100 91 66 48 52 54 51 48 48 53 51 52 54 53 45 45 43 53 71 87 71 89 86 93 92 72 62 63 87 55 47 36 38 38 40 42 46 54 59
82 92 68 69 92 88 98 82 73 51 48 47 50 48 47 49 51 51 56 54 43 44 53 56 71 84 71 56 52 56 57 55 91 68 79 87 55 31 34 38 41 43 48 59 56
75 69 73 76 97 98 72 58 56 50 49 47 48 49 48 50 58 53 56 58 51 52 55 53 83 93 82 72 61 73 59 55 64 82 93 92 61 36 42 41 37 45 55 59 57
72 90 86 68 64 70 62 57 56 62 52 45 45 45 49 52 48 57 59 59 58 52 62 58 59 70 86 82 77 85 65 60 87 97 78 82 47 41 41 41 38 50 56 60 58
69 75 73 94 67 65 60 56 54 54 53 48 50 46 46 55 50 52 54 60 54 59 54 59 74 68 61 54 63 76 70 68 91 82 83 66 48 35 37 39 40 52 59 63 59
78 85 72 75 60 60 69 59 58 53 57 51 54 46 46 49 47 50 50 53 57 57 57 60 95 92 92 61 64 79 65 67 72 72 73 64 62 44 41 39 49 58 66 70 64
71 68 78 70 61 65 64 62 59 59 58 51 54 52 52 55 52 50 47 44 48 54 59 64 89 95 85 70 70 86 73 69 68 65 68 79 56 44 46 44 53 68 69 70 59

GFSSW_sfc_rhum_069.txt.gz
RH
65 63 66 65 66 66 64 66 64 61 64 65 66 63 66 65 66 63 76 60 63 64 55 52 57 68 83 78 54 62 93 92 77 66 52 37 37 26 22 23 27 53 68 82 76
63 64 67 67 68 66 64 63 70 59 61 61 62 62 63 69 70 70 57 53 57 66 61 60 70 76 89 88 58 62 82 68 50 52 54 41 33 32 26 26 34 70 83 78 80
65 65 70 70 68 67 66 64 68 66 62 65 58 62 65 64 72 60 48 56 52 62 68 53 59 79 91 84 67 57 66 54 48 44 56 44 31 28 29 36 29 56 88 86 87
67 69 66 65 70 68 63 67 63 60 59 65 67 61 64 66 76 45 50 56 53 58 68 65 58 80 92 84 63 57 47 44 43 44 55 50 28 29 30 36 37 35 63 79 86
67 65 65 65 65 71 61 63 65 60 62 62 62 62 68 81 71 35 45 47 44 72 70 72 64 74 89 77 62 65 50 40 38 43 45 34 36 36 33 38 32 31 37 66 79
69 66 68 68 68 72 58 59 57 59 63 60 64 63 76 87 41 35 40 35 48 75 70 68 65 64 76 70 72 54 52 48 40 46 45 40 37 32 32 33 34 31 37 37 43
69 66 69 71 69 74 59 54 59 57 58 59 62 63 74 68 40 55 58 62 62 74 79 64 55 54 55 67 58 62 59 55 50 49 52 40 40 38 36 34 36 40 34 32 33
71 69 68 71 69 72 65 55 61 60 64 62 62 72 80 47 48 45 51 56 50 63 77 67 58 62 58 61 67 68 59 74 51 50 49 39 51 40 36 47 38 39 39 35 29
71 70 68 73 73 74 67 60 64 62 59 58 70 77 82 45 55 45 47 44 55 61 80 61 66 72 64 79 89 83 89 78 57 48 50 46 55 38 35 39 38 41 38 34 30
72 73 70 72 72 72 67 66 64 64 62 56 49 79 61 58 51 45 71 63 68 84 86 86 76 88 83 89 89 93 88 76 68 51 48 54 52 41 34 38 38 38 34 33 30
73 75 72 70 71 70 79 85 78 81 66 67 62 68 54 64 55 65 74 73 74 83 91 88 90 94 77 77 67 69 73 64 54 45 51 51 51 44 40 38 38 38 36 32 29
70 74 74 73 71 70 73 75 72 72 82 60 57 64 72 73 76 82 69 76 90 93 91 92 92 77 66 71 72 64 75 66 49 40 48 51 51 46 42 39 38 36 36 35 35
75 73 76 74 73 75 79 82 74 69 93 82 78 80 86 72 83 81 71 84 87 91 88 93 75 62 69 74 79 67 75 68 53 56 51 53 56 49 41 38 39 37 34 33 35
76 73 76 77 79 74 80 72 69 72 98 95 88 89 87 77 95 82 79 92 84 90 84 89 74 69 77 70 66 79 53 48 56 63 76 50 68 44 41 43 38 37 37 37 41
73 75 77 79 93 77 73 70 70 78 94 90 89 74 80 82 79 89 88 91 89 88 81 97 81 88 92 79 82 72 51 46 63 64 71 65 67 49 41 49 43 40 42 47 44
74 77 79 80 85 67 68 70 83 91 93 98 91 85 81 75 84 83 86 91 62 78 84 93 77 87 93 90 88 83 62 59 68 74 94 71 69 58 54 40 46 50 57 52 54
79 81 84 68 85 68 74 92 94 96 85 87 96 85 91 94 85 80 87 85 90 95 97 98 98 86 82 91 84 89 88 98 96 97 93 64 69 52 40 41 44 55 55 56 60
83 84 78 67 76 73 83 93 91 83 98 80 86 77 81 76 88 84 83 92 86 90 93 98 100 98 83 86 95 96 84 91 90 97 90 58 80 54 38 36 43 46 51 55 66
84 90 83 79 75 84 92 97 92 95 92 79 66 77 75 69 80 85 86 90 84 89 90 97 94 89 85 78 86 97 96 68 77 73 86 71 57 38 48 48 47 51 53 64 67
99 89 82 74 79 94 93 94 95 79 70 63 71 60 70 66 72 71 71 75 77 76 79 87 96 89 90 85 82 94 73 82 94 82 78 72 67 57 55 52 47 50 58 64 66
97 94 78 77 87 91 97 94 76 55 60 67 67 53 55 63 61 62 67 61 52 66 69 74 80 98 95 98 97 96 98 84 66 72 85 66 55 42 42 46 44 48 53 66 69
98 96 78 86 96 97 97 90 73 64 59 60 60 59 58 57 59 65 69 62 51 53 59 62 80 97 81 79 65 71 83 75 88 71 79 91 67 37 41 45 41 49 55 65 62
99 92 78 83 97 97 81 75 70 65 60 58 58 56 57 59 68 62 70 63 53 59 61 60 84 95 86 74 66 73 64 69 66 82 90 90 66 43 48 48 48 54 64 64 61
97 96 91 89 84 83 83 73 70 67 66 54 54 53 57 61 56 66 72 64 61 57 65 61 73 77 86 79 80 86 72 66 78 91 75 85 64 56 50 46 43 52 60 68 62
95 94 89 98 90 87 77 72 71 67 62 55 60 54 57 63 58 62 70 71 62 62 61 64 77 72 63 60 72 78 74 77 84 73 81 66 56 46 47 48 44 51 67 70 61
96 96 93 95 83 82 79 76 61 66 66 66 65 60 51 61 60 59 62 68 68 64 63 70 93 89 87 65 66 78 73 75 78 72 72 71 72 48 39 40 58 65 72 72 67
94 88 91 83 85 83 74 67 70 73 66 59 66 74 60 65 65 62 58 54 58 66 69 76 88 93 92 76 77 82 74 70 75 73 64 79 58 54 51 49 62 70 73 72 68

GFSSW_sfc_rhum_072.txt.gz
RH
64 64 67 69 70 67 66 66 63 64 61 61 63 72 68 68 68 68 76 64 63 62 63 57 60 76 87 82 80 88 92 83 69 75 57 60 67 37 25 37 57 74 84 75 80
66 68 67 66 66 69 65 65 64 63 65 60 60 60 63 73 72 75 58 57 54 60 73 63 71 77 97 91 68 90 96 79 56 57 75 66 63 48 29 43 79 96 87 82 84
66 63 61 65 61 67 68 62 67 60 65 59 59 60 66 68 78 61 46 53 56 54 70 58 68 73 92 94 73 67 79 58 50 47 75 72 67 54 39 32 65 92 93 91 92
68 66 68 66 66 68 68 62 64 64 59 60 59 61 63 70 81 45 44 52 51 51 70 70 78 87 93 95 74 68 54 52 56 77 73 80 74 55 34 36 34 79 88 90 92
68 65 66 67 66 71 62 59 62 62 63 62 62 63 72 84 71 46 50 44 45 58 74 77 80 77 90 86 74 72 52 46 42 61 68 71 77 59 32 37 48 76 81 89 89
66 67 69 72 68 70 57 56 58 58 62 62 64 63 76 84 43 49 48 43 49 64 74 83 67 69 84 76 76 65 57 51 47 45 44 68 65 52 30 33 36 38 64 85 88
70 68 69 71 69 70 59 55 61 57 60 60 63 63 81 75 48 46 45 58 65 66 79 80 61 67 73 73 70 69 66 65 56 51 46 38 54 54 30 35 37 39 35 35 58
70 70 65 73 73 71 63 59 63 61 63 62 61 74 84 52 55 47 50 54 56 70 76 73 72 64 66 62 77 79 75 79 54 52 47 38 53 37 35 38 42 44 58 42 36
71 72 70 70 71 71 68 64 63 61 59 60 80 80 80 47 54 47 47 48 55 67 86 71 76 72 71 80 92 88 92 77 60 50 52 44 52 40 36 39 38 43 42 39 35
74 73 74 72 72 71 69 66 66 65 63 60 59 76 64 61 58 62 74 63 70 84 95 86 82 86 90 91 94 96 90 81 73 56 55 58 56 43 42 43 40 40 40 37 34
74 72 74 75 73 71 77 74 76 76 71 70 68 69 59 68 64 80 75 70 73 83 89 90 93 92 88 77 75 80 82 74 64 51 55 60 57 48 40 44 44 44 40 35 30
75 76 74 76 76 69 76 80 81 76 87 71 68 72 72 76 80 82 69 78 83 93 94 95 91 78 73 71 73 80 84 78 59 47 57 57 56 48 44 46 39 40 39 36 36
75 77 74 78 78 76 85 83 76 71 90 88 77 76 76 79 84 85 81 79 83 93 93 87 73 68 72 81 80 85 82 75 65 60 56 59 65 61 50 47 41 41 40 39 36
72 76 74 78 76 81 84 73 73 74 97 98 91 83 84 81 88 80 84 84 86 97 90 85 71 72 79 82 79 83 63 59 58 70 85 54 81 55 55 48 45 42 41 40 42
73 74 76 78 90 80 70 74 77 82 94 95 89 75 76 83 85 87 86 83 85 92 93 96 82 79 88 80 68 71 78 60 67 70 74 71 76 64 47 57 47 47 41 43 51
77 78 78 84 92 70 70 78 84 86 94 97 87 82 87 78 87 86 86 87 76 83 84 92 79 90 92 90 90 88 68 70 76 83 96 71 73 69 51 46 44 44 44 50 53
78 81 84 75 87 73 77 91 90 94 79 87 95 85 81 86 87 85 93 96 96 98 99 98 97 91 82 86 80 87 85 99 98 99 94 71 75 48 46 42 41 48 60 64 62
81 83 81 72 79 77 88 85 91 84 94 82 83 78 94 81 87 85 86 94 87 82 96 98 100 95 85 90 87 96 90 94 91 96 88 68 85 55 45 39 41 46 55 65 71
82 95 87 81 79 87 90 94 87 93 86 91 74 78 78 85 88 87 86 92 90 88 89 91 93 83 84 85 79 96 99 80 80 83 92 74 63 43 58 60 58 56 58 69 73
96 92 86 78 83 94 92 92 94 80 79 78 84 66 81 72 87 93 90 77 84 82 81 87 98 82 80 84 86 91 84 98 94 87 84 75 73 60 73 63 54 56 63 70 71
95 93 82 85 86 89 96 96 84 66 68 73 75 67 62 68 66 74 72 66 65 68 81 85 83 93 91 96 82 96 99 90 75 77 87 74 61 49 54 54 54 56 61 69 71
95 87 84 88 96 98 96 90 75 71 64 67 65 67 68 62 68 77 71 68 57 55 71 66 85 93 89 77 76 77 88 80 93 88 84 90 58 43 46 53 49 51 57 67 65
98 95 84 84 96 97 84 79 75 69 67 60 62 60 61 65 72 68 74 65 58 59 66 64 85 98 96 79 77 99 89 80 78 84 90 84 57 46 58 49 48 54 64 67 64
95 88 89 88 91 87 88 78 63 68 65 58 58 56 63 65 60 68 75 65 63 59 66 62 78 78 86 76 83 88 80 90 95 98 85 90 56 50 51 50 53 58 66 66 62
95 97 92 95 78 92 89 78 76 73 62 62 63 62 66 69 65 68 74 75 65 66 64 62 76 71 67 70 74 77 77 79 87 80 86 68 63 46 46 48 49 48 59 73 68
91 90 94 93 89 89 84 85 81 71 69 69 69 70 72 64 55 64 70 77 70 74 76 75 91 87 85 69 69 81 75 78 76 74 73 68 71 50 40 49 49 50 70 76 71
96 92 95 75 87 87 80 63 68 73 70 58 69 79 76 63 64 56 56 58 62 70 72 79 89 90 85 80 75 79 71 70 78 75 64 78 54 53 50 41 50 62 70 72 71

GFSSW_sfc_rhum_075.txt.gz
RH
67 65 65 63 66 63 67 66 66 65 64 62 62 63 64 73 72 66 80 58 65 58 62 61 60 75 84 87 86 84 89 74 68 70 65 69 71 57 46 41 69 89 86 84 89
67 65 66 63 65 64 69 66 64 63 61 61 62 61 64 68 73 78 61 56 55 53 74 67 75 77 91 95 92 92 86 76 59 60 60 70 68 66 61 51 72 97 93 90 90
68 68 62 67 65 68 70 62 63 60 60 58 59 62 65 67 67 66 50 51 53 52 63 68 68 81 88 94 85 90 82 62 54 78 81 74 69 69 65 42 46 91 97 95 94
67 66 69 68 68 70 62 61 64 62 61 60 59 62 62 70 89 60 54 53 51 54 61 69 83 88 88 88 85 82 64 58 68 84 80 75 71 71 70 51 50 49 93 95 93
70 68 68 70 68 70 59 60 60 61 62 61 60 63 69 73 75 46 54 49 51 63 67 77 88 88 89 84 80 80 61 53 80 77 71 68 68 70 72 57 48 65 89 95 95
72 68 67 71 71 69 58 58 60 60 62 63 64 61 77 82 52 51 49 53 58 65 69 80 76 79 82 86 78 74 59 68 71 76 61 74 70 80 63 55 40 89 88 90 92
72 67 68 72 72 68 60 60 62 60 62 61 63 68 82 61 48 60 47 61 62 64 74 79 70 73 82 80 79 75 71 70 58 58 66 70 93 88 63 54 42 57 87 85 87
73 70 70 70 71 71 64 61 65 63 63 62 61 76 77 52 56 50 50 52 56 74 72 81 80 74 75 76 85 84 78 88 58 53 56 65 77 78 69 62 40 38 36 43 52
69 70 72 72 72 72 69 66 65 62 61 60 81 82 73 48 57 50 56 56 56 77 82 68 75 73 73 89 92 91 93 85 65 52 52 49 56 65 59 58 39 37 39 33 38
71 69 73 75 74 73 68 66 66 68 65 63 66 72 57 66 63 66 72 61 71 85 85 87 85 88 91 92 88 98 94 80 70 60 56 56 52 45 40 43 45 42 43 41 34
70 72 70 74 76 74 75 68 75 72 72 92 87 72 66 70 69 80 74 66 73 80 91 94 92 88 92 74 79 82 84 80 67 54 59 60 57 48 41 45 43 49 46 44 35
68 74 70 74 78 72 77 82 77 73 84 75 71 75 74 78 80 78 68 76 81 95 89 94 94 77 74 69 75 81 84 84 64 51 58 60 59 51 46 50 47 44 48 44 37
70 72 70 75 78 76 85 83 79 74 89 84 78 79 75 79 75 85 81 78 83 93 96 97 78 70 76 82 83 86 87 82 70 60 58 61 62 55 47 54 47 44 45 45 39
72 71 74 77 76 84 82 76 77 74 98 97 88 81 82 75 91 80 83 84 86 94 93 85 71 76 84 86 82 92 72 68 62 68 79 59 87 60 50 50 52 47 46 46 42
75 76 76 76 87 80 69 77 79 77 92 93 86 79 77 89 87 87 85 81 85 88 93 98 83 88 87 82 72 80 80 67 68 76 80 71 83 70 53 64 53 46 47 45 46
78 80 78 89 94 78 73 78 81 87 89 98 87 82 91 84 89 88 81 81 78 87 88 92 83 89 92 89 80 81 68 74 88 86 96 75 78 76 56 48 46 50 50 42 53
80 81 86 77 87 75 77 88 89 92 75 85 96 86 82 84 86 83 87 92 95 99 100 99 96 87 83 86 77 80 90 99 99 99 95 77 75 56 49 45 44 44 50 51 59
81 83 85 76 83 79 82 84 89 78 93 79 82 82 91 75 84 90 89 95 89 84 97 98 100 96 90 87 86 92 81 94 91 96 89 79 88 63 50 45 43 44 49 64 72
79 94 89 84 83 88 81 94 84 88 80 93 77 85 94 80 87 84 82 90 84 80 85 94 98 83 81 90 84 94 99 78 82 85 94 78 65 45 46 49 53 60 68 76 78
94 92 90 86 85 91 92 93 93 76 78 85 90 73 84 95 95 94 92 84 86 82 80 83 97 84 82 81 87 86 84 94 97 96 90 79 77 55 54 55 67 72 70 74 75
95 93 85 87 86 89 95 93 86 71 75 78 79 77 70 75 86 92 83 71 72 83 81 80 82 91 83 96 87 97 99 98 95 84 84 80 62 53 49 51 66 69 72 72 71
92 87 84 90 94 97 92 87 75 75 71 71 74 71 74 68 71 76 78 67 58 73 84 80 86 91 85 81 75 74 78 88 97 91 89 90 68 47 52 54 62 70 68 72 71
95 93 87 92 95 97 85 82 78 74 68 65 67 62 65 70 76 69 74 65 58 61 66 67 91 98 98 91 86 95 81 85 95 84 91 86 65 47 60 67 61 66 72 73 69
92 76 81 86 92 89 90 82 76 74 69 65 62 61 67 70 63 70 76 65 61 59 61 62 78 78 82 75 87 99 93 86 97 99 89 86 60 49 52 55 58 61 69 75 68
91 94 90 86 67 91 92 85 84 79 69 65 68 65 78 80 71 72 74 80 68 61 64 61 80 83 73 67 80 82 82 90 95 86 90 72 73 53 43 48 48 55 73 77 73
75 74 92 90 88 90 83 85 85 76 79 73 73 68 81 76 61 65 73 80 70 78 70 78 87 87 88 70 80 83 76 82 91 88 90 80 70 49 43 53 49 55 72 79 77
96 93 91 69 85 83 86 66 63 73 72 69 71 80 86 72 65 57 60 62 67 73 76 80 89 89 88 82 76 82 70 71 78 73 73 86 60 56 54 47 49 56 64 66 72

GFSSW_sfc_rhum_078.txt.gz
RH
69 64 62 63 60 65 67 69 64 65 62 62 62 61 62 75 81 79 79 52 55 59 62 68 68 73 83 90 92 89 86 86 78 66 56 68 66 64 59 55 51 94 95 89 94
67 64 65 67 64 67 69 64 64 62 61 60 61 65 66 69 81 81 78 61 54 52 74 73 78 68 84 91 91 92 89 79 65 70 70 69 68 77 67 66 62 64 80 96 97
65 65 64 68 66 69 63 63 64 63 63 60 62 63 65 66 68 66 61 62 54 51 71 80 71 70 87 88 90 92 83 65 85 85 75 71 72 73 76 63 62 72 58 77 91
68 66 66 68 68 69 61 62 63 64 64 62 61 67 64 74 83 64 52 62 59 53 74 79 82 77 89 92 85 90 76 68 89 86 75 75 68 71 80 66 61 60 55 72 90
67 66 65 70 70 64 60 62 61 62 65 65 63 65 70 76 74 48 53 53 53 64 74 78 86 85 77 77 77 65 64 72 84 73 70 67 74 76 71 60 57 50 72 96 98
68 64 67 70 70 64 60 61 62 62 65 65 66 63 77 74 55 52 51 50 67 67 73 78 80 78 82 75 75 71 60 80 84 72 70 74 80 73 51 59 58 55 50 94 97
67 67 70 66 69 69 62 63 63 64 65 65 64 71 80 61 54 53 52 58 68 66 73 80 72 78 82 87 74 67 87 84 86 80 78 78 81 85 62 58 64 59 48 79 93
68 68 72 72 71 70 68 65 65 65 64 64 64 76 70 50 60 52 48 49 63 78 69 78 74 76 77 83 82 78 76 91 81 81 81 76 87 75 66 74 71 58 47 43 76
71 68 71 73 74 73 72 67 66 61 59 61 76 85 72 48 58 57 68 55 62 84 80 67 76 78 71 91 93 89 94 85 84 75 86 79 73 65 81 78 74 62 48 38 42
72 68 70 73 76 76 69 66 66 66 65 63 67 71 57 70 67 65 69 61 66 84 83 85 89 90 86 94 84 92 85 84 84 68 77 87 59 74 80 82 75 66 48 40 39
70 72 70 73 76 76 72 69 74 71 77 91 89 75 70 71 71 76 72 64 73 76 88 89 93 94 92 78 79 82 83 84 77 61 64 74 60 72 70 85 84 64 50 42 42
68 75 74 72 78 70 78 82 83 78 89 78 78 76 74 80 78 75 70 75 81 91 88 95 90 79 74 71 78 81 84 86 75 59 67 64 61 52 50 62 61 54 40 48 47
68 73 75 74 78 76 85 84 81 79 92 81 82 86 83 78 84 82 82 80 88 95 95 99 80 75 75 76 81 88 87 84 78 63 68 64 65 62 51 47 46 44 45 47 47
70 73 74 78 74 86 82 80 79 74 96 97 82 83 80 79 87 79 85 87 84 96 94 92 73 80 84 85 79 90 78 70 66 69 82 64 85 66 49 51 51 44 46 47 46
74 75 74 76 83 80 71 78 82 74 93 88 83 81 74 87 80 83 84 78 87 91 94 98 84 88 90 82 73 81 77 72 74 82 80 80 84 67 57 55 46 39 46 50 48
77 77 80 94 94 79 76 78 78 87 95 96 88 85 95 88 91 80 76 78 74 85 89 92 82 88 91 90 74 76 75 81 89 85 92 80 81 77 59 48 44 45 46 44 47
80 81 87 79 87 77 76 85 89 94 74 90 96 87 84 90 93 82 84 93 93 94 100 98 95 87 83 88 83 77 84 98 98 98 92 82 87 59 54 43 41 38 40 50 49
82 84 84 77 86 79 78 86 91 79 91 73 80 80 88 78 78 81 87 96 93 87 99 96 99 96 84 87 88 88 85 94 91 97 93 82 91 62 52 46 42 41 45 47 62
79 95 92 87 85 81 83 94 83 85 78 92 85 91 81 81 82 85 75 92 90 87 93 95 98 83 81 90 87 98 97 70 87 89 94 81 74 50 47 45 45 48 55 60 69
94 92 93 90 87 88 92 91 92 74 76 90 88 78 90 91 92 94 87 80 86 79 76 79 96 82 89 78 88 87 83 94 96 98 93 81 79 64 46 43 49 59 68 72 77
94 90 92 90 86 90 93 94 87 73 78 83 83 83 78 94 91 90 86 79 79 89 78 78 80 91 86 97 93 96 98 94 87 85 90 84 65 55 52 43 46 58 73 82 87
89 82 86 92 94 97 94 87 73 78 81 80 79 75 79 66 76 94 83 68 70 81 86 74 85 97 86 89 72 74 77 86 95 90 91 92 62 46 48 50 52 68 79 84 80
93 93 84 85 93 96 86 81 83 80 71 67 68 65 66 72 70 74 74 64 65 74 75 76 91 99 98 86 88 97 86 78 87 85 94 91 76 45 56 56 69 77 85 84 81
81 70 78 88 92 92 95 84 82 74 77 65 65 67 71 73 67 72 79 68 63 64 66 69 85 83 83 75 88 97 89 83 92 96 78 83 71 52 49 52 58 71 84 87 79
86 90 86 85 66 90 93 91 88 86 76 71 72 69 74 85 76 75 74 80 74 64 69 68 88 81 73 66 86 91 88 88 98 87 97 80 72 53 46 46 48 58 74 85 82
70 72 93 86 86 88 84 89 78 75 78 82 81 78 80 83 69 71 73 81 74 80 76 72 90 87 91 72 82 89 82 87 88 88 85 78 78 59 48 52 53 56 66 76 78
97 95 81 68 83 74 80 70 65 69 58 71 53 54 83 84 68 58 56 66 70 77 80 82 86 91 91 83 77 87 75 74 80 86 80 90 70 63 59 52 49 59 70 69 71

GFSSW_sfc_rhum_081.txt.gz
RH
67 66 62 65 67 67 67 63 62 62 62 63 63 65 66 72 76 87 85 53 52 62 66 70 71 75 74 90 84 75 87 76 62 56 54 62 54 58 54 48 53 64 78 84 84
69 66 64 64 67 67 62 63 63 63 63 60 61 64 67 72 74 74 72 74 66 57 72 72 78 66 81 87 88 84 86 70 56 57 66 64 63 67 52 43 49 48 44 47 92
69 65 66 68 64 64 60 63 64 63 63 61 61 63 66 69 73 68 69 68 66 57 71 76 66 63 79 84 82 84 78 68 83 73 64 66 67 64 58 50 60 61 54 52 82
70 65 66 68 66 62 59 63 63 63 64 63 62 65 62 68 86 63 74 73 61 60 73 79 73 74 81 88 76 83 70 70 84 77 69 73 62 61 63 55 55 54 52 60 61
71 62 66 65 66 62 60 62 62 62 64 65 64 63 66 68 63 48 52 60 52 65 74 82 74 73 80 80 71 64 71 76 77 66 68 65 73 65 63 56 52 51 52 52 79
71 68 71 66 66 66 62 64 62 65 66 64 65 64 70 71 46 49 51 54 64 68 76 82 73 64 66 79 72 59 71 82 70 71 71 69 77 68 59 54 52 53 52 52 63
71 70 68 72 70 68 66 64 65 65 64 65 65 65 66 60 49 51 51 52 66 67 72 75 72 70 70 81 68 66 86 79 81 73 78 57 64 70 61 60 59 61 55 51 42
69 73 66 69 72 72 71 66 65 66 64 64 65 68 66 47 57 52 52 51 61 67 67 73 64 70 71 73 77 73 80 89 82 76 83 56 71 56 68 64 64 61 55 54 43
71 72 70 70 73 75 72 66 66 64 61 62 74 75 68 47 60 58 69 58 67 71 72 78 68 75 68 86 88 81 90 82 91 73 86 70 71 53 70 71 61 58 57 55 48
66 74 73 70 74 77 68 64 64 63 63 59 65 65 58 76 69 66 68 62 75 77 74 89 84 85 84 89 88 91 85 76 85 83 86 83 82 66 72 73 63 59 58 57 53
64 71 76 70 74 77 68 68 69 71 80 90 87 78 70 70 67 72 71 62 76 74 89 91 92 87 86 69 71 71 70 66 67 63 80 84 75 67 75 74 78 64 60 57 53
68 70 75 70 75 71 77 76 76 72 87 79 80 76 74 80 76 71 68 76 84 93 83 91 90 76 74 68 74 72 77 76 64 61 70 74 81 61 73 73 70 67 56 54 46
70 71 76 70 78 76 83 81 81 80 90 77 83 88 85 76 88 79 81 74 84 84 95 100 88 72 73 76 79 80 79 76 71 57 58 66 71 65 57 64 66 64 56 48 42
72 73 71 76 76 86 82 80 79 74 97 97 83 81 80 78 82 73 82 82 84 91 91 91 76 76 80 78 73 83 70 66 64 70 84 56 83 65 57 68 57 55 45 41 42
73 73 70 79 84 80 73 77 80 69 92 80 85 85 80 73 76 73 81 76 89 90 94 97 85 86 87 80 64 75 70 68 67 70 69 67 73 62 52 59 51 47 43 39 41
76 73 83 94 93 80 77 76 74 87 95 95 84 87 91 88 89 74 77 76 71 81 86 92 80 79 84 84 73 71 73 75 79 75 90 74 70 68 56 44 41 40 38 37 37
79 82 84 81 87 77 74 81 88 94 76 88 82 80 84 94 87 77 85 93 86 96 100 97 94 84 81 87 80 72 79 94 95 96 90 72 79 58 46 46 40 38 36 39 38
82 85 80 79 85 78 76 85 90 79 90 71 78 75 92 83 81 87 85 94 93 91 98 98 99 90 81 84 87 85 80 89 93 91 82 72 79 57 47 43 41 38 40 42 46
81 95 94 94 82 80 82 94 83 84 78 89 84 92 83 84 80 75 83 82 89 87 91 90 94 81 81 83 83 89 92 69 84 81 84 67 62 44 42 39 40 40 44 46 45
94 94 95 92 81 81 91 88 92 71 73 90 85 79 89 82 84 84 90 81 85 78 71 77 96 82 84 78 82 83 75 88 96 97 92 72 64 50 41 39 37 36 43 50 57
94 89 92 92 77 90 94 93 86 74 78 85 85 84 78 96 86 86 88 76 77 87 73 73 77 93 89 96 94 94 93 89 80 79 84 74 53 47 46 42 38 39 42 58 68
88 79 90 94 92 98 96 87 75 81 85 85 82 79 82 70 89 95 93 80 76 83 88 71 79 90 87 82 74 73 81 78 87 86 86 77 62 39 40 43 47 47 58 71 75
89 91 85 88 88 96 87 81 86 84 76 73 73 71 72 77 73 83 78 66 79 79 81 76 93 96 97 87 81 89 80 76 82 81 96 90 66 41 48 47 50 61 69 78 79
68 67 74 90 92 88 93 85 84 76 84 74 70 69 74 76 66 70 75 70 72 74 70 69 90 79 79 73 84 98 93 83 89 97 75 78 66 51 46 47 46 54 70 78 76
81 71 81 80 67 88 93 92 92 90 79 80 74 78 75 83 81 78 68 76 72 65 79 86 99 90 81 66 85 86 86 89 96 82 89 70 66 52 47 43 46 44 62 80 78
64 71 94 84 85 86 84 89 84 78 75 82 85 65 78 94 76 99 93 79 74 78 77 72 98 84 89 70 75 87 84 90 85 79 80 73 76 52 47 52 58 56 56 75 78
99 96 72 72 83 68 69 78 70 66 54 64 66 67 77 72 86 79 79 82 74 74 80 83 94 97 94 78 77 91 81 77 74 82 78 90 68 57 61 62 58 60 59 60 69

GFSSW_sfc_rhum_084.txt.gz
RH
68 65 66 68 66 63 62 61 62 63 62 60 60 63 64 70 73 60 86 56 55 60 60 53 55 55 64 68 68 60 77 56 41 40 31 40 36 44 39 38 41 39 47 52 60
68 67 67 65 62 61 60 63 64 62 62 61 62 62 63 68 56 71 68 72 67 67 58 56 60 54 60 66 66 74 73 50 32 32 33 40 34 40 35 38 40 36 35 49 84
71 66 66 63 61 60 60 62 62 62 63 62 62 64 64 58 59 64 63 72 69 62 56 60 48 49 53 61 63 54 78 47 40 34 35 41 44 45 32 42 42 43 39 51 79
69 61 66 67 62 61 60 62 61 63 64 64 63 64 60 50 71 62 73 72 63 55 62 66 54 56 56 59 56 66 51 49 55 56 46 44 41 42 44 41 40 40 37 48 60
70 67 68 66 61 64 62 63 62 64 66 64 64 63 49 46 52 65 61 66 48 56 63 65 51 49 52 50 58 56 53 55 63 53 50 49 48 36 42 42 40 38 36 38 50
70 68 67 70 68 65 65 64 63 64 64 65 64 63 45 54 36 42 43 63 50 64 65 78 48 41 44 54 53 50 50 54 52 54 50 49 53 51 39 40 39 39 37 37 37
70 70 70 68 71 69 68 65 64 64 64 65 64 47 47 54 38 40 41 47 47 58 67 83 63 53 40 60 47 43 56 60 58 51 53 45 50 56 34 40 38 36 36 36 38
70 70 71 68 70 72 72 68 66 67 61 62 64 48 53 36 38 41 48 45 50 57 56 79 63 56 51 52 55 50 45 58 53 56 54 49 52 33 37 37 34 32 32 35 36
64 72 70 71 70 74 75 68 66 64 60 59 52 51 53 40 50 45 53 56 55 56 57 66 59 61 58 59 66 60 52 48 65 54 54 52 45 35 40 40 35 30 29 32 35
67 70 72 70 70 76 70 65 62 52 50 47 48 50 48 63 58 56 49 52 61 62 71 85 70 65 58 64 62 69 49 48 48 57 56 51 48 39 44 47 36 28 27 32 34
64 69 73 72 70 76 57 51 48 55 56 67 69 64 59 57 53 57 58 56 62 62 82 87 90 63 48 50 46 45 48 48 45 49 53 49 47 40 37 44 42 36 30 29 33
66 72 74 73 72 70 56 50 60 59 69 67 65 63 60 66 54 64 51 69 73 78 79 94 87 48 56 52 48 47 44 46 50 47 55 47 50 40 38 42 39 37 35 29 31
70 73 75 67 76 60 57 62 62 61 69 71 68 66 67 60 71 77 63 72 67 70 73 99 82 54 52 58 54 48 42 47 47 46 50 52 48 45 40 40 39 38 41 33 31
70 75 71 75 66 62 59 62 62 57 97 78 68 68 64 62 71 63 67 61 66 74 73 76 67 62 56 55 49 59 51 49 52 52 57 48 46 41 35 39 41 37 37 37 37
71 74 69 79 64 63 60 66 61 58 90 67 70 67 64 57 64 61 62 66 66 76 74 92 80 66 63 56 47 51 54 52 53 52 53 54 61 34 36 38 37 36 35 37 38
72 73 82 74 66 64 62 60 60 93 93 87 70 70 70 69 62 63 65 60 55 68 78 89 70 57 48 64 55 56 55 53 52 50 68 39 50 35 33 30 30 31 31 37 36
75 81 77 66 66 69 65 64 97 95 69 85 72 68 66 69 70 62 68 70 71 94 100 95 88 72 67 66 61 56 58 83 82 86 61 49 51 32 25 29 27 27 25 27 33
83 81 72 64 66 68 66 72 97 69 87 63 70 64 70 63 61 60 59 66 64 59 97 100 98 85 66 61 68 55 51 62 69 54 42 56 51 28 26 27 27 27 26 29 28
79 70 71 72 71 71 63 100 77 86 75 70 70 78 65 69 67 64 56 50 56 60 71 75 89 77 73 67 62 71 88 52 70 59 61 40 41 32 24 27 27 28 30 31 29
69 70 76 75 72 68 76 87 75 57 59 70 67 60 60 66 74 75 56 46 59 56 52 58 91 79 85 70 71 65 48 76 90 85 67 47 43 28 25 25 23 22 24 25 31
70 69 77 76 69 62 100 81 69 59 61 67 62 61 56 70 69 72 66 56 55 64 54 54 60 90 91 95 96 83 75 69 54 54 60 43 32 26 29 25 27 24 29 36 37
73 72 79 78 78 77 83 70 72 62 65 66 63 60 57 53 72 75 66 54 52 61 70 53 58 86 75 64 60 59 56 55 69 66 58 58 40 27 26 27 30 30 39 47 50
63 70 70 80 80 75 62 62 69 67 60 60 57 56 52 56 62 56 57 52 57 61 63 62 88 93 89 78 74 85 64 61 55 65 93 66 41 29 30 31 33 35 35 45 53
49 64 55 57 63 53 53 58 62 62 65 62 57 52 55 57 50 64 57 55 60 64 70 59 76 64 58 57 57 82 64 60 80 99 63 65 44 30 31 34 33 29 29 39 50
51 48 60 61 40 55 62 66 64 62 64 59 62 61 64 59 55 56 54 53 66 70 70 83 100 78 62 58 66 68 64 65 92 77 84 54 48 38 31 28 26 30 32 38 50
45 46 59 53 56 53 58 55 70 62 58 55 67 54 55 78 70 98 97 85 72 80 76 92 99 99 100 83 68 77 62 60 61 63 60 55 55 35 30 30 34 35 36 39 40
80 71 37 57 53 39 35 53 53 51 41 44 49 56 55 48 53 54 89 95 98 98 93 78 92 94 86 84 93 92 65 60 59 55 57 73 51 37 40 41 41 38 36 39 39

GFSSW_sfc_rhum_087.txt.gz
RH
70 67 67 63 61 61 60 63 64 62 62 61 62 62 64 68 70 54 58 78 63 71 72 61 47 40 58 70 62 54 70 50 29 29 29 26 31 33 32 35 35 34 38 48 55
70 64 64 61 61 61 60 63 62 62 62 62 62 63 64 66 54 54 64 68 72 71 60 57 48 40 58 83 68 74 69 43 23 22 30 30 24 30 30 34 38 34 37 63 74
68 66 68 62 62 62 61 62 62 62 63 64 63 64 64 59 57 76 68 73 72 65 58 54 42 37 47 57 78 55 62 34 38 48 32 36 29 29 24 35 36 40 39 68 85
67 69 63 68 60 64 63 63 63 63 66 65 64 62 63 45 97 59 71 76 75 54 57 55 48 44 42 54 72 65 46 54 39 56 37 37 29 31 25 33 32 34 37 56 81
70 70 68 68 70 66 66 64 63 64 64 66 64 63 48 42 53 64 64 60 50 50 59 57 47 42 39 35 53 57 65 46 49 44 36 32 36 29 34 35 33 33 33 40 62
69 70 71 67 70 70 69 66 64 64 64 66 64 65 41 53 34 41 40 58 49 55 54 62 45 36 34 31 43 42 70 50 56 47 41 42 37 43 29 32 34 35 32 35 39
67 70 72 70 67 72 71 69 65 65 63 64 64 39 38 48 33 34 40 51 43 54 57 71 62 41 34 40 32 34 55 55 46 53 46 39 43 50 26 31 31 34 32 32 36
61 69 72 72 67 71 73 72 67 68 63 62 62 39 43 33 32 36 39 40 41 50 54 77 62 51 47 37 40 40 44 69 54 45 41 43 43 32 28 30 31 27 26 30 32
67 66 71 72 67 72 76 70 67 65 64 61 44 42 45 37 42 40 43 48 47 51 66 73 67 56 50 53 59 48 47 49 49 39 40 46 41 27 26 33 33 27 23 25 28
71 63 71 74 68 73 76 65 60 56 48 36 33 52 41 52 46 47 43 46 48 73 73 88 72 56 48 47 61 52 37 31 37 46 43 48 43 27 31 38 34 28 23 22 25
65 65 73 77 69 75 62 48 47 50 47 55 55 51 50 45 40 49 49 46 46 67 80 89 86 62 42 37 35 30 33 28 27 35 46 45 39 33 28 34 37 30 25 21 22
69 70 72 75 69 76 55 42 54 56 58 51 51 47 49 53 56 56 45 51 50 71 70 86 70 45 36 34 42 41 34 37 38 36 41 35 36 30 28 28 30 30 26 24 21
68 69 74 69 74 64 45 52 50 49 61 57 54 51 55 53 73 62 55 54 48 57 67 98 58 48 46 48 44 40 37 45 40 40 39 38 42 35 28 27 27 29 28 28 28
68 70 70 71 78 49 51 51 50 49 97 62 51 56 51 51 66 59 55 61 52 56 65 78 59 56 49 45 39 46 34 32 40 46 49 37 37 23 23 28 30 29 29 27 32
70 71 69 82 56 57 54 51 51 54 93 57 58 52 53 52 52 57 53 55 51 57 65 76 66 59 53 41 39 42 42 43 44 47 46 46 52 30 24 29 27 26 27 26 29
71 72 78 63 55 52 51 51 55 93 91 78 56 56 50 51 49 50 55 53 44 55 64 75 62 48 43 42 45 46 46 44 47 52 86 42 45 33 25 26 24 21 22 24 26
73 77 80 53 58 57 54 57 96 96 65 77 61 58 55 54 55 51 56 64 71 88 98 92 75 55 60 60 50 48 48 80 81 88 65 32 33 31 20 20 21 21 20 22 23
82 82 70 52 55 56 61 66 100 60 81 57 60 56 63 50 50 48 52 62 49 57 90 96 100 68 48 50 53 48 48 60 61 47 38 41 43 29 19 18 16 21 23 24 23
85 64 65 62 61 63 61 100 73 79 70 58 60 69 52 53 54 54 48 44 38 46 72 97 97 64 61 51 58 59 71 39 59 46 50 34 31 23 20 23 24 24 25 26 24
59 61 69 64 64 66 72 80 64 50 51 57 58 48 46 56 63 58 49 35 37 40 44 75 98 74 72 61 60 74 46 71 80 74 55 27 33 26 21 21 20 20 20 21 22
60 62 73 65 64 59 100 66 55 47 52 57 48 48 44 44 51 60 48 40 34 40 37 43 69 85 91 91 58 68 72 60 52 40 51 35 31 22 22 21 24 24 29 31 31
64 68 72 66 74 61 71 52 68 51 51 56 55 50 45 41 45 56 52 46 39 41 57 46 64 98 82 66 56 54 53 49 68 59 52 50 43 21 22 23 25 29 35 37 40
52 60 61 72 76 67 45 45 54 55 52 51 52 46 39 45 48 40 45 36 48 55 51 51 85 88 94 84 72 87 73 63 50 51 98 66 43 25 25 27 27 30 27 27 40
45 64 56 54 44 36 35 36 40 53 56 48 48 45 45 43 38 45 43 50 52 59 79 73 72 67 67 67 53 78 61 56 71 100 63 62 42 29 27 31 29 28 24 24 28
37 37 50 58 37 37 41 41 36 41 50 51 45 47 49 50 34 32 36 40 47 63 82 95 100 82 59 52 52 63 59 56 85 74 86 53 45 34 30 28 24 22 23 27 30
36 35 41 35 39 36 47 36 42 38 49 28 45 38 41 38 31 42 58 78 85 76 88 93 100 99 100 92 58 68 55 54 54 55 62 58 53 34 29 27 27 26 27 30 32
56 44 29 43 33 28 20 30 37 44 30 34 40 42 38 38 46 42 41 50 94 99 98 99 99 99 94 95 99 98 72 58 53 48 49 65 47 34 34 32 32 32 31 32 30

GFSSW_sfc_rhum_090.txt.gz
RH
69 69 64 64 61 61 60 65 62 62 63 63 63 63 63 67 69 59 61 69 76 70 80 70 64 49 63 85 73 70 87 72 53 39 37 29 40 38 36 41 40 43 63 66 85
69 69 62 64 62 62 62 61 64 62 64 64 64 62 64 66 62 62 73 65 69 68 81 81 76 50 71 80 85 81 87 62 40 52 40 31 34 36 40 44 43 50 72 72 88
69 69 66 68 62 63 63 63 63 63 65 67 65 63 64 60 58 78 61 72 69 67 70 77 80 44 71 76 92 75 74 49 40 55 59 42 30 30 37 47 43 49 79 87 89
67 71 70 65 71 68 66 65 63 63 65 65 66 64 62 51 91 52 58 67 76 70 63 76 83 66 56 80 75 89 62 57 54 57 60 51 36 38 36 46 39 43 68 82 88
66 69 70 68 67 72 69 68 64 64 64 65 67 64 60 45 51 43 55 61 58 66 66 68 64 50 49 59 76 78 70 58 65 55 59 51 51 36 47 41 37 36 55 74 83
60 68 72 73 66 70 71 69 66 64 64 64 65 67 54 56 34 35 37 53 55 66 65 62 64 58 45 44 72 67 67 74 71 55 50 46 46 49 43 40 40 38 43 55 74
66 62 69 71 64 68 71 70 70 66 69 64 64 48 42 48 34 34 38 49 47 62 63 66 59 60 51 43 46 62 76 76 84 61 49 45 52 56 43 39 41 41 41 45 48
69 67 67 72 66 68 72 74 71 69 67 65 62 49 47 34 36 38 41 43 43 52 61 65 61 61 56 41 44 65 80 88 69 54 55 53 62 46 39 42 43 42 41 41 44
70 66 63 68 68 69 74 75 68 68 65 61 54 45 49 40 42 42 43 49 56 60 60 51 64 67 56 64 66 56 77 84 76 71 56 58 59 35 36 36 42 40 36 39 44
67 65 65 69 68 72 76 74 60 66 56 37 33 55 42 49 44 44 44 44 64 62 65 78 86 80 68 73 84 64 51 48 62 68 57 71 57 42 32 42 56 46 40 35 38
70 69 70 73 70 72 75 58 64 60 49 53 53 46 48 44 40 50 46 48 56 68 84 87 95 84 59 51 38 39 44 40 42 52 62 51 48 46 35 47 50 47 41 35 32
68 67 70 75 70 74 72 50 60 64 64 43 43 46 44 47 58 53 47 54 60 84 80 90 86 52 41 40 40 54 43 43 51 52 61 48 49 40 36 36 44 44 42 38 33
70 67 72 74 71 78 52 57 53 51 73 54 49 45 52 51 63 64 51 55 53 63 69 87 77 52 48 47 50 52 52 51 55 47 49 54 54 42 33 31 32 35 37 36 35
69 68 72 70 86 55 56 51 52 55 97 60 49 54 49 50 66 53 52 62 52 61 65 72 59 57 57 55 47 58 39 55 57 59 73 48 75 47 37 36 33 36 39 40 37
71 69 70 76 74 60 58 53 56 65 93 59 57 48 49 53 56 60 52 59 55 55 67 82 73 67 64 47 42 52 44 52 57 57 62 60 76 52 36 40 36 34 36 39 38
75 72 74 70 69 56 55 57 67 96 88 77 53 56 54 49 49 54 56 57 54 52 62 72 66 69 58 48 43 47 57 51 56 63 97 69 64 60 40 33 35 34 33 34 36
75 76 82 56 66 60 61 70 98 96 67 76 60 52 52 51 53 56 63 67 76 93 97 84 79 61 63 75 66 60 68 94 96 94 92 43 57 49 34 28 30 31 34 34 34
81 81 74 53 61 62 73 84 96 59 90 61 56 53 65 47 50 52 54 60 61 63 84 95 95 79 59 73 72 68 68 86 78 80 65 41 64 42 26 28 28 28 32 34 32
87 80 74 70 65 72 82 100 86 89 78 57 52 64 61 50 54 52 55 56 50 53 79 85 80 64 59 51 59 70 80 55 90 66 80 60 47 33 26 30 34 35 36 39 37
79 77 78 67 69 79 92 86 73 50 48 54 62 50 52 56 66 60 54 42 45 37 47 81 96 76 70 66 68 84 66 82 95 93 74 45 39 41 33 29 32 33 37 38 35
82 81 81 68 73 84 96 81 55 45 49 55 54 49 44 46 62 63 57 43 38 38 46 75 91 95 86 89 80 88 97 90 69 67 81 69 52 35 32 34 35 42 44 47 44
80 90 74 74 97 86 96 63 64 47 50 56 56 58 56 47 48 48 59 44 45 52 58 54 94 93 88 77 61 57 69 80 97 79 73 85 66 31 33 32 32 45 47 51 54
78 86 75 75 98 95 56 42 50 52 52 54 54 48 44 50 56 42 43 47 56 72 79 64 98 99 99 94 78 91 74 62 70 82 90 89 64 33 33 36 35 42 37 48 52
66 86 82 82 60 60 46 39 44 56 54 47 47 46 50 49 40 47 42 47 57 60 75 86 90 73 70 80 78 95 78 65 80 98 82 80 60 40 38 37 36 42 38 40 39
64 62 67 85 57 50 50 45 36 42 52 49 52 48 42 57 46 40 33 33 50 82 74 93 99 98 67 56 75 88 72 71 92 90 85 64 59 44 36 35 40 37 35 36 37
63 54 53 48 42 42 56 43 40 38 50 36 42 35 42 48 40 50 51 54 61 87 97 98 99 100 98 89 96 93 70 62 65 69 76 67 63 42 40 40 38 37 38 40 41
66 53 49 54 42 40 40 39 41 46 39 35 42 44 44 47 53 50 50 52 83 91 87 95 98 99 98 97 99 99 93 67 61 56 60 80 58 44 47 42 41 41 40 39 40

GFSSW_sfc_rhum_093.txt.gz
RH
68 66 68 66 60 62 62 61 63 62 65 65 64 63 63 65 69 61 79 80 71 70 82 75 61 66 74 92 84 85 93 87 71 53 49 43 44 39 40 48 58 66 74 83 88
66 67 69 63 70 63 63 63 62 63 65 66 66 65 63 65 66 64 58 67 65 72 84 87 82 71 80 89 85 91 93 76 62 62 43 43 40 40 47 48 77 94 81 90 91
64 68 67 67 65 70 66 66 64 63 65 65 66 66 64 62 70 60 53 62 68 68 77 84 84 87 84 83 91 84 83 67 72 60 51 46 40 39 50 56 52 97 98 98 96
62 66 68 68 65 67 71 68 66 64 64 63 66 68 67 66 92 55 54 61 65 62 68 81 78 83 88 86 91 84 72 75 73 72 53 60 49 40 47 52 48 84 90 91 95
64 63 67 68 67 66 70 70 67 65 64 64 64 66 72 60 62 47 50 58 56 63 77 88 86 86 83 76 78 86 70 69 79 78 65 59 67 55 55 48 51 79 83 90 86
66 65 64 69 64 66 67 65 69 69 67 67 64 66 73 72 37 38 39 47 51 60 74 87 84 79 74 76 74 78 75 72 72 73 72 61 65 73 53 48 45 72 84 90 89
70 68 66 69 65 65 68 70 72 70 68 66 65 60 56 56 36 39 42 52 51 57 74 78 86 82 73 81 64 64 83 76 66 79 78 66 76 78 51 47 47 50 65 81 82
71 68 66 66 67 67 70 73 75 71 70 67 63 72 60 40 45 43 43 53 54 61 67 73 70 69 71 55 68 82 80 86 76 78 68 83 79 72 49 53 54 52 55 54 59
70 68 66 66 68 69 72 75 74 68 68 65 66 72 61 43 50 49 50 64 63 65 66 56 69 76 67 69 82 72 95 88 80 78 80 72 76 54 45 50 51 55 54 54 55
72 70 67 71 72 71 74 75 76 68 59 53 44 61 52 57 51 50 49 56 66 70 71 79 87 88 80 83 90 75 78 85 83 77 76 83 77 57 45 47 53 53 51 50 55
71 70 71 70 73 72 84 80 73 72 57 64 62 57 53 52 50 56 54 59 66 74 92 92 89 91 83 72 60 53 52 55 61 67 71 78 70 55 46 56 53 54 48 46 45
72 70 69 72 74 73 86 77 74 71 74 54 52 55 50 54 66 64 56 69 72 96 86 89 89 75 61 56 54 56 52 56 71 64 72 74 72 54 46 51 53 52 51 48 45
72 71 70 74 73 86 75 71 61 63 86 63 56 54 60 63 72 72 66 68 74 85 79 89 85 68 62 63 55 62 62 56 72 64 71 74 80 53 42 42 51 50 47 45 43
73 71 71 72 85 71 71 62 62 65 91 69 66 63 59 60 74 58 61 74 64 83 81 84 68 68 71 67 57 72 54 56 62 72 86 56 86 61 43 45 39 47 51 45 43
76 72 72 73 95 76 68 61 66 72 80 60 68 56 58 66 66 71 60 71 71 69 74 82 81 79 77 63 51 59 56 61 71 64 76 68 82 70 50 47 41 43 46 46 42
78 74 75 80 87 67 63 68 76 88 75 82 69 70 66 60 62 68 70 68 68 66 70 82 73 78 72 62 56 52 59 60 59 70 94 78 81 79 53 41 46 42 37 41 44
78 76 82 71 78 66 69 86 94 80 68 77 73 63 63 64 66 68 76 80 87 85 84 85 80 75 68 77 68 66 76 96 96 97 91 65 79 63 46 37 34 38 42 42 45
80 80 84 61 68 70 86 92 75 68 89 64 65 62 74 58 62 67 69 75 69 77 94 95 80 84 69 77 76 77 79 90 83 96 78 54 72 51 36 34 36 34 36 37 38
86 98 85 77 68 82 94 98 74 84 81 73 66 79 76 64 61 63 68 69 55 62 84 96 86 74 65 63 64 73 86 63 89 87 88 71 58 40 34 32 38 35 39 40 38
98 95 88 76 75 87 95 89 77 67 59 63 76 67 74 70 74 76 69 56 58 50 57 78 95 82 73 69 76 80 69 81 98 95 85 61 59 49 39 33 37 44 47 44 38
90 96 87 77 82 96 95 96 65 53 54 65 70 67 59 60 76 74 65 55 50 61 54 78 93 96 84 92 88 93 95 89 80 77 79 64 52 39 39 41 48 53 55 57 54
92 99 86 82 97 99 99 72 64 58 61 66 68 71 75 68 65 65 73 59 60 70 88 80 97 98 96 79 66 68 84 82 94 88 82 85 65 38 40 45 52 55 53 57 55
94 98 81 83 99 98 69 53 60 61 66 67 70 63 59 63 68 58 54 59 60 73 85 85 99 99 99 97 86 97 83 86 90 94 94 84 69 37 41 39 48 55 57 58 60
79 98 95 95 95 71 62 52 61 63 64 60 59 58 64 66 59 60 48 53 59 82 73 82 100 99 93 95 86 99 80 76 95 99 91 89 68 42 44 40 41 45 42 54 61
76 80 78 96 89 59 44 46 48 62 66 56 65 63 57 68 63 60 51 52 64 82 92 94 99 100 95 80 94 95 83 85 100 88 84 64 63 48 46 43 39 41 40 45 45
70 62 59 59 57 56 62 47 45 48 52 50 65 50 48 58 54 66 69 71 71 86 90 97 97 99 98 88 96 86 80 81 81 85 85 80 74 46 42 51 47 47 45 43 41
73 60 48 59 52 52 54 42 51 43 46 44 48 52 55 63 64 62 62 62 77 88 84 93 98 96 94 99 99 99 93 83 67 68 77 92 66 49 52 50 49 46 45 45 44

GFSSW_sfc_rhum_096.txt.gz
RH
65 66 67 67 64 68 63 62 63 63 64 65 65 65 65 64 67 60 76 75 74 75 79 75 66 71 88 94 88 88 93 88 70 52 47 46 41 42 50 65 83 71 82 82 90
63 63 67 67 64 66 69 64 66 63 64 65 64 66 68 68 70 56 50 59 69 75 77 86 79 84 88 84 92 96 91 78 70 60 51 46 41 47 53 74 96 95 94 91 90
64 63 67 67 66 65 68 68 67 65 64 64 63 66 68 68 80 57 50 58 65 67 85 83 76 87 81 90 91 88 86 80 82 76 64 46 48 46 53 59 84 91 98 98 96
64 64 62 68 68 65 67 70 66 65 66 63 64 65 68 69 89 52 50 60 62 60 82 75 80 87 81 88 85 92 79 79 85 80 67 65 53 54 53 54 72 89 90 95 96
69 66 65 66 69 64 67 66 64 67 68 68 65 67 74 63 62 39 49 53 59 65 72 75 84 86 88 87 90 89 91 77 79 74 75 61 76 72 60 58 86 92 92 95 96
68 69 67 66 71 65 67 69 70 70 70 68 65 68 68 71 34 36 40 46 53 62 76 78 81 78 96 81 76 84 90 77 77 81 73 65 76 60 56 61 89 92 98 95 92
68 71 68 66 66 66 68 70 72 75 73 69 64 64 72 58 36 40 44 52 54 64 83 83 76 94 78 83 71 79 87 84 77 87 84 76 67 71 63 54 76 88 94 93 93
68 69 68 67 69 68 71 73 74 76 72 69 65 75 65 40 41 42 48 65 56 63 72 83 79 87 78 70 70 83 81 94 86 87 81 76 78 72 71 64 61 71 88 92 87
69 70 69 68 71 71 73 74 74 73 70 66 67 74 65 46 54 46 55 65 62 64 65 62 77 78 67 83 87 76 98 89 86 84 87 78 84 60 66 65 62 62 67 72 80
71 72 69 71 73 74 74 75 75 72 58 59 50 61 49 62 58 49 55 57 67 70 69 78 81 79 82 82 90 85 95 90 79 87 85 89 82 73 66 61 57 62 62 63 62
72 72 68 70 74 74 85 79 72 69 60 62 62 60 56 54 55 58 57 62 66 76 84 86 80 86 83 78 74 59 76 75 68 69 77 76 80 74 74 66 52 62 62 57 56
74 72 68 70 75 74 88 74 76 72 74 58 57 60 52 62 72 60 61 70 75 93 88 80 81 84 74 68 65 64 63 67 73 65 77 67 66 60 69 61 50 57 56 54 52
75 73 68 72 75 86 78 71 64 68 80 66 58 58 59 64 75 72 68 75 81 87 83 86 83 70 67 70 66 66 64 70 74 76 76 74 75 67 56 49 50 54 53 51 48
77 73 70 73 86 79 72 63 65 66 89 69 71 65 64 64 71 59 66 76 67 87 84 86 71 72 76 71 63 78 58 53 70 81 95 74 92 65 58 47 47 50 58 54 51
79 75 72 76 95 78 69 65 70 64 66 54 72 59 65 70 65 71 63 74 79 75 72 81 86 87 80 70 61 66 61 66 73 73 69 74 77 72 61 54 44 47 53 54 51
81 77 77 84 91 71 67 69 74 85 54 83 76 80 78 67 67 70 72 70 72 71 76 83 74 81 79 67 64 56 64 65 81 91 95 72 74 72 65 48 40 41 40 41 45
82 78 84 74 83 68 72 83 90 72 68 75 79 72 68 71 72 73 79 82 85 87 88 84 80 79 71 78 68 65 89 99 98 99 92 72 85 64 51 46 38 37 42 44 46
82 81 82 71 72 71 83 84 56 62 86 62 68 68 77 68 68 74 78 88 75 72 95 98 79 84 73 72 76 78 92 94 86 92 81 68 87 57 42 40 41 35 45 45 45
86 97 85 81 74 79 88 99 58 79 77 78 75 84 81 69 65 74 80 76 65 67 93 98 87 76 74 73 66 80 90 64 87 89 91 67 57 42 38 38 46 44 44 48 49
98 97 90 79 76 86 95 85 80 70 66 67 78 74 83 79 77 79 77 64 63 59 57 78 98 81 72 72 81 76 66 90 98 97 90 71 73 50 42 40 43 48 49 49 47
94 97 91 79 80 94 98 84 74 59 58 70 77 77 70 69 77 85 72 59 54 73 62 72 92 93 91 91 90 89 94 86 74 70 86 65 56 40 38 37 46 50 54 55 57
95 99 88 79 97 96 98 89 64 64 65 69 72 74 80 74 74 81 77 68 67 70 70 81 96 98 85 87 84 82 79 71 86 87 82 81 59 43 52 49 55 60 58 64 61
99 98 89 88 98 98 84 57 61 67 69 73 74 70 70 67 73 64 60 64 64 78 89 81 100 98 97 93 90 98 86 83 89 90 91 84 61 42 54 58 58 57 60 58 58
93 99 95 97 90 92 71 59 63 66 67 66 65 62 68 70 63 70 54 56 71 83 71 83 99 99 96 98 98 99 97 84 88 98 90 89 66 48 47 45 52 57 60 72 67
80 83 82 98 96 78 59 53 59 69 64 60 68 62 61 71 66 69 60 58 78 83 87 88 95 94 90 86 98 99 96 97 100 90 88 72 71 53 43 46 46 46 45 49 50
80 76 70 69 65 74 55 48 45 54 65 62 63 50 51 60 54 61 72 73 76 82 86 92 95 98 88 84 87 88 95 96 97 91 81 88 82 50 41 49 67 57 49 49 46
82 60 49 57 59 54 58 44 48 49 52 45 51 53 55 54 66 66 65 65 79 86 86 94 99 93 87 80 93 93 84 90 88 87 89 97 70 55 62 54 54 54 51 48 47

GFSSW_sfc_rhum_099.txt.gz
RH
65 63 65 69 69 65 70 69 65 66 63 63 64 64 67 69 69 61 66 66 70 80 83 76 78 75 91 92 90 84 98 72 72 49 45 46 48 46 60 69 85 80 86 79 94
66 64 61 67 67 68 66 69 67 63 65 64 64 64 67 70 74 75 49 60 67 82 87 86 84 84 96 87 92 98 96 73 89 77 51 49 50 52 67 85 95 92 91 93 91
68 65 64 61 69 68 66 67 69 66 65 65 64 66 69 69 71 58 49 56 66 74 80 87 89 94 90 83 93 95 90 83 91 79 71 49 54 52 64 70 86 96 94 89 91
70 67 66 64 66 68 65 68 68 67 66 67 68 68 69 63 89 46 50 51 56 69 78 76 86 89 90 82 87 97 91 86 88 77 72 72 58 58 53 52 60 87 90 91 88
71 70 70 66 66 71 66 68 70 69 69 69 69 70 68 62 60 36 49 49 54 67 83 75 85 90 88 83 89 93 88 81 80 76 75 66 75 63 66 91 91 93 94 94 91
72 71 72 68 66 68 68 70 71 72 73 71 69 68 62 76 36 35 41 47 51 67 76 71 73 79 91 88 83 85 93 81 80 81 79 82 70 63 60 87 98 95 96 98 96
72 71 73 68 68 69 69 71 72 73 74 72 69 67 67 60 35 40 46 56 56 68 74 71 72 81 78 90 73 87 92 77 82 81 81 86 70 78 78 65 96 97 96 97 97
73 72 72 70 69 69 72 73 74 74 73 71 67 77 62 40 42 43 48 62 59 66 78 82 78 86 86 76 81 89 90 97 82 81 73 78 89 73 75 64 67 84 99 98 94
73 73 73 72 71 74 76 76 74 72 71 69 73 73 65 47 54 52 58 61 63 64 68 64 78 81 73 84 92 83 97 99 87 83 81 83 87 69 67 72 65 64 79 93 96
75 74 75 72 72 76 76 75 76 71 56 60 54 59 50 62 56 56 59 59 68 67 64 76 78 76 83 78 92 98 94 91 92 86 86 83 83 79 72 70 76 68 68 71 79
78 76 76 71 73 76 86 75 71 64 63 67 66 63 58 55 58 58 61 65 65 73 85 81 85 83 91 84 77 75 79 79 78 79 86 85 85 80 71 78 75 69 61 62 62
83 79 75 72 74 73 90 74 74 68 75 58 60 62 56 64 69 61 62 72 77 82 80 75 82 88 78 71 66 66 79 78 70 75 76 86 84 77 80 76 74 68 61 61 59
86 79 76 72 75 86 80 71 68 71 82 66 59 59 62 65 76 68 70 77 83 87 82 79 78 73 69 70 66 71 79 79 73 80 77 78 82 78 71 65 68 61 58 57 55
87 78 75 74 84 82 73 64 68 60 88 63 76 66 67 67 69 60 68 76 70 86 86 86 74 76 77 74 63 79 62 57 85 88 95 73 79 73 65 68 63 60 60 60 60
92 83 75 76 84 76 71 69 70 61 72 54 76 61 67 72 67 73 65 76 81 80 72 72 87 87 81 73 69 67 63 64 85 76 78 93 88 69 59 70 58 55 57 56 57
92 85 76 86 90 73 69 69 68 86 55 83 78 85 80 74 69 72 74 73 74 73 78 80 75 85 78 71 70 61 74 85 91 86 96 81 82 75 71 53 50 48 45 45 43
86 86 82 74 82 72 71 76 92 89 70 79 85 82 78 75 74 77 80 84 81 89 90 82 82 78 78 84 70 78 88 98 98 99 94 77 84 74 54 51 44 40 38 40 38
91 86 84 74 74 74 76 85 96 54 85 63 73 73 80 73 74 79 84 90 81 77 96 97 80 84 76 75 76 88 93 95 91 95 96 75 88 68 43 43 45 40 40 42 47
91 95 89 83 74 76 84 98 80 69 76 79 79 86 85 75 72 82 86 81 72 77 84 98 87 73 78 78 71 86 94 84 98 90 93 83 62 43 38 38 43 44 46 46 52
99 96 92 79 77 83 94 94 75 69 70 73 74 78 84 84 81 85 83 70 68 68 67 81 97 82 75 79 87 79 75 92 98 97 95 80 72 54 41 38 43 50 48 48 47
99 99 90 81 78 89 98 91 72 63 64 72 77 83 79 78 81 87 79 65 63 70 64 75 93 86 95 96 90 94 93 84 81 86 93 78 58 50 44 35 41 45 50 54 51
99 99 87 86 97 98 99 91 66 67 69 73 74 76 77 73 79 89 78 81 70 73 79 78 87 91 89 90 92 86 79 77 89 92 85 85 67 48 55 50 43 53 60 63 59
98 98 93 91 99 99 91 70 65 70 72 75 76 73 74 72 78 70 72 66 69 76 86 79 98 98 90 96 91 98 88 77 79 84 92 88 68 42 47 63 63 57 60 60 64
99 98 100 98 95 95 78 61 63 69 74 72 70 69 73 79 71 75 63 66 76 88 81 78 94 94 94 93 98 99 99 82 84 99 88 78 66 49 44 52 61 64 62 61 63
94 93 88 97 96 94 68 61 67 71 66 68 72 66 69 77 78 80 62 59 73 82 92 85 84 84 88 87 90 96 97 98 100 84 86 74 67 50 42 43 43 52 52 52 52
91 82 84 90 82 93 72 56 60 67 69 68 62 54 58 68 61 64 65 71 73 78 90 90 94 97 97 72 87 93 80 91 98 98 92 92 90 59 46 53 54 52 53 52 49
80 61 55 68 83 78 61 44 50 55 54 53 60 56 58 55 64 67 66 68 81 84 84 95 97 94 88 78 94 92 83 75 77 86 93 98 72 59 67 68 65 57 58 55 51

GFSSW_sfc_rhum_102.txt.gz
RH
68 67 66 64 67 69 67 66 69 65 65 64 63 63 65 68 71 68 64 59 68 75 82 80 84 78 92 96 89 90 96 92 86 68 45 49 54 64 60 66 81 73 81 84 95
69 66 66 65 64 70 69 66 66 70 64 64 64 66 68 70 80 74 51 59 68 72 80 86 91 84 95 94 93 88 96 84 61 71 51 47 53 69 74 94 91 89 92 95 96
68 68 67 67 65 68 68 65 65 67 66 66 67 69 70 72 72 58 46 54 60 75 86 82 82 83 90 92 91 91 95 77 68 88 76 50 60 59 76 85 84 72 97 97 93
69 69 68 71 69 67 70 67 66 66 68 68 70 72 71 69 85 50 48 52 52 75 76 74 88 95 90 90 85 83 78 87 86 83 70 57 57 65 62 65 75 89 88 91 93
71 70 68 72 71 68 70 68 68 67 71 72 72 72 70 66 64 39 49 51 48 75 82 83 87 90 92 87 87 90 86 82 90 84 76 66 72 70 76 83 88 88 88 90 89
75 71 71 71 73 70 70 71 71 70 72 73 72 73 68 78 40 36 42 53 51 66 79 86 85 92 76 82 77 88 87 85 87 84 78 73 72 67 71 72 96 90 86 84 87
79 73 73 72 72 70 71 72 73 74 74 72 71 74 77 60 41 40 45 62 57 63 82 78 79 84 82 84 82 83 86 86 87 81 80 81 83 91 83 82 98 98 92 90 81
84 76 74 73 74 72 73 76 75 75 74 71 70 78 70 43 49 48 47 57 59 66 79 84 81 84 82 75 82 86 92 100 83 83 77 72 96 78 76 73 72 82 96 97 96
88 84 79 74 75 74 76 77 75 73 72 67 78 80 66 47 57 54 62 60 63 62 64 65 78 80 72 88 93 87 98 100 94 81 78 78 93 78 73 74 72 71 74 88 99
91 90 82 76 75 75 78 77 76 72 55 61 58 62 52 63 58 56 63 64 69 66 63 74 76 82 81 80 94 96 96 93 97 85 74 82 86 74 72 79 81 77 66 67 76
94 90 83 83 74 74 84 72 64 65 64 69 66 64 59 57 60 60 65 70 69 70 78 75 85 86 86 88 77 81 84 87 85 84 81 84 76 72 75 78 83 76 68 60 57
90 90 84 80 72 76 88 72 69 61 72 60 63 62 57 65 71 59 62 72 75 82 76 75 89 78 82 79 69 81 85 86 85 85 81 85 74 67 72 81 78 76 70 64 61
84 91 89 82 74 86 83 69 68 70 80 68 61 62 60 67 74 67 70 76 83 86 85 75 80 72 68 73 69 76 81 77 84 88 81 90 87 84 76 81 69 68 69 64 59
84 91 89 83 88 85 75 66 68 58 88 61 79 67 69 69 67 61 68 78 72 86 88 86 79 78 78 76 71 81 67 63 88 88 93 77 74 84 75 75 70 66 72 66 62
84 89 90 86 93 78 69 71 69 60 89 56 79 63 69 74 68 69 66 69 83 82 74 76 89 88 83 74 70 73 73 71 87 87 92 92 89 69 71 76 64 58 60 69 61
82 91 88 94 94 79 70 70 66 86 82 83 83 87 83 77 71 71 74 69 76 75 78 81 77 87 83 74 74 66 81 87 93 86 98 85 86 76 71 60 54 48 54 60 55
81 89 92 87 87 74 71 73 90 96 71 86 92 90 84 81 77 80 81 86 82 85 90 81 79 78 82 86 74 80 83 98 99 99 95 81 95 71 56 53 47 46 49 52 50
89 89 92 82 78 74 72 84 96 62 81 64 81 82 84 75 78 83 86 90 85 81 98 97 78 80 79 80 80 90 84 92 91 98 96 87 96 76 52 43 44 45 43 47 46
90 99 98 89 76 79 85 98 82 72 72 82 79 86 88 80 77 86 87 84 76 81 82 97 86 71 76 82 77 90 98 82 92 90 94 90 78 46 38 39 39 42 45 50 52
99 96 95 79 77 84 96 86 77 63 73 77 68 80 84 86 83 89 85 76 74 76 77 80 96 82 81 84 89 81 78 96 99 97 96 84 78 59 41 39 42 45 52 50 50
98 97 93 80 79 90 98 90 71 65 66 72 74 89 81 85 83 89 82 75 77 77 69 80 89 80 90 95 91 95 99 93 89 87 94 84 61 52 49 41 37 43 52 52 54
96 99 96 82 98 96 100 86 69 70 69 74 75 76 80 75 87 89 85 81 67 82 82 80 88 91 75 83 91 81 96 94 92 98 87 87 71 50 56 61 52 47 53 57 60
97 98 98 87 98 98 92 90 73 71 72 74 78 73 78 75 76 82 78 73 75 77 92 86 97 97 78 84 91 99 96 92 99 90 94 90 76 45 64 68 64 62 70 63 62
99 100 100 98 95 94 93 76 69 70 74 71 74 75 78 81 77 78 77 72 78 91 78 78 93 86 91 84 92 98 88 92 99 99 95 81 74 58 47 57 63 62 64 71 66
99 96 86 98 96 93 88 66 67 74 70 72 77 73 76 84 79 82 63 61 74 78 90 90 91 89 74 81 89 92 88 86 100 97 97 80 68 51 47 48 51 66 52 54 56
98 93 93 94 87 92 91 72 65 75 69 76 68 66 67 73 66 69 66 74 70 74 90 87 95 94 91 81 85 86 83 83 88 93 98 99 94 68 53 61 56 54 59 60 58
95 65 72 87 94 90 89 64 59 59 56 57 63 58 58 57 64 68 68 73 83 81 85 96 93 97 94 74 87 94 86 82 80 88 83 94 79 70 77 74 74 62 59 60 55

GFSSW_sfc_rhum_105.txt.gz
RH
70 69 66 66 65 65 68 69 65 66 68 65 62 64 66 69 72 72 65 54 62 66 73 79 82 81 86 89 88 85 93 97 75 85 62 38 36 54 56 60 68 57 73 82 95
73 69 68 66 67 65 65 69 64 65 67 66 64 67 69 71 82 76 54 52 60 68 75 86 90 84 86 86 92 86 87 87 74 62 71 68 42 59 63 79 74 66 74 86 91
78 71 69 67 70 69 67 70 66 66 66 66 67 70 72 71 69 55 45 51 53 75 86 86 83 73 87 80 83 84 79 88 77 64 71 74 57 55 65 76 69 66 77 93 92
83 73 70 68 70 69 67 68 67 67 66 68 70 71 73 68 81 46 47 54 52 74 74 75 82 89 83 92 85 83 73 84 84 84 76 77 55 62 63 64 61 68 76 81 79
90 81 72 71 70 72 68 67 69 68 69 71 70 72 77 64 60 41 46 53 48 72 78 88 84 87 87 79 83 83 83 72 74 82 90 68 66 68 75 67 68 72 81 86 81
88 90 80 76 73 72 70 70 70 71 73 72 69 74 74 76 40 37 42 56 50 62 75 80 80 84 78 79 79 79 80 78 75 81 83 77 68 70 75 68 78 65 83 86 80
85 92 86 85 76 73 70 71 72 74 75 73 68 71 83 63 39 42 46 59 53 60 77 78 78 88 73 87 74 75 77 81 84 88 84 70 73 79 71 76 76 66 82 83 77
83 92 88 85 77 76 74 72 75 77 75 73 67 70 78 42 48 48 49 55 58 64 72 77 78 80 78 72 80 83 84 99 79 86 77 79 78 73 68 70 82 84 66 69 88
73 87 89 83 82 81 76 75 76 75 72 69 70 68 69 45 54 51 58 62 61 62 65 56 72 76 86 91 92 80 92 99 86 84 89 80 86 67 65 69 73 78 81 72 75
68 78 92 82 83 85 76 77 75 76 61 61 53 66 52 61 56 56 57 62 66 63 61 70 73 83 72 76 82 92 94 88 91 86 85 82 72 63 63 67 75 68 71 80 94
72 79 84 82 77 78 85 80 57 66 64 58 60 64 60 57 61 61 58 67 64 63 74 70 82 88 82 80 73 76 80 88 85 80 90 90 75 60 60 60 61 65 63 66 77
70 78 84 79 83 78 88 80 68 68 74 60 62 64 60 63 73 62 63 73 71 75 66 74 88 76 77 80 68 77 83 87 83 82 79 84 76 56 64 61 60 61 61 62 56
69 78 88 87 84 91 90 74 67 70 82 66 62 61 59 67 73 68 70 74 78 82 80 76 72 72 67 68 66 73 76 84 76 83 82 82 79 68 63 66 59 58 61 60 54
67 79 88 88 84 86 81 64 68 62 91 66 78 67 68 68 68 58 69 74 76 84 84 79 73 76 75 72 64 70 61 60 86 89 92 79 74 67 62 59 55 44 55 56 57
69 68 88 83 96 87 71 70 66 61 86 64 78 63 69 71 69 70 68 70 84 84 70 76 85 85 82 71 68 68 69 77 83 79 85 86 87 74 66 69 56 52 52 54 56
71 71 83 94 97 87 71 65 65 88 80 82 84 84 83 78 70 70 73 67 75 74 74 77 73 84 78 75 71 72 78 82 85 82 94 77 81 66 72 67 55 48 49 53 53
71 71 90 88 91 78 72 73 93 97 68 83 93 92 84 81 77 77 80 80 77 76 85 75 75 72 80 84 71 76 80 97 97 98 90 74 90 66 54 49 44 44 43 48 49
84 88 91 83 90 74 73 86 98 79 74 65 84 86 84 76 80 84 82 84 83 77 94 95 73 72 82 78 76 87 84 89 91 92 86 82 91 65 53 45 46 41 42 40 47
90 98 97 93 83 76 86 99 90 87 69 82 78 86 89 81 77 84 88 83 76 77 77 93 82 69 74 80 78 86 99 75 88 82 82 76 68 44 38 44 40 38 40 43 44
99 97 96 90 77 83 97 87 88 63 73 78 70 80 86 89 85 89 86 76 74 76 71 77 97 82 83 81 91 86 83 98 99 96 94 74 69 52 41 36 35 38 42 45 46
99 97 95 89 76 93 100 91 79 62 70 74 69 87 80 89 83 90 84 80 74 76 75 78 90 78 76 90 91 94 98 94 93 82 84 71 54 44 44 43 45 38 46 46 48
96 100 98 94 98 97 100 87 73 70 72 73 72 77 78 84 89 89 87 79 70 83 82 81 83 91 76 90 91 83 99 100 95 97 77 74 58 43 47 57 61 47 51 52 51
97 97 98 99 99 99 93 86 82 73 73 73 77 74 77 76 74 84 82 74 77 88 95 86 95 95 75 77 70 86 87 92 99 95 94 84 64 40 54 62 62 54 57 58 56
98 100 100 99 96 90 90 85 82 70 72 69 76 74 78 81 76 77 79 75 76 91 76 74 92 85 85 74 92 93 83 81 96 99 95 80 62 49 46 56 59 59 57 56 56
98 98 92 99 99 93 87 81 70 74 73 73 78 76 75 84 80 83 64 63 72 73 86 83 94 95 84 79 81 77 86 90 96 90 99 84 70 56 51 43 48 51 50 50 49
99 98 94 94 89 90 92 91 71 70 76 82 72 76 72 70 58 73 66 64 64 70 89 90 89 97 92 69 81 89 78 77 86 78 84 89 86 70 63 54 49 51 54 54 54
94 76 84 90 92 93 87 85 65 63 59 58 67 61 66 61 63 70 71 75 84 79 89 93 96 97 92 78 87 90 73 81 81 83 84 94 75 68 74 72 77 70 58 56 55

GFSSW_sfc_rhum_108.txt.gz
RH
82 75 71 68 66 66 66 65 69 63 64 66 65 64 66 70 70 50 50 40 52 65 65 60 72 70 66 66 54 55 73 70 82 84 57 42 54 43 25 38 34 35 32 39 75
89 83 74 70 68 68 68 65 70 64 64 65 66 66 69 72 59 52 40 51 55 65 66 79 68 65 64 51 60 68 68 74 79 84 69 66 63 50 33 36 42 41 56 69 81
82 88 82 72 69 69 68 66 67 64 66 65 67 70 72 63 53 40 38 52 54 70 80 78 71 61 64 65 60 56 63 62 81 85 86 69 58 48 46 38 37 44 51 64 69
78 83 86 77 70 69 70 67 66 65 65 66 69 71 73 48 76 36 43 53 54 60 58 68 64 65 67 75 65 58 67 77 80 88 80 80 55 62 50 38 33 34 44 67 72
78 80 89 82 81 74 73 70 69 68 67 69 71 71 58 49 44 31 44 47 44 59 65 70 68 69 60 57 68 63 68 72 71 77 71 64 65 67 46 42 54 37 52 61 77
72 78 90 82 77 75 73 71 69 69 69 70 71 72 57 56 30 30 35 46 47 55 58 65 70 68 61 62 61 65 65 66 67 71 72 82 68 65 42 45 52 49 48 58 69
65 74 84 86 78 75 72 70 70 73 73 70 71 64 65 42 29 30 40 44 51 56 71 76 71 82 57 71 58 64 70 61 68 66 74 80 73 73 44 48 53 56 53 70 68
65 70 79 90 79 76 77 72 72 75 75 70 69 62 49 34 28 37 37 45 49 54 65 70 69 80 66 53 62 58 63 87 71 70 72 86 77 55 49 51 53 46 52 74 76
64 69 79 85 82 80 77 74 74 74 72 66 71 53 44 37 41 36 41 49 47 51 63 61 76 73 65 69 64 61 66 91 57 78 81 83 83 55 49 53 67 54 55 64 76
64 67 72 75 84 78 79 76 73 71 58 51 46 60 38 45 43 42 40 52 57 53 56 62 70 82 70 66 56 58 61 47 55 69 73 82 82 53 47 55 58 62 73 70 70
65 67 71 78 82 78 79 62 50 54 54 46 42 47 47 43 46 45 45 52 48 48 62 56 73 73 65 56 56 53 51 34 63 63 78 83 83 65 45 52 54 64 71 83 73
65 68 85 84 78 79 80 60 54 52 66 49 48 51 47 47 56 46 46 52 50 53 51 60 63 56 63 58 58 57 55 62 63 65 80 72 76 59 46 46 47 56 60 68 72
65 66 82 86 83 86 72 68 57 58 75 57 52 48 47 52 53 51 54 54 55 53 58 63 55 58 58 52 54 59 54 61 58 68 75 68 62 56 50 44 44 45 50 51 66
67 65 68 90 88 78 74 56 57 50 96 62 64 55 56 53 53 45 52 58 56 59 60 54 55 60 56 53 49 52 48 54 65 69 80 58 47 62 49 47 42 40 45 50 52
70 65 66 82 91 90 63 58 56 55 78 61 65 50 56 56 54 56 52 56 56 60 59 59 63 60 60 53 53 53 57 52 60 62 62 70 60 41 42 49 42 39 38 41 46
73 66 70 92 92 79 67 54 56 90 82 77 68 63 63 59 53 53 55 51 55 61 57 59 55 65 58 60 58 60 59 62 60 64 74 44 58 28 42 38 36 37 37 38 38
71 70 74 80 87 81 64 56 95 90 60 77 76 73 62 61 59 57 56 51 52 69 85 58 54 54 65 65 56 61 60 84 82 91 62 57 69 34 34 36 34 34 32 31 37
72 81 86 79 93 77 65 71 90 88 75 58 72 69 58 56 61 63 59 52 60 53 68 74 68 55 56 65 67 58 67 66 62 56 52 66 66 33 38 35 31 33 30 31 31
77 97 91 93 87 73 63 99 77 86 60 68 67 59 62 61 58 61 58 53 53 52 56 60 56 51 56 59 63 96 93 62 72 57 61 47 46 33 25 30 30 30 29 31 30
86 97 96 93 78 75 75 81 77 61 59 64 56 56 48 60 59 59 52 57 58 55 49 56 81 61 62 62 63 71 76 98 95 92 63 46 47 35 32 31 28 28 30 33 38
84 97 93 94 90 84 97 80 70 56 58 64 54 58 49 60 56 57 55 63 55 59 54 57 72 56 58 61 57 63 77 85 98 88 58 42 35 29 35 39 40 32 34 34 40
85 98 98 95 99 90 90 73 72 62 60 60 53 56 51 60 62 60 62 58 53 64 62 64 65 77 52 56 59 62 86 100 94 84 88 58 37 31 39 44 42 35 38 37 41
95 95 97 98 100 93 80 73 70 60 61 60 59 57 53 56 50 59 61 59 61 66 69 61 81 74 48 70 58 65 63 73 90 98 90 62 45 33 34 41 42 42 40 40 39
97 100 99 98 92 84 73 70 69 63 60 56 56 54 52 54 53 57 58 58 61 69 72 59 96 80 60 71 70 75 60 61 79 93 90 65 47 36 41 39 40 42 40 38 38
92 98 90 99 98 72 64 74 64 60 60 58 60 55 49 54 56 57 50 50 51 59 61 60 75 71 55 51 56 64 62 56 86 70 94 78 91 52 46 47 35 37 39 39 39
93 99 83 88 87 72 77 76 64 59 61 65 60 60 51 41 36 47 49 45 41 50 59 68 84 90 80 57 66 65 51 58 60 61 67 62 70 47 40 45 45 41 43 42 42
85 87 95 89 93 82 69 72 56 56 49 47 55 52 53 49 44 48 46 50 63 62 65 69 83 85 71 64 88 85 68 65 68 67 73 84 60 58 60 56 53 50 49 48 46

GFSSW_sfc_rhum_111.txt.gz
RH
77 82 85 79 71 69 68 68 65 69 64 64 65 66 65 69 72 44 44 32 38 58 66 49 51 58 67 66 51 48 79 73 47 46 43 48 75 46 43 58 33 30 32 36 56
73 76 84 83 72 71 69 68 66 68 64 66 65 66 68 72 56 41 30 42 53 57 54 61 59 56 60 56 53 74 76 55 35 57 78 60 75 74 68 56 36 41 32 59 74
75 79 83 89 76 71 68 69 66 66 66 67 66 67 71 67 45 33 42 47 54 57 54 62 56 51 52 42 46 55 79 40 55 74 80 70 70 70 82 72 39 49 74 54 79
69 72 78 82 80 72 70 70 68 66 67 68 67 69 72 48 69 30 39 48 56 49 51 51 54 56 57 60 47 62 45 50 62 69 73 82 82 80 69 52 47 76 85 55 77
62 64 75 82 82 79 72 71 68 67 68 69 69 71 60 43 35 28 39 38 42 48 55 57 63 56 66 48 49 57 54 61 64 72 74 72 74 78 58 44 43 62 76 57 69
63 65 73 80 88 77 73 72 70 69 70 71 69 73 60 52 26 28 32 37 47 48 48 54 59 62 70 55 54 48 57 57 60 66 72 74 63 66 62 45 48 52 62 53 53
63 64 69 80 88 83 75 72 70 71 72 73 70 58 61 45 25 27 33 36 44 56 68 67 65 80 60 67 54 54 63 66 59 58 63 56 55 67 57 49 47 44 50 56 54
64 64 64 72 79 86 79 75 73 74 75 74 69 57 53 28 25 30 31 36 41 45 60 58 65 82 65 51 57 59 65 81 53 60 66 59 78 58 49 53 44 39 50 56 58
64 66 66 68 73 82 83 78 74 74 75 69 67 58 43 33 33 31 33 41 41 43 58 62 80 71 57 71 70 49 58 84 52 58 64 59 61 55 60 48 42 39 45 60 65
65 67 67 76 77 77 83 78 69 71 64 49 44 57 38 33 36 37 34 43 49 46 54 59 73 79 74 82 94 53 50 43 55 59 58 57 63 65 63 46 41 44 38 54 71
68 67 68 80 83 80 79 70 61 63 50 47 39 37 35 33 36 40 37 43 44 48 61 60 80 74 52 48 49 48 41 37 30 52 58 53 61 64 53 48 45 47 63 59 64
75 70 68 76 88 82 78 70 48 58 55 42 40 38 38 40 47 40 38 47 45 52 45 53 68 48 54 48 50 45 40 38 46 49 58 50 54 55 48 42 44 48 61 62 80
79 72 67 69 88 88 76 65 57 53 61 53 44 42 40 44 43 44 44 45 45 46 45 60 56 47 49 50 47 43 44 42 46 52 52 62 58 60 47 40 40 44 54 63 77
74 76 67 65 90 77 75 51 51 53 95 62 56 49 47 47 49 39 44 54 46 53 46 44 39 49 50 48 41 49 41 45 49 52 51 44 71 59 53 48 44 44 54 60 66
74 79 67 64 87 92 70 51 51 57 93 55 58 43 48 50 44 47 45 48 50 43 52 54 52 54 51 43 47 51 47 45 44 46 44 42 49 49 47 50 45 42 45 52 67
79 79 67 60 87 81 75 54 57 92 88 72 57 54 55 49 45 45 46 45 46 49 42 45 42 52 53 51 48 47 50 44 44 54 67 38 43 44 46 47 41 36 38 46 54
84 80 66 57 74 80 68 60 96 98 60 73 63 54 47 48 48 47 46 44 49 71 75 50 42 41 53 56 43 49 58 82 80 85 58 46 48 33 29 31 39 38 35 36 44
78 72 72 63 66 88 66 72 100 75 68 54 58 54 48 43 47 49 46 41 44 40 56 62 66 45 42 53 63 58 58 76 81 57 41 49 50 43 29 29 28 29 30 30 34
75 88 92 78 90 93 68 100 77 74 55 57 56 50 50 48 48 47 40 38 43 40 51 50 46 38 44 49 53 76 79 55 71 43 47 36 36 25 24 27 29 29 28 33 28
71 86 94 94 85 84 84 82 69 52 52 53 41 44 36 46 45 42 37 46 49 45 40 45 66 46 42 45 52 56 65 82 80 82 55 36 36 38 35 34 27 27 28 29 33
76 95 93 94 90 78 98 74 60 50 51 50 41 39 35 41 40 37 39 51 47 50 44 44 52 51 39 52 53 55 74 72 96 86 89 56 48 34 41 39 37 28 32 34 40
82 98 96 94 99 85 77 63 67 56 52 52 43 42 38 43 43 41 43 47 49 54 48 49 52 68 39 43 47 49 60 77 78 95 68 69 68 32 36 34 32 35 36 36 40
88 96 96 97 100 89 63 60 60 53 54 49 46 46 43 42 42 44 47 49 50 56 56 48 71 74 53 61 54 56 51 49 82 95 87 76 74 33 32 36 38 38 35 34 34
87 100 95 96 95 84 62 56 59 55 53 49 45 42 41 41 40 44 47 50 51 53 61 52 93 78 59 67 60 67 50 42 69 91 73 62 71 44 45 42 37 36 34 33 33
78 97 88 97 93 74 57 61 58 52 53 48 48 43 38 38 40 40 43 48 43 48 45 46 78 58 48 46 49 53 54 46 80 67 87 56 62 53 45 41 41 34 36 37 37
84 99 88 94 72 62 66 64 58 49 50 54 48 48 42 36 32 32 38 39 35 40 47 56 86 84 78 52 55 53 41 42 49 53 56 55 55 40 45 43 45 41 40 42 41
75 76 86 90 85 65 58 56 52 50 45 42 47 43 46 46 38 36 35 39 53 57 54 60 81 84 65 55 82 85 56 58 59 58 70 75 54 57 56 52 52 52 48 46 43

GFSSW_sfc_rhum_114.txt.gz
RH
67 75 77 82 87 75 72 69 70 66 69 65 65 66 66 68 70 58 50 35 36 46 60 57 51 54 62 74 70 66 95 92 70 61 47 28 57 40 42 63 63 56 62 62 66
63 70 71 81 82 85 74 70 69 66 68 66 66 66 68 71 68 60 35 37 45 52 59 55 59 60 76 73 70 86 88 71 50 43 43 50 63 66 57 62 71 68 57 52 63
59 65 63 72 79 84 76 75 70 68 67 67 67 67 70 69 65 39 45 44 51 55 55 54 59 57 64 57 62 65 80 56 50 47 61 76 72 67 76 75 69 73 66 69 88
63 61 62 71 77 86 77 71 70 69 68 68 68 69 72 66 72 39 45 44 46 50 50 58 62 59 59 64 50 64 53 53 52 63 73 68 70 70 66 64 57 56 58 62 83
62 63 64 67 78 84 84 81 75 69 68 69 69 70 67 55 43 38 45 42 41 47 57 59 60 64 74 63 70 68 55 51 55 63 69 64 66 72 67 49 53 59 56 67 75
64 63 65 65 70 77 88 78 73 71 70 71 71 72 73 73 27 27 31 36 44 49 54 52 60 62 73 73 71 60 62 53 58 66 62 66 55 60 49 41 52 55 64 65 81
66 65 65 66 66 72 87 84 76 73 71 72 71 66 67 64 27 27 30 37 41 55 66 61 64 74 70 72 53 55 71 64 64 64 66 60 59 48 37 48 61 65 65 70 78
67 67 66 67 68 71 75 89 82 76 73 74 72 70 72 32 30 28 30 35 40 46 58 60 63 78 79 60 60 63 64 90 57 63 60 72 57 36 64 52 68 74 72 67 79
74 68 68 69 69 80 78 81 84 76 73 72 76 72 57 37 33 29 35 40 41 43 55 56 75 81 67 78 83 64 85 87 72 61 67 79 74 54 61 64 66 72 58 76 89
74 75 71 70 73 85 80 82 80 73 70 56 57 63 47 35 36 36 36 40 48 54 62 64 76 86 70 90 99 96 94 61 70 67 66 70 72 51 54 67 75 73 54 72 88
73 77 78 69 71 88 76 71 76 75 62 61 52 47 32 34 36 42 37 42 46 56 69 72 84 92 88 61 50 57 56 54 40 59 64 65 58 59 57 53 57 50 51 84 91
71 74 78 69 70 84 80 82 63 67 68 56 45 40 33 38 49 44 40 50 52 64 54 64 76 52 56 49 51 50 56 53 52 56 67 61 61 58 54 56 54 56 67 76 88
73 76 78 70 65 84 84 77 61 63 74 53 45 43 40 43 44 47 44 50 53 54 54 60 51 41 47 49 50 52 67 52 52 53 60 65 71 65 57 54 48 55 62 70 83
75 77 76 68 73 80 76 59 56 60 99 68 58 48 43 49 52 39 44 56 53 57 57 56 42 45 52 53 49 67 57 50 44 52 85 60 83 62 59 60 60 62 78 88 87
75 77 76 72 71 84 89 67 59 67 98 59 58 44 46 53 48 50 49 53 55 51 54 67 62 65 64 54 52 60 52 54 52 51 58 52 72 90 58 61 60 61 75 91 87
81 80 85 70 76 66 85 64 66 96 97 71 58 58 55 48 43 46 48 52 48 52 46 50 38 54 59 53 51 47 56 56 54 60 90 52 58 96 63 59 58 56 61 74 86
83 83 85 59 75 87 84 72 99 99 62 75 61 52 48 48 47 46 50 53 60 76 82 58 52 46 50 64 52 58 72 95 96 97 90 53 57 59 41 39 59 64 66 62 84
74 74 74 60 65 85 83 90 99 66 74 54 52 48 49 43 49 50 52 54 50 47 76 80 81 51 42 54 64 69 86 98 96 95 91 54 81 50 37 37 50 61 50 51 67
78 89 88 83 83 92 86 100 96 81 54 57 50 54 56 45 53 50 44 48 51 50 67 77 60 44 44 42 58 73 88 68 96 64 76 53 48 40 37 38 35 43 40 38 37
78 88 96 93 91 93 95 95 73 52 51 51 53 45 50 50 53 48 44 50 54 48 46 54 80 52 40 45 58 68 66 87 91 95 78 59 62 64 56 49 40 41 46 45 46
85 95 98 94 88 83 100 83 56 50 54 57 45 39 39 44 42 42 44 54 53 56 48 54 63 66 49 65 67 76 83 75 95 93 97 96 96 53 54 48 45 49 51 56 56
88 99 92 94 98 93 92 66 63 55 55 52 46 44 43 42 45 48 54 58 55 56 59 56 66 90 64 54 46 55 60 92 96 92 92 99 98 43 51 51 47 49 47 49 52
93 98 94 97 100 98 60 53 56 58 55 48 46 44 40 45 54 47 55 53 53 63 70 64 84 94 84 74 57 58 52 52 92 95 93 94 98 55 52 48 46 47 48 46 44
83 98 96 95 92 86 62 59 56 60 55 48 46 41 42 43 40 53 52 56 56 55 61 58 94 88 93 78 65 79 60 50 83 94 93 84 78 93 56 56 51 50 50 51 49
79 99 93 96 85 71 60 60 52 60 52 49 48 44 43 44 44 47 50 55 48 45 52 64 88 78 62 52 56 63 59 54 87 74 91 74 69 58 59 60 59 50 48 48 50
84 90 73 93 70 64 69 64 56 53 52 52 54 47 42 48 45 55 46 50 49 51 63 72 94 93 92 58 65 65 48 49 52 58 71 67 69 66 55 51 62 60 56 57 54
74 74 87 81 78 68 67 60 55 55 50 44 48 49 56 52 43 43 45 53 70 77 64 76 93 95 82 72 90 90 66 64 62 54 69 75 80 82 76 61 60 67 61 57 56

GFSSW_sfc_rhum_117.txt.gz
RH
63 62 67 64 72 80 84 80 70 71 67 68 66 65 66 68 71 74 78 64 52 47 63 67 69 63 65 73 71 74 98 92 82 77 68 48 50 42 49 56 46 47 58 58 62
58 66 67 62 68 76 79 84 73 75 67 67 66 66 67 70 81 84 60 43 45 50 67 78 70 62 81 88 86 92 96 76 66 60 59 50 56 63 74 61 61 51 47 53 59
62 58 65 63 66 75 79 84 77 71 69 67 67 67 69 73 90 57 46 46 49 52 67 64 66 68 81 75 79 87 86 67 58 54 56 65 66 72 81 85 68 60 50 55 68
63 63 61 63 65 70 78 86 73 79 68 67 64 69 72 82 79 49 49 50 50 55 63 63 72 83 67 75 65 74 68 64 58 56 56 67 61 82 74 67 50 56 55 56 75
67 65 65 65 65 66 75 92 82 76 69 67 69 69 81 89 72 44 49 49 45 61 66 72 78 73 83 72 73 82 74 59 55 59 57 68 74 74 59 49 47 51 51 68 77
71 68 68 67 66 66 70 77 86 74 72 68 70 70 94 94 39 38 44 44 47 59 64 64 69 71 78 86 85 73 76 76 67 60 71 76 77 73 58 50 51 49 54 75 72
71 74 69 68 68 67 72 73 86 78 72 69 69 70 90 76 40 41 36 43 51 60 73 68 74 82 82 88 72 67 81 66 64 61 70 66 80 76 51 43 48 44 56 72 68
70 72 76 70 70 68 77 77 79 88 77 71 70 82 88 47 47 42 33 40 54 58 65 69 72 88 83 74 74 74 74 91 60 67 71 73 76 54 54 72 62 67 67 71 75
68 71 74 77 71 71 84 80 79 84 76 70 86 93 86 43 39 32 36 46 54 57 63 59 81 92 82 89 86 84 97 90 78 56 71 75 86 63 54 69 72 72 74 73 79
70 71 77 77 70 72 85 80 82 76 72 66 64 78 58 45 44 44 45 46 57 64 79 78 89 94 86 93 96 97 92 83 87 63 71 85 91 68 58 62 82 84 81 80 91
70 73 77 73 69 73 90 87 92 96 84 78 72 64 45 43 44 50 46 52 62 67 84 81 96 94 84 74 84 83 69 78 67 66 75 79 78 66 52 63 65 74 74 85 88
67 74 77 70 70 67 88 93 83 79 85 68 56 56 44 46 58 55 46 64 67 86 74 80 95 72 61 68 77 57 63 84 80 62 68 70 70 59 58 64 63 60 64 82 98
74 73 75 68 74 84 90 77 74 73 87 61 58 54 50 50 57 62 54 62 63 68 66 82 62 45 52 62 62 60 72 74 66 50 66 74 71 72 62 57 52 50 74 78 86
74 74 75 77 80 82 84 76 64 69 99 74 65 58 52 60 67 49 54 65 66 66 62 69 58 59 66 67 63 80 60 57 62 70 84 69 85 65 72 60 53 61 91 87 86
78 76 79 78 91 87 89 84 70 77 96 68 68 51 56 64 58 62 56 64 70 67 64 69 64 68 69 67 59 73 60 61 67 73 75 63 83 94 74 74 70 78 92 94 87
74 80 85 78 86 83 86 81 75 98 96 74 66 68 67 60 54 58 59 59 56 64 57 61 49 57 65 56 61 58 66 67 71 76 92 71 78 74 56 74 80 71 71 92 94
76 74 80 73 88 89 88 86 99 97 63 80 71 65 67 60 58 57 64 64 65 76 80 66 56 50 50 66 61 60 84 96 94 96 92 65 68 61 47 72 81 77 72 83 94
79 76 82 69 83 84 87 96 94 73 80 62 61 60 63 56 60 59 61 68 60 63 91 87 78 55 49 61 75 78 85 98 97 92 95 71 73 65 45 45 84 83 75 63 80
79 89 96 95 92 90 92 98 97 83 61 67 63 68 70 54 60 62 64 67 66 64 82 86 72 50 46 51 68 77 93 72 97 93 91 80 70 56 47 46 53 78 82 67 56
96 91 95 90 94 92 98 82 81 63 64 63 67 52 70 63 64 57 69 64 70 63 63 67 83 57 52 53 56 72 70 82 92 96 95 88 98 81 68 62 56 58 66 61 64
94 95 88 88 90 94 100 86 70 57 61 61 63 54 53 56 51 56 73 67 68 69 61 63 73 69 61 74 80 78 86 87 89 96 98 97 98 59 65 63 64 60 56 59 64
96 99 85 96 97 97 96 75 68 64 60 56 54 55 55 53 58 65 74 68 58 67 74 69 78 93 78 61 54 63 71 88 95 93 97 99 99 70 77 60 57 58 52 51 58
95 97 90 96 97 99 72 64 65 70 66 61 56 51 47 51 66 60 72 60 59 68 75 69 90 92 76 63 57 68 60 68 91 94 93 96 98 69 73 61 56 62 61 55 50
97 98 95 96 96 98 80 74 67 64 62 57 52 49 48 50 48 59 69 63 59 60 57 66 93 84 92 81 73 79 65 60 82 96 92 83 76 79 72 69 68 68 64 65 59
97 96 94 97 91 86 75 70 67 67 57 55 58 53 53 52 49 56 61 64 50 45 59 72 89 87 71 62 62 69 63 61 81 77 92 81 91 89 79 75 67 73 62 59 59
97 98 91 97 88 81 77 72 72 66 58 61 66 56 54 60 61 66 60 67 67 56 71 76 98 95 96 71 79 67 52 54 54 63 75 75 86 86 72 73 86 80 68 68 66
90 89 97 85 89 88 82 72 66 61 58 52 56 59 63 59 51 53 62 69 76 80 70 83 95 96 88 76 88 82 64 66 73 66 73 87 91 90 76 75 90 90 80 75 70